Wetterdaten: Montag, 20.08.2018
Datum Zeit Temp. A. Pool Temp. Temp. 5cm Feuchte A. Luftdruck Regen Wind Richtung Richtung Sonnenschein ET UV Solar Taupunkt Windchill Windben Empfang
20.08.2018 00:01 21,1 C 26,1 C 18,9 C 67 % 1015,6 hPa 0,0 l/m 5,2 km/h (1 Bft) S-SW 194 0 min 0,000 mm 0,0 UV-I 0 W/m 14,7 C 21,1 C 9,7 km/h (2 Bft) 93,75 %
20.08.2018 00:02 21,1 C 26,1 C 18,9 C 67 % 1015,6 hPa 0,0 l/m 4,7 km/h (1 Bft) SW 215 0 min 0,000 mm 0,0 UV-I 0 W/m 14,7 C 21,1 C 6,4 km/h (2 Bft) 96,15 %
20.08.2018 00:04 21,1 C 26,1 C 18,9 C 67 % 1015,6 hPa 0,0 l/m 6,0 km/h (2 Bft) SW 225 0 min 0,000 mm 0,0 UV-I 0 W/m 14,7 C 21,1 C 8,0 km/h (2 Bft) 93,62 %
20.08.2018 00:06 21,1 C 26,1 C 18,9 C 67 % 1015,7 hPa 0,0 l/m 5,1 km/h (1 Bft) SW 217 0 min 0,000 mm 0,0 UV-I 0 W/m 14,7 C 21,1 C 8,0 km/h (2 Bft) 93,62 %
20.08.2018 00:08 21,1 C 26,1 C 18,9 C 67 % 1015,8 hPa 0,0 l/m 3,6 km/h (1 Bft) SW 217 0 min 0,000 mm 0,0 UV-I 0 W/m 14,7 C 21,1 C 4,8 km/h (1 Bft) 93,75 %
20.08.2018 00:10 20,9 C 26,1 C 18,3 C 67 % 1015,7 hPa 0,0 l/m 2,3 km/h (1 Bft) SW 217 0 min 0,000 mm 0,0 UV-I 0 W/m 14,5 C 20,9 C 3,2 km/h (1 Bft) 95,74 %
20.08.2018 00:12 20,8 C 26,1 C 18,3 C 68 % 1015,7 hPa 0,0 l/m 3,5 km/h (1 Bft) SW 216 0 min 0,000 mm 0,0 UV-I 0 W/m 14,7 C 20,8 C 4,8 km/h (1 Bft) 89,36 %
20.08.2018 00:14 20,8 C 26,1 C 18,9 C 67 % 1015,7 hPa 0,0 l/m 3,4 km/h (1 Bft) SW 216 0 min 0,000 mm 0,0 UV-I 0 W/m 14,4 C 20,8 C 4,8 km/h (1 Bft) 93,62 %
20.08.2018 00:16 20,8 C 26,1 C 18,9 C 68 % 1015,7 hPa 0,0 l/m 3,7 km/h (1 Bft) SW 216 0 min 0,000 mm 0,0 UV-I 0 W/m 14,7 C 20,8 C 6,4 km/h (2 Bft) 97,87 %
20.08.2018 00:18 20,7 C 26,1 C 18,9 C 68 % 1015,7 hPa 0,0 l/m 3,9 km/h (1 Bft) SW 215 0 min 0,000 mm 0,0 UV-I 0 W/m 14,6 C 20,7 C 6,4 km/h (2 Bft) 95,74 %
20.08.2018 00:20 20,7 C 26,1 C 18,9 C 68 % 1015,8 hPa 0,0 l/m 4,1 km/h (1 Bft) SW 215 0 min 0,000 mm 0,0 UV-I 0 W/m 14,6 C 20,7 C 6,4 km/h (2 Bft) 95,74 %
20.08.2018 00:22 20,7 C 26,1 C 18,9 C 68 % 1015,7 hPa 0,0 l/m 5,1 km/h (1 Bft) SW 218 0 min 0,000 mm 0,0 UV-I 0 W/m 14,6 C 20,7 C 6,4 km/h (2 Bft) 91,49 %
20.08.2018 00:24 20,7 C 26,1 C 18,9 C 68 % 1015,7 hPa 0,0 l/m 4,6 km/h (1 Bft) SW 219 0 min 0,000 mm 0,0 UV-I 0 W/m 14,6 C 20,7 C 6,4 km/h (2 Bft) 97,37 %
20.08.2018 00:26 20,7 C 26,1 C 18,3 C 68 % 1015,7 hPa 0,0 l/m 4,1 km/h (1 Bft) SW 217 0 min 0,000 mm 0,0 UV-I 0 W/m 14,6 C 20,7 C 6,4 km/h (2 Bft) 93,62 %
20.08.2018 00:28 20,6 C 26,1 C 18,9 C 69 % 1015,8 hPa 0,0 l/m 3,8 km/h (1 Bft) SW 216 0 min 0,000 mm 0,0 UV-I 0 W/m 14,7 C 20,6 C 4,8 km/h (1 Bft) 93,62 %
20.08.2018 00:30 20,5 C 26,1 C 18,9 C 69 % 1015,8 hPa 0,0 l/m 4,6 km/h (1 Bft) S-SW 207 0 min 0,000 mm 0,0 UV-I 0 W/m 14,6 C 20,5 C 6,4 km/h (2 Bft) 95,74 %
20.08.2018 00:32 20,4 C 26,1 C 18,9 C 69 % 1015,7 hPa 0,0 l/m 4,1 km/h (1 Bft) S-SW 207 0 min 0,000 mm 0,0 UV-I 0 W/m 14,5 C 20,4 C 6,4 km/h (2 Bft) 97,87 %
20.08.2018 00:34 20,3 C 26,1 C 18,9 C 70 % 1015,7 hPa 0,0 l/m 4,7 km/h (1 Bft) S-SW 204 0 min 0,000 mm 0,0 UV-I 0 W/m 14,6 C 20,3 C 6,4 km/h (2 Bft) 98,00 %
20.08.2018 00:36 20,3 C 26,1 C 18,3 C 70 % 1015,7 hPa 0,0 l/m 4,3 km/h (1 Bft) S-SW 211 0 min 0,000 mm 0,0 UV-I 0 W/m 14,6 C 20,3 C 4,8 km/h (1 Bft) 97,87 %
20.08.2018 00:38 20,4 C 26,1 C 18,3 C 69 % 1015,7 hPa 0,0 l/m 4,9 km/h (1 Bft) SW 232 0 min 0,000 mm 0,0 UV-I 0 W/m 14,5 C 20,4 C 6,4 km/h (2 Bft) 95,74 %
20.08.2018 00:40 20,4 C 26,1 C 18,3 C 69 % 1015,6 hPa 0,0 l/m 5,2 km/h (1 Bft) S-SW 208 0 min 0,000 mm 0,0 UV-I 0 W/m 14,5 C 20,4 C 8,0 km/h (2 Bft) 100,00 %
20.08.2018 00:42 20,4 C 26,1 C 18,3 C 69 % 1015,7 hPa 0,0 l/m 5,7 km/h (1 Bft) SW 217 0 min 0,000 mm 0,0 UV-I 0 W/m 14,5 C 20,4 C 8,0 km/h (2 Bft) 97,87 %
20.08.2018 00:44 20,4 C 26,1 C 18,3 C 69 % 1015,6 hPa 0,0 l/m 5,6 km/h (1 Bft) S-SW 205 0 min 0,000 mm 0,0 UV-I 0 W/m 14,5 C 20,4 C 8,0 km/h (2 Bft) 93,62 %
20.08.2018 00:46 20,4 C 26,1 C 18,9 C 69 % 1015,6 hPa 0,0 l/m 4,6 km/h (1 Bft) S-SW 209 0 min 0,000 mm 0,0 UV-I 0 W/m 14,5 C 20,4 C 6,4 km/h (2 Bft) 97,44 %
20.08.2018 00:48 20,4 C 26,1 C 18,9 C 69 % 1015,7 hPa 0,0 l/m 6,2 km/h (2 Bft) SW 218 0 min 0,000 mm 0,0 UV-I 0 W/m 14,5 C 20,4 C 9,7 km/h (2 Bft) 100,00 %
20.08.2018 00:50 20,4 C 26,1 C 18,9 C 69 % 1015,6 hPa 0,0 l/m 6,0 km/h (2 Bft) S-SW 205 0 min 0,000 mm 0,0 UV-I 0 W/m 14,5 C 20,4 C 11,3 km/h (2 Bft) 100,00 %
20.08.2018 00:52 20,4 C 26,1 C 18,9 C 69 % 1015,7 hPa 0,0 l/m 6,0 km/h (2 Bft) SW 219 0 min 0,000 mm 0,0 UV-I 0 W/m 14,5 C 20,4 C 8,0 km/h (2 Bft) 100,00 %
20.08.2018 00:54 20,4 C 26,1 C 18,9 C 69 % 1015,6 hPa 0,0 l/m 6,3 km/h (2 Bft) S-SW 205 0 min 0,000 mm 0,0 UV-I 0 W/m 14,5 C 20,4 C 8,0 km/h (2 Bft) 100,00 %
20.08.2018 00:56 20,4 C 26,1 C 18,9 C 69 % 1015,6 hPa 0,0 l/m 5,7 km/h (1 Bft) SW 229 0 min 0,000 mm 0,0 UV-I 0 W/m 14,5 C 20,4 C 8,0 km/h (2 Bft) 100,00 %
20.08.2018 00:58 20,4 C 26,1 C 18,9 C 69 % 1015,6 hPa 0,0 l/m 5,8 km/h (2 Bft) SW 215 0 min 0,000 mm 0,0 UV-I 0 W/m 14,5 C 20,4 C 8,0 km/h (2 Bft) 100,00 %
20.08.2018 01:00 20,4 C 26,1 C 18,9 C 69 % 1015,6 hPa 0,0 l/m 6,6 km/h (2 Bft) SW 214 0 min 0,025 mm 0,0 UV-I 0 W/m 14,5 C 20,3 C 9,7 km/h (2 Bft) 100,00 %
20.08.2018 01:02 20,3 C 26,1 C 18,9 C 69 % 1015,5 hPa 0,0 l/m 6,0 km/h (2 Bft) S-SW 209 0 min 0,000 mm 0,0 UV-I 0 W/m 14,4 C 20,3 C 8,0 km/h (2 Bft) 100,00 %
20.08.2018 01:04 20,3 C 26,1 C 18,9 C 69 % 1015,5 hPa 0,0 l/m 5,7 km/h (1 Bft) SW 218 0 min 0,000 mm 0,0 UV-I 0 W/m 14,4 C 20,3 C 8,0 km/h (2 Bft) 100,00 %
20.08.2018 01:06 20,3 C 26,1 C 18,9 C 69 % 1015,5 hPa 0,0 l/m 6,2 km/h (2 Bft) SW 221 0 min 0,000 mm 0,0 UV-I 0 W/m 14,4 C 20,3 C 9,7 km/h (2 Bft) 100,00 %
20.08.2018 01:08 20,3 C 26,1 C 18,9 C 69 % 1015,5 hPa 0,0 l/m 6,6 km/h (2 Bft) SW 217 0 min 0,000 mm 0,0 UV-I 0 W/m 14,4 C 20,2 C 9,7 km/h (2 Bft) 97,87 %
20.08.2018 01:10 20,3 C 26,1 C 18,9 C 69 % 1015,5 hPa 0,0 l/m 6,4 km/h (2 Bft) S-SW 200 0 min 0,000 mm 0,0 UV-I 0 W/m 14,4 C 20,3 C 8,0 km/h (2 Bft) 100,00 %
20.08.2018 01:12 20,2 C 26,1 C 18,9 C 70 % 1015,5 hPa 0,0 l/m 5,8 km/h (2 Bft) S-SW 207 0 min 0,000 mm 0,0 UV-I 0 W/m 14,5 C 20,2 C 8,0 km/h (2 Bft) 100,00 %
20.08.2018 01:14 20,1 C 26,1 C 18,9 C 70 % 1015,5 hPa 0,0 l/m 5,4 km/h (1 Bft) S-SW 204 0 min 0,000 mm 0,0 UV-I 0 W/m 14,5 C 20,1 C 8,0 km/h (2 Bft) 97,87 %
20.08.2018 01:16 20,1 C 26,1 C 18,9 C 70 % 1015,4 hPa 0,0 l/m 4,6 km/h (1 Bft) S-SW 204 0 min 0,000 mm 0,0 UV-I 0 W/m 14,5 C 20,1 C 6,4 km/h (2 Bft) 100,00 %
20.08.2018 01:18 20,1 C 26,1 C 18,9 C 70 % 1015,4 hPa 0,0 l/m 5,1 km/h (1 Bft) S-SW 213 0 min 0,000 mm 0,0 UV-I 0 W/m 14,5 C 20,1 C 8,0 km/h (2 Bft) 97,87 %
20.08.2018 01:20 20,1 C 26,1 C 18,9 C 70 % 1015,5 hPa 0,0 l/m 5,4 km/h (1 Bft) S-SW 205 0 min 0,000 mm 0,0 UV-I 0 W/m 14,5 C 20,1 C 8,0 km/h (2 Bft) 100,00 %
20.08.2018 01:22 20,1 C 26,1 C 18,3 C 70 % 1015,4 hPa 0,0 l/m 4,8 km/h (1 Bft) S-SW 211 0 min 0,000 mm 0,0 UV-I 0 W/m 14,5 C 20,1 C 6,4 km/h (2 Bft) 100,00 %
20.08.2018 01:24 20,1 C 26,1 C 18,3 C 70 % 1015,4 hPa 0,0 l/m 5,7 km/h (1 Bft) S-SW 213 0 min 0,000 mm 0,0 UV-I 0 W/m 14,5 C 20,1 C 8,0 km/h (2 Bft) 100,00 %
20.08.2018 01:26 20,1 C 26,1 C 18,9 C 70 % 1015,4 hPa 0,0 l/m 6,0 km/h (2 Bft) S-SW 202 0 min 0,000 mm 0,0 UV-I 0 W/m 14,5 C 20,1 C 8,0 km/h (2 Bft) 100,00 %
20.08.2018 01:28 20,1 C 26,1 C 18,3 C 70 % 1015,4 hPa 0,0 l/m 6,3 km/h (2 Bft) S-SW 211 0 min 0,000 mm 0,0 UV-I 0 W/m 14,5 C 20,1 C 8,0 km/h (2 Bft) 100,00 %
20.08.2018 01:30 20,0 C 26,1 C 18,3 C 70 % 1015,4 hPa 0,0 l/m 6,5 km/h (2 Bft) S-SW 213 0 min 0,000 mm 0,0 UV-I 0 W/m 14,4 C 20,0 C 8,0 km/h (2 Bft) 100,00 %
20.08.2018 01:32 19,9 C 26,1 C 18,9 C 70 % 1015,4 hPa 0,0 l/m 6,1 km/h (2 Bft) S-SW 211 0 min 0,000 mm 0,0 UV-I 0 W/m 14,3 C 19,9 C 8,0 km/h (2 Bft) 97,87 %
20.08.2018 01:34 19,9 C 26,1 C 18,9 C 70 % 1015,4 hPa 0,0 l/m 5,9 km/h (2 Bft) S-SW 206 0 min 0,000 mm 0,0 UV-I 0 W/m 14,3 C 19,9 C 8,0 km/h (2 Bft) 100,00 %
20.08.2018 01:36 19,9 C 26,1 C 18,9 C 71 % 1015,4 hPa 0,0 l/m 5,5 km/h (1 Bft) S-SW 212 0 min 0,000 mm 0,0 UV-I 0 W/m 14,5 C 19,9 C 8,0 km/h (2 Bft) 95,74 %
20.08.2018 01:38 19,8 C 26,1 C 18,3 C 71 % 1015,4 hPa 0,0 l/m 4,8 km/h (1 Bft) SW 214 0 min 0,000 mm 0,0 UV-I 0 W/m 14,4 C 19,8 C 6,4 km/h (2 Bft) 96,00 %
20.08.2018 01:40 19,8 C 26,1 C 18,3 C 71 % 1015,4 hPa 0,0 l/m 5,5 km/h (1 Bft) S-SW 209 0 min 0,000 mm 0,0 UV-I 0 W/m 14,4 C 19,8 C 8,0 km/h (2 Bft) 100,00 %
20.08.2018 01:42 19,8 C 26,1 C 18,3 C 71 % 1015,4 hPa 0,0 l/m 4,2 km/h (1 Bft) S-SW 211 0 min 0,000 mm 0,0 UV-I 0 W/m 14,4 C 19,8 C 8,0 km/h (2 Bft) 100,00 %
20.08.2018 01:44 19,8 C 26,1 C 18,3 C 71 % 1015,4 hPa 0,0 l/m 5,1 km/h (1 Bft) SW 214 0 min 0,000 mm 0,0 UV-I 0 W/m 14,4 C 19,8 C 8,0 km/h (2 Bft) 97,87 %
20.08.2018 01:46 19,8 C 26,1 C 18,3 C 71 % 1015,4 hPa 0,0 l/m 5,0 km/h (1 Bft) S-SW 212 0 min 0,000 mm 0,0 UV-I 0 W/m 14,4 C 19,8 C 6,4 km/h (2 Bft) 97,87 %
20.08.2018 01:48 19,8 C 26,1 C 18,3 C 71 % 1015,4 hPa 0,0 l/m 5,1 km/h (1 Bft) S-SW 211 0 min 0,000 mm 0,0 UV-I 0 W/m 14,4 C 19,8 C 6,4 km/h (2 Bft) 91,49 %
20.08.2018 01:50 19,8 C 26,1 C 18,3 C 71 % 1015,3 hPa 0,0 l/m 5,4 km/h (1 Bft) S-SW 209 0 min 0,000 mm 0,0 UV-I 0 W/m 14,4 C 19,8 C 6,4 km/h (2 Bft) 95,74 %
20.08.2018 01:52 19,7 C 26,1 C 18,3 C 71 % 1015,3 hPa 0,0 l/m 5,1 km/h (1 Bft) S-SW 213 0 min 0,000 mm 0,0 UV-I 0 W/m 14,3 C 19,7 C 6,4 km/h (2 Bft) 97,87 %
20.08.2018 01:54 19,8 C 26,1 C 18,3 C 71 % 1015,3 hPa 0,0 l/m 5,3 km/h (1 Bft) S-SW 213 0 min 0,000 mm 0,0 UV-I 0 W/m 14,4 C 19,8 C 9,7 km/h (2 Bft) 95,74 %
20.08.2018 01:56 19,7 C 26,1 C 18,3 C 71 % 1015,3 hPa 0,0 l/m 5,3 km/h (1 Bft) S-SW 211 0 min 0,000 mm 0,0 UV-I 0 W/m 14,3 C 19,7 C 8,0 km/h (2 Bft) 93,62 %
20.08.2018 01:58 19,7 C 26,1 C 18,3 C 71 % 1015,3 hPa 0,0 l/m 4,8 km/h (1 Bft) S-SW 210 0 min 0,000 mm 0,0 UV-I 0 W/m 14,3 C 19,7 C 6,4 km/h (2 Bft) 95,74 %
20.08.2018 02:00 19,7 C 26,1 C 17,8 C 71 % 1015,3 hPa 0,0 l/m 4,9 km/h (1 Bft) S-SW 210 0 min 0,026 mm 0,0 UV-I 0 W/m 14,3 C 19,7 C 6,4 km/h (2 Bft) 94,00 %
20.08.2018 02:02 19,6 C 26,1 C 17,8 C 71 % 1015,3 hPa 0,0 l/m 5,3 km/h (1 Bft) S-SW 209 0 min 0,000 mm 0,0 UV-I 0 W/m 14,2 C 19,6 C 6,4 km/h (2 Bft) 93,75 %
20.08.2018 02:04 19,5 C 26,1 C 17,8 C 72 % 1015,2 hPa 0,0 l/m 5,1 km/h (1 Bft) S-SW 207 0 min 0,000 mm 0,0 UV-I 0 W/m 14,3 C 19,5 C 6,4 km/h (2 Bft) 95,74 %
20.08.2018 02:06 19,4 C 26,1 C 17,8 C 73 % 1015,2 hPa 0,0 l/m 4,5 km/h (1 Bft) S-SW 205 0 min 0,000 mm 0,0 UV-I 0 W/m 14,4 C 19,4 C 6,4 km/h (2 Bft) 94,74 %
20.08.2018 02:08 19,3 C 26,1 C 18,3 C 73 % 1015,2 hPa 0,0 l/m 4,9 km/h (1 Bft) S-SW 200 0 min 0,000 mm 0,0 UV-I 0 W/m 14,3 C 19,3 C 6,4 km/h (2 Bft) 96,00 %
20.08.2018 02:10 19,3 C 26,1 C 18,3 C 73 % 1015,2 hPa 0,0 l/m 4,9 km/h (1 Bft) S-SW 202 0 min 0,000 mm 0,0 UV-I 0 W/m 14,3 C 19,3 C 6,4 km/h (2 Bft) 95,74 %
20.08.2018 02:12 19,4 C 25,6 C 18,3 C 73 % 1015,2 hPa 0,0 l/m 4,7 km/h (1 Bft) S-SW 200 0 min 0,000 mm 0,0 UV-I 0 W/m 14,4 C 19,4 C 6,4 km/h (2 Bft) 95,74 %
20.08.2018 02:14 19,4 C 25,6 C 18,3 C 73 % 1015,2 hPa 0,0 l/m 5,2 km/h (1 Bft) S-SW 193 0 min 0,000 mm 0,0 UV-I 0 W/m 14,4 C 19,4 C 6,4 km/h (2 Bft) 96,00 %
20.08.2018 02:16 19,5 C 25,6 C 17,8 C 73 % 1015,2 hPa 0,0 l/m 5,2 km/h (1 Bft) S-SW 201 0 min 0,000 mm 0,0 UV-I 0 W/m 14,5 C 19,5 C 6,4 km/h (2 Bft) 93,62 %
20.08.2018 02:18 19,5 C 25,6 C 17,8 C 73 % 1015,2 hPa 0,0 l/m 5,0 km/h (1 Bft) SW 221 0 min 0,000 mm 0,0 UV-I 0 W/m 14,5 C 19,5 C 6,4 km/h (2 Bft) 97,87 %
20.08.2018 02:20 19,6 C 25,6 C 17,8 C 72 % 1015,2 hPa 0,0 l/m 5,0 km/h (1 Bft) S-SW 213 0 min 0,000 mm 0,0 UV-I 0 W/m 14,4 C 19,6 C 6,4 km/h (2 Bft) 95,74 %
20.08.2018 02:22 19,6 C 25,6 C 17,8 C 72 % 1015,2 hPa 0,0 l/m 4,1 km/h (1 Bft) S-SW 213 0 min 0,000 mm 0,0 UV-I 0 W/m 14,4 C 19,6 C 6,4 km/h (2 Bft) 97,87 %
20.08.2018 02:24 19,6 C 25,6 C 17,8 C 72 % 1015,2 hPa 0,0 l/m 4,5 km/h (1 Bft) S-SW 210 0 min 0,000 mm 0,0 UV-I 0 W/m 14,4 C 19,6 C 6,4 km/h (2 Bft) 95,74 %
20.08.2018 02:26 19,5 C 25,6 C 17,8 C 72 % 1015,2 hPa 0,0 l/m 5,5 km/h (1 Bft) S-SW 202 0 min 0,000 mm 0,0 UV-I 0 W/m 14,3 C 19,5 C 6,4 km/h (2 Bft) 98,00 %
20.08.2018 02:28 19,4 C 25,6 C 17,8 C 73 % 1015,2 hPa 0,0 l/m 4,8 km/h (1 Bft) SW 217 0 min 0,000 mm 0,0 UV-I 0 W/m 14,4 C 19,4 C 6,4 km/h (2 Bft) 94,74 %
20.08.2018 02:30 19,4 C 25,6 C 17,8 C 73 % 1015,3 hPa 0,0 l/m 5,0 km/h (1 Bft) S-SW 203 0 min 0,000 mm 0,0 UV-I 0 W/m 14,4 C 19,4 C 8,0 km/h (2 Bft) 97,87 %
20.08.2018 02:32 19,3 C 25,6 C 17,8 C 73 % 1015,2 hPa 0,0 l/m 4,6 km/h (1 Bft) S-SW 205 0 min 0,000 mm 0,0 UV-I 0 W/m 14,3 C 19,3 C 6,4 km/h (2 Bft) 100,00 %
20.08.2018 02:34 19,3 C 25,6 C 17,8 C 73 % 1015,2 hPa 0,0 l/m 4,0 km/h (1 Bft) S-SW 205 0 min 0,000 mm 0,0 UV-I 0 W/m 14,3 C 19,3 C 6,4 km/h (2 Bft) 100,00 %
20.08.2018 02:36 19,2 C 25,6 C 17,8 C 74 % 1015,3 hPa 0,0 l/m 4,6 km/h (1 Bft) SW 219 0 min 0,000 mm 0,0 UV-I 0 W/m 14,4 C 19,2 C 6,4 km/h (2 Bft) 100,00 %
20.08.2018 02:38 19,2 C 25,6 C 17,8 C 74 % 1015,3 hPa 0,0 l/m 4,7 km/h (1 Bft) S-SW 209 0 min 0,000 mm 0,0 UV-I 0 W/m 14,4 C 19,2 C 6,4 km/h (2 Bft) 100,00 %
20.08.2018 02:40 19,2 C 25,6 C 17,8 C 74 % 1015,3 hPa 0,0 l/m 5,0 km/h (1 Bft) S-SW 209 0 min 0,000 mm 0,0 UV-I 0 W/m 14,4 C 19,2 C 6,4 km/h (2 Bft) 100,00 %
20.08.2018 02:42 19,2 C 25,6 C 17,8 C 74 % 1015,2 hPa 0,0 l/m 5,1 km/h (1 Bft) S-SW 209 0 min 0,000 mm 0,0 UV-I 0 W/m 14,4 C 19,2 C 6,4 km/h (2 Bft) 97,87 %
20.08.2018 02:44 19,2 C 25,6 C 17,8 C 74 % 1015,3 hPa 0,0 l/m 4,7 km/h (1 Bft) S-SW 208 0 min 0,000 mm 0,0 UV-I 0 W/m 14,4 C 19,2 C 6,4 km/h (2 Bft) 100,00 %
20.08.2018 02:46 19,2 C 25,6 C 17,8 C 74 % 1015,3 hPa 0,0 l/m 5,0 km/h (1 Bft) S-SW 210 0 min 0,000 mm 0,0 UV-I 0 W/m 14,4 C 19,2 C 6,4 km/h (2 Bft) 97,87 %
20.08.2018 02:48 19,1 C 25,6 C 17,8 C 74 % 1015,3 hPa 0,0 l/m 4,9 km/h (1 Bft) S-SW 210 0 min 0,000 mm 0,0 UV-I 0 W/m 14,4 C 19,1 C 6,4 km/h (2 Bft) 97,87 %
20.08.2018 02:50 19,1 C 25,6 C 17,2 C 74 % 1015,3 hPa 0,0 l/m 4,6 km/h (1 Bft) S-SW 212 0 min 0,000 mm 0,0 UV-I 0 W/m 14,4 C 19,1 C 6,4 km/h (2 Bft) 97,87 %
20.08.2018 02:52 19,1 C 25,6 C 17,2 C 74 % 1015,3 hPa 0,0 l/m 4,4 km/h (1 Bft) S-SW 212 0 min 0,000 mm 0,0 UV-I 0 W/m 14,4 C 19,1 C 6,4 km/h (2 Bft) 97,87 %
20.08.2018 02:54 19,1 C 25,6 C 17,2 C 74 % 1015,3 hPa 0,0 l/m 3,5 km/h (1 Bft) S-SW 212 0 min 0,000 mm 0,0 UV-I 0 W/m 14,4 C 19,1 C 4,8 km/h (1 Bft) 100,00 %
20.08.2018 02:56 19,1 C 25,6 C 17,2 C 74 % 1015,3 hPa 0,0 l/m 3,6 km/h (1 Bft) S-SW 212 0 min 0,000 mm 0,0 UV-I 0 W/m 14,4 C 19,1 C 4,8 km/h (1 Bft) 100,00 %
20.08.2018 02:58 19,1 C 25,6 C 17,2 C 74 % 1015,3 hPa 0,0 l/m 4,1 km/h (1 Bft) SW 229 0 min 0,000 mm 0,0 UV-I 0 W/m 14,4 C 19,1 C 6,4 km/h (2 Bft) 100,00 %
20.08.2018 03:00 19,1 C 25,6 C 16,7 C 74 % 1015,3 hPa 0,0 l/m 3,0 km/h (1 Bft) SW 229 0 min 0,025 mm 0,0 UV-I 0 W/m 14,4 C 19,1 C 4,8 km/h (1 Bft) 100,00 %
20.08.2018 03:02 19,1 C 25,6 C 16,7 C 75 % 1015,3 hPa 0,0 l/m 3,6 km/h (1 Bft) SW 229 0 min 0,000 mm 0,0 UV-I 0 W/m 14,6 C 19,1 C 4,8 km/h (1 Bft) 100,00 %
20.08.2018 03:04 19,1 C 25,6 C 16,7 C 74 % 1015,3 hPa 0,0 l/m 3,7 km/h (1 Bft) SW 229 0 min 0,000 mm 0,0 UV-I 0 W/m 14,4 C 19,1 C 4,8 km/h (1 Bft) 97,87 %
20.08.2018 03:06 19,0 C 25,6 C 16,7 C 74 % 1015,3 hPa 0,0 l/m 4,0 km/h (1 Bft) SW 229 0 min 0,000 mm 0,0 UV-I 0 W/m 14,3 C 19,0 C 6,4 km/h (2 Bft) 97,87 %
20.08.2018 03:08 18,9 C 25,6 C 16,7 C 75 % 1015,3 hPa 0,0 l/m 4,2 km/h (1 Bft) SW 229 0 min 0,000 mm 0,0 UV-I 0 W/m 14,4 C 18,9 C 6,4 km/h (2 Bft) 95,74 %
20.08.2018 03:10 18,9 C 25,6 C 16,7 C 75 % 1015,3 hPa 0,0 l/m 3,9 km/h (1 Bft) SW 229 0 min 0,000 mm 0,0 UV-I 0 W/m 14,4 C 18,9 C 4,8 km/h (1 Bft) 95,74 %
20.08.2018 03:12 18,9 C 25,6 C 16,7 C 75 % 1015,3 hPa 0,0 l/m 3,9 km/h (1 Bft) SW 229 0 min 0,000 mm 0,0 UV-I 0 W/m 14,4 C 18,9 C 4,8 km/h (1 Bft) 93,62 %
20.08.2018 03:14 18,9 C 25,6 C 16,7 C 75 % 1015,3 hPa 0,0 l/m 4,5 km/h (1 Bft) SW 217 0 min 0,000 mm 0,0 UV-I 0 W/m 14,4 C 18,9 C 6,4 km/h (2 Bft) 93,62 %
20.08.2018 03:16 18,8 C 25,6 C 16,7 C 75 % 1015,3 hPa 0,0 l/m 5,1 km/h (1 Bft) SW 214 0 min 0,000 mm 0,0 UV-I 0 W/m 14,3 C 18,8 C 6,4 km/h (2 Bft) 91,49 %
20.08.2018 03:18 18,8 C 25,6 C 16,7 C 75 % 1015,3 hPa 0,0 l/m 5,6 km/h (1 Bft) S-SW 212 0 min 0,000 mm 0,0 UV-I 0 W/m 14,3 C 18,8 C 8,0 km/h (2 Bft) 97,44 %
20.08.2018 03:20 18,7 C 25,6 C 17,2 C 76 % 1015,3 hPa 0,0 l/m 5,8 km/h (2 Bft) S-SW 213 0 min 0,000 mm 0,0 UV-I 0 W/m 14,4 C 18,7 C 6,4 km/h (2 Bft) 89,36 %
20.08.2018 03:22 18,7 C 25,6 C 17,2 C 76 % 1015,4 hPa 0,0 l/m 5,4 km/h (1 Bft) SW 217 0 min 0,000 mm 0,0 UV-I 0 W/m 14,4 C 18,7 C 8,0 km/h (2 Bft) 96,00 %
20.08.2018 03:24 18,7 C 25,6 C 17,2 C 76 % 1015,4 hPa 0,0 l/m 4,8 km/h (1 Bft) SW 215 0 min 0,000 mm 0,0 UV-I 0 W/m 14,4 C 18,7 C 6,4 km/h (2 Bft) 95,74 %
20.08.2018 03:26 18,6 C 25,6 C 17,2 C 76 % 1015,4 hPa 0,0 l/m 5,2 km/h (1 Bft) SW 217 0 min 0,000 mm 0,0 UV-I 0 W/m 14,3 C 18,6 C 8,0 km/h (2 Bft) 95,74 %
20.08.2018 03:28 18,6 C 25,6 C 17,2 C 76 % 1015,4 hPa 0,0 l/m 5,6 km/h (1 Bft) SW 220 0 min 0,000 mm 0,0 UV-I 0 W/m 14,3 C 18,6 C 6,4 km/h (2 Bft) 95,83 %
20.08.2018 03:30 18,5 C 25,6 C 17,2 C 76 % 1015,4 hPa 0,0 l/m 5,8 km/h (2 Bft) SW 214 0 min 0,000 mm 0,0 UV-I 0 W/m 14,2 C 18,5 C 8,0 km/h (2 Bft) 95,74 %
20.08.2018 03:32 18,4 C 25,6 C 17,2 C 77 % 1015,4 hPa 0,0 l/m 4,9 km/h (1 Bft) S-SW 210 0 min 0,000 mm 0,0 UV-I 0 W/m 14,3 C 18,4 C 8,0 km/h (2 Bft) 95,74 %
20.08.2018 03:34 18,4 C 25,6 C 17,2 C 77 % 1015,4 hPa 0,0 l/m 4,9 km/h (1 Bft) S-SW 213 0 min 0,000 mm 0,0 UV-I 0 W/m 14,3 C 18,4 C 6,4 km/h (2 Bft) 95,74 %
20.08.2018 03:36 18,4 C 25,6 C 17,2 C 77 % 1015,4 hPa 0,0 l/m 4,6 km/h (1 Bft) W-SW 238 0 min 0,000 mm 0,0 UV-I 0 W/m 14,3 C 18,4 C 6,4 km/h (2 Bft) 97,87 %
20.08.2018 03:38 18,4 C 25,6 C 17,2 C 77 % 1015,4 hPa 0,0 l/m 5,3 km/h (1 Bft) SW 217 0 min 0,000 mm 0,0 UV-I 0 W/m 14,3 C 18,4 C 8,0 km/h (2 Bft) 93,62 %
20.08.2018 03:40 18,4 C 25,6 C 16,7 C 77 % 1015,4 hPa 0,0 l/m 5,7 km/h (1 Bft) SW 219 0 min 0,000 mm 0,0 UV-I 0 W/m 14,3 C 18,4 C 8,0 km/h (2 Bft) 97,87 %
20.08.2018 03:42 18,4 C 25,6 C 17,2 C 77 % 1015,4 hPa 0,0 l/m 6,0 km/h (2 Bft) SW 223 0 min 0,000 mm 0,0 UV-I 0 W/m 14,3 C 18,4 C 8,0 km/h (2 Bft) 97,87 %
20.08.2018 03:44 18,4 C 25,6 C 17,2 C 77 % 1015,4 hPa 0,0 l/m 6,7 km/h (2 Bft) SW 219 0 min 0,000 mm 0,0 UV-I 0 W/m 14,3 C 18,3 C 9,7 km/h (2 Bft) 95,74 %
20.08.2018 03:46 18,4 C 25,6 C 17,2 C 77 % 1015,4 hPa 0,0 l/m 6,9 km/h (2 Bft) SW 225 0 min 0,000 mm 0,0 UV-I 0 W/m 14,3 C 18,2 C 9,7 km/h (2 Bft) 93,62 %
20.08.2018 03:48 18,5 C 25,6 C 17,2 C 77 % 1015,4 hPa 0,0 l/m 6,7 km/h (2 Bft) SW 234 0 min 0,000 mm 0,0 UV-I 0 W/m 14,4 C 18,4 C 9,7 km/h (2 Bft) 95,74 %
20.08.2018 03:50 18,6 C 25,6 C 17,2 C 76 % 1015,5 hPa 0,0 l/m 6,1 km/h (2 Bft) SW 228 0 min 0,000 mm 0,0 UV-I 0 W/m 14,3 C 18,6 C 11,3 km/h (2 Bft) 97,87 %
20.08.2018 03:52 18,7 C 25,6 C 17,2 C 76 % 1015,5 hPa 0,0 l/m 7,2 km/h (2 Bft) W-SW 251 0 min 0,000 mm 0,0 UV-I 0 W/m 14,4 C 18,3 C 11,3 km/h (2 Bft) 94,87 %
20.08.2018 03:54 18,7 C 25,6 C 16,7 C 76 % 1015,5 hPa 0,0 l/m 6,8 km/h (2 Bft) SW 223 0 min 0,000 mm 0,0 UV-I 0 W/m 14,4 C 18,5 C 9,7 km/h (2 Bft) 93,62 %
20.08.2018 03:56 18,7 C 25,6 C 16,7 C 76 % 1015,5 hPa 0,0 l/m 7,0 km/h (2 Bft) W-SW 242 0 min 0,000 mm 0,0 UV-I 0 W/m 14,4 C 18,4 C 11,3 km/h (2 Bft) 96,00 %
20.08.2018 03:58 18,8 C 25,6 C 17,2 C 76 % 1015,5 hPa 0,0 l/m 7,3 km/h (2 Bft) SW 219 0 min 0,000 mm 0,0 UV-I 0 W/m 14,5 C 18,4 C 9,7 km/h (2 Bft) 96,00 %
20.08.2018 04:00 18,8 C 25,6 C 17,2 C 76 % 1015,5 hPa 0,0 l/m 7,6 km/h (2 Bft) S-SW 209 0 min 0,000 mm 0,0 UV-I 0 W/m 14,5 C 18,3 C 11,3 km/h (2 Bft) 93,62 %
20.08.2018 04:02 18,8 C 25,6 C 16,7 C 76 % 1015,5 hPa 0,0 l/m 7,2 km/h (2 Bft) SW 230 0 min 0,026 mm 0,0 UV-I 0 W/m 14,5 C 18,4 C 9,7 km/h (2 Bft) 93,33 %
20.08.2018 04:04 18,8 C 25,6 C 17,2 C 76 % 1015,5 hPa 0,0 l/m 6,6 km/h (2 Bft) SW 219 0 min 0,000 mm 0,0 UV-I 0 W/m 14,5 C 18,7 C 9,7 km/h (2 Bft) 93,62 %
20.08.2018 04:06 18,8 C 25,6 C 17,2 C 75 % 1015,6 hPa 0,0 l/m 6,3 km/h (2 Bft) S-SW 211 0 min 0,000 mm 0,0 UV-I 0 W/m 14,3 C 18,8 C 9,7 km/h (2 Bft) 94,74 %
20.08.2018 04:08 18,8 C 25,6 C 17,2 C 75 % 1015,6 hPa 0,0 l/m 6,1 km/h (2 Bft) W-SW 238 0 min 0,000 mm 0,0 UV-I 0 W/m 14,3 C 18,8 C 8,0 km/h (2 Bft) 95,74 %
20.08.2018 04:10 18,7 C 25,6 C 17,2 C 76 % 1015,6 hPa 0,0 l/m 5,4 km/h (1 Bft) W-SW 238 0 min 0,000 mm 0,0 UV-I 0 W/m 14,4 C 18,7 C 8,0 km/h (2 Bft) 98,00 %
20.08.2018 04:12 18,8 C 25,6 C 17,2 C 76 % 1015,6 hPa 0,0 l/m 5,3 km/h (1 Bft) W-SW 240 0 min 0,000 mm 0,0 UV-I 0 W/m 14,5 C 18,8 C 8,0 km/h (2 Bft) 97,87 %
20.08.2018 04:14 18,8 C 25,6 C 17,2 C 76 % 1015,6 hPa 0,0 l/m 6,2 km/h (2 Bft) SW 228 0 min 0,000 mm 0,0 UV-I 0 W/m 14,5 C 18,8 C 8,0 km/h (2 Bft) 95,74 %
20.08.2018 04:16 18,8 C 25,6 C 17,2 C 76 % 1015,6 hPa 0,0 l/m 5,8 km/h (2 Bft) SW 217 0 min 0,000 mm 0,0 UV-I 0 W/m 14,5 C 18,8 C 8,0 km/h (2 Bft) 96,00 %
20.08.2018 04:18 18,8 C 25,6 C 17,2 C 76 % 1015,6 hPa 0,0 l/m 5,8 km/h (2 Bft) SW 225 0 min 0,000 mm 0,0 UV-I 0 W/m 14,5 C 18,8 C 8,0 km/h (2 Bft) 97,87 %
20.08.2018 04:20 18,8 C 25,6 C 17,2 C 76 % 1015,6 hPa 0,0 l/m 5,9 km/h (2 Bft) SW 227 0 min 0,000 mm 0,0 UV-I 0 W/m 14,5 C 18,8 C 8,0 km/h (2 Bft) 94,74 %
20.08.2018 04:22 18,8 C 25,6 C 17,2 C 76 % 1015,6 hPa 0,0 l/m 5,7 km/h (1 Bft) SW 215 0 min 0,000 mm 0,0 UV-I 0 W/m 14,5 C 18,8 C 9,7 km/h (2 Bft) 98,00 %
20.08.2018 04:24 18,8 C 25,6 C 17,2 C 75 % 1015,5 hPa 0,0 l/m 5,6 km/h (1 Bft) SW 224 0 min 0,000 mm 0,0 UV-I 0 W/m 14,3 C 18,8 C 8,0 km/h (2 Bft) 97,87 %
20.08.2018 04:26 18,7 C 25,6 C 17,2 C 76 % 1015,6 hPa 0,0 l/m 7,0 km/h (2 Bft) SW 217 0 min 0,000 mm 0,0 UV-I 0 W/m 14,4 C 18,4 C 9,7 km/h (2 Bft) 93,62 %
20.08.2018 04:28 18,7 C 25,6 C 17,2 C 76 % 1015,5 hPa 0,0 l/m 6,6 km/h (2 Bft) SW 220 0 min 0,000 mm 0,0 UV-I 0 W/m 14,4 C 18,6 C 9,7 km/h (2 Bft) 100,00 %
20.08.2018 04:30 18,6 C 25,6 C 17,2 C 76 % 1015,5 hPa 0,0 l/m 7,3 km/h (2 Bft) S-SW 211 0 min 0,000 mm 0,0 UV-I 0 W/m 14,3 C 18,2 C 9,7 km/h (2 Bft) 98,00 %
20.08.2018 04:32 18,6 C 25,6 C 17,2 C 76 % 1015,5 hPa 0,0 l/m 7,3 km/h (2 Bft) SW 225 0 min 0,000 mm 0,0 UV-I 0 W/m 14,3 C 18,2 C 9,7 km/h (2 Bft) 97,92 %
20.08.2018 04:34 18,5 C 25,6 C 17,2 C 76 % 1015,5 hPa 0,0 l/m 5,8 km/h (2 Bft) S-SW 211 0 min 0,000 mm 0,0 UV-I 0 W/m 14,2 C 18,5 C 11,3 km/h (2 Bft) 100,00 %
20.08.2018 04:36 18,4 C 25,6 C 17,2 C 77 % 1015,5 hPa 0,0 l/m 6,1 km/h (2 Bft) SW 225 0 min 0,000 mm 0,0 UV-I 0 W/m 14,3 C 18,4 C 8,0 km/h (2 Bft) 97,87 %
20.08.2018 04:38 18,4 C 25,6 C 17,2 C 77 % 1015,5 hPa 0,0 l/m 5,1 km/h (1 Bft) SW 223 0 min 0,000 mm 0,0 UV-I 0 W/m 14,3 C 18,4 C 6,4 km/h (2 Bft) 97,14 %
20.08.2018 04:40 18,4 C 25,6 C 17,2 C 77 % 1015,5 hPa 0,0 l/m 5,3 km/h (1 Bft) SW 219 0 min 0,000 mm 0,0 UV-I 0 W/m 14,3 C 18,4 C 6,4 km/h (2 Bft) 97,87 %
20.08.2018 04:42 18,4 C 25,6 C 17,2 C 77 % 1015,4 hPa 0,0 l/m 5,3 km/h (1 Bft) SW 214 0 min 0,000 mm 0,0 UV-I 0 W/m 14,3 C 18,4 C 6,4 km/h (2 Bft) 97,87 %
20.08.2018 04:44 18,4 C 25,6 C 17,2 C 77 % 1015,4 hPa 0,0 l/m 5,1 km/h (1 Bft) SW 221 0 min 0,000 mm 0,0 UV-I 0 W/m 14,3 C 18,4 C 6,4 km/h (2 Bft) 97,87 %
20.08.2018 04:46 18,4 C 25,6 C 16,7 C 77 % 1015,4 hPa 0,0 l/m 4,7 km/h (1 Bft) SW 216 0 min 0,000 mm 0,0 UV-I 0 W/m 14,3 C 18,4 C 8,0 km/h (2 Bft) 98,00 %
20.08.2018 04:48 18,4 C 25,6 C 17,2 C 77 % 1015,4 hPa 0,0 l/m 5,3 km/h (1 Bft) SW 216 0 min 0,000 mm 0,0 UV-I 0 W/m 14,3 C 18,4 C 6,4 km/h (2 Bft) 97,87 %
20.08.2018 04:50 18,3 C 25,6 C 17,2 C 77 % 1015,4 hPa 0,0 l/m 4,5 km/h (1 Bft) S-SW 211 0 min 0,000 mm 0,0 UV-I 0 W/m 14,2 C 18,3 C 8,0 km/h (2 Bft) 97,87 %
20.08.2018 04:52 18,2 C 25,6 C 17,2 C 78 % 1015,4 hPa 0,0 l/m 5,5 km/h (1 Bft) S-SW 213 0 min 0,000 mm 0,0 UV-I 0 W/m 14,3 C 18,2 C 8,0 km/h (2 Bft) 98,00 %
20.08.2018 04:54 18,2 C 25,6 C 17,2 C 78 % 1015,4 hPa 0,0 l/m 5,1 km/h (1 Bft) SW 218 0 min 0,000 mm 0,0 UV-I 0 W/m 14,3 C 18,2 C 8,0 km/h (2 Bft) 95,74 %
20.08.2018 04:56 18,1 C 25,6 C 16,7 C 78 % 1015,4 hPa 0,0 l/m 6,6 km/h (2 Bft) SW 218 0 min 0,000 mm 0,0 UV-I 0 W/m 14,2 C 18,0 C 9,7 km/h (2 Bft) 96,00 %
20.08.2018 04:58 18,1 C 25,6 C 16,7 C 78 % 1015,4 hPa 0,0 l/m 5,9 km/h (2 Bft) SW 219 0 min 0,000 mm 0,0 UV-I 0 W/m 14,2 C 18,1 C 8,0 km/h (2 Bft) 95,74 %
20.08.2018 05:00 18,0 C 25,6 C 16,7 C 79 % 1015,4 hPa 0,0 l/m 5,9 km/h (2 Bft) S-SW 211 0 min 0,025 mm 0,0 UV-I 0 W/m 14,3 C 18,0 C 8,0 km/h (2 Bft) 100,00 %
20.08.2018 05:02 17,9 C 25,6 C 16,7 C 79 % 1015,4 hPa 0,0 l/m 6,4 km/h (2 Bft) SW 223 0 min 0,000 mm 0,0 UV-I 0 W/m 14,2 C 17,9 C 8,0 km/h (2 Bft) 100,00 %
20.08.2018 05:04 17,9 C 25,6 C 16,7 C 79 % 1015,4 hPa 0,0 l/m 6,2 km/h (2 Bft) S-SW 209 0 min 0,000 mm 0,0 UV-I 0 W/m 14,2 C 17,9 C 8,0 km/h (2 Bft) 100,00 %
20.08.2018 05:06 17,8 C 25,6 C 16,7 C 79 % 1015,4 hPa 0,0 l/m 5,8 km/h (2 Bft) SW 221 0 min 0,000 mm 0,0 UV-I 0 W/m 14,1 C 17,8 C 8,0 km/h (2 Bft) 97,92 %
20.08.2018 05:08 17,8 C 25,6 C 16,7 C 79 % 1015,4 hPa 0,0 l/m 4,5 km/h (1 Bft) S-SW 213 0 min 0,000 mm 0,0 UV-I 0 W/m 14,1 C 17,8 C 8,0 km/h (2 Bft) 100,00 %
20.08.2018 05:10 17,8 C 25,6 C 16,7 C 79 % 1015,4 hPa 0,0 l/m 5,1 km/h (1 Bft) S-SW 205 0 min 0,000 mm 0,0 UV-I 0 W/m 14,1 C 17,8 C 6,4 km/h (2 Bft) 95,74 %
20.08.2018 05:12 17,8 C 25,6 C 16,7 C 79 % 1015,4 hPa 0,0 l/m 4,4 km/h (1 Bft) S-SW 201 0 min 0,000 mm 0,0 UV-I 0 W/m 14,1 C 17,8 C 8,0 km/h (2 Bft) 100,00 %
20.08.2018 05:14 17,8 C 25,6 C 16,7 C 79 % 1015,4 hPa 0,0 l/m 4,5 km/h (1 Bft) S-SW 211 0 min 0,000 mm 0,0 UV-I 0 W/m 14,1 C 17,8 C 6,4 km/h (2 Bft) 95,74 %
20.08.2018 05:16 17,9 C 25,6 C 16,7 C 79 % 1015,4 hPa 0,0 l/m 2,9 km/h (1 Bft) S-SW 211 0 min 0,000 mm 0,0 UV-I 0 W/m 14,2 C 17,9 C 4,8 km/h (1 Bft) 100,00 %
20.08.2018 05:18 17,9 C 25,6 C 16,7 C 79 % 1015,5 hPa 0,0 l/m 4,0 km/h (1 Bft) S-SW 211 0 min 0,000 mm 0,0 UV-I 0 W/m 14,2 C 17,9 C 6,4 km/h (2 Bft) 100,00 %
20.08.2018 05:20 17,9 C 25,6 C 16,7 C 79 % 1015,4 hPa 0,0 l/m 3,5 km/h (1 Bft) S-SW 211 0 min 0,000 mm 0,0 UV-I 0 W/m 14,2 C 17,9 C 4,8 km/h (1 Bft) 100,00 %
20.08.2018 05:22 17,9 C 25,6 C 16,7 C 79 % 1015,4 hPa 0,0 l/m 2,8 km/h (1 Bft) S-SW 211 0 min 0,000 mm 0,0 UV-I 0 W/m 14,2 C 17,9 C 3,2 km/h (1 Bft) 100,00 %
20.08.2018 05:24 17,8 C 25,6 C 16,7 C 79 % 1015,4 hPa 0,0 l/m 3,5 km/h (1 Bft) S-SW 211 0 min 0,000 mm 0,0 UV-I 0 W/m 14,1 C 17,8 C 4,8 km/h (1 Bft) 97,87 %
20.08.2018 05:26 17,7 C 25,6 C 16,1 C 79 % 1015,4 hPa 0,0 l/m 3,4 km/h (1 Bft) S-SW 211 0 min 0,000 mm 0,0 UV-I 0 W/m 14,0 C 17,7 C 4,8 km/h (1 Bft) 100,00 %
20.08.2018 05:28 17,5 C 25,6 C 16,1 C 80 % 1015,4 hPa 0,0 l/m 3,1 km/h (1 Bft) S-SW 211 0 min 0,000 mm 0,0 UV-I 0 W/m 14,0 C 17,5 C 4,8 km/h (1 Bft) 97,87 %
20.08.2018 05:30 17,3 C 25,6 C 15,6 C 81 % 1015,4 hPa 0,0 l/m 3,3 km/h (1 Bft) S-SW 211 0 min 0,000 mm 0,0 UV-I 0 W/m 14,0 C 17,3 C 4,8 km/h (1 Bft) 100,00 %
20.08.2018 05:32 17,2 C 25,6 C 15,6 C 81 % 1015,5 hPa 0,0 l/m 4,5 km/h (1 Bft) S-SW 211 0 min 0,000 mm 0,0 UV-I 0 W/m 13,9 C 17,2 C 6,4 km/h (2 Bft) 100,00 %
20.08.2018 05:34 17,3 C 25,6 C 15,6 C 81 % 1015,5 hPa 0,0 l/m 3,6 km/h (1 Bft) S-SW 211 0 min 0,000 mm 0,0 UV-I 0 W/m 14,0 C 17,3 C 4,8 km/h (1 Bft) 100,00 %
20.08.2018 05:36 17,3 C 25,6 C 15,6 C 81 % 1015,4 hPa 0,0 l/m 3,4 km/h (1 Bft) S-SW 210 0 min 0,000 mm 0,0 UV-I 0 W/m 14,0 C 17,3 C 4,8 km/h (1 Bft) 100,00 %
20.08.2018 05:38 17,4 C 25,6 C 16,1 C 81 % 1015,5 hPa 0,0 l/m 3,2 km/h (1 Bft) S-SW 210 0 min 0,000 mm 0,0 UV-I 0 W/m 14,1 C 17,4 C 4,8 km/h (1 Bft) 95,74 %
20.08.2018 05:40 17,4 C 25,6 C 16,1 C 81 % 1015,4 hPa 0,0 l/m 4,0 km/h (1 Bft) S-SW 210 0 min 0,000 mm 0,0 UV-I 0 W/m 14,1 C 17,4 C 6,4 km/h (2 Bft) 98,00 %
20.08.2018 05:42 17,4 C 25,6 C 16,1 C 81 % 1015,4 hPa 0,0 l/m 3,6 km/h (1 Bft) S-SW 210 0 min 0,000 mm 0,0 UV-I 0 W/m 14,1 C 17,4 C 4,8 km/h (1 Bft) 100,00 %
20.08.2018 05:44 17,5 C 25,6 C 16,1 C 81 % 1015,4 hPa 0,0 l/m 2,5 km/h (1 Bft) S-SW 210 0 min 0,000 mm 0,0 UV-I 0 W/m 14,2 C 17,5 C 4,8 km/h (1 Bft) 100,00 %
20.08.2018 05:46 17,6 C 25,6 C 16,1 C 80 % 1015,4 hPa 0,0 l/m 3,0 km/h (1 Bft) S-SW 210 0 min 0,000 mm 0,0 UV-I 0 W/m 14,1 C 17,6 C 4,8 km/h (1 Bft) 97,92 %
20.08.2018 05:48 17,6 C 25,6 C 15,6 C 81 % 1015,4 hPa 0,0 l/m 2,2 km/h (1 Bft) S-SW 210 0 min 0,000 mm 0,0 UV-I 0 W/m 14,3 C 17,6 C 3,2 km/h (1 Bft) 100,00 %
20.08.2018 05:50 17,4 C 25,6 C 15,6 C 80 % 1015,4 hPa 0,0 l/m 1,5 km/h (1 Bft) S-SW 210 0 min 0,000 mm 0,0 UV-I 3 W/m 13,9 C 17,4 C 3,2 km/h (1 Bft) 97,87 %
20.08.2018 05:52 17,3 C 25,6 C 15,0 C 81 % 1015,5 hPa 0,0 l/m 0,5 km/h (0 Bft) S-SW 210 0 min 0,000 mm 0,0 UV-I 5 W/m 14,0 C 17,3 C 1,6 km/h (1 Bft) 97,87 %
20.08.2018 05:54 17,2 C 25,6 C 15,0 C 81 % 1015,5 hPa 0,0 l/m 0,0 km/h (0 Bft) S-SW 210 0 min 0,000 mm 0,0 UV-I 5 W/m 13,9 C 17,2 C 0,0 km/h (0 Bft) 97,87 %
20.08.2018 05:56 17,1 C 25,6 C 14,4 C 82 % 1015,5 hPa 0,0 l/m 0,0 km/h (0 Bft) S-SW 210 0 min 0,000 mm 0,0 UV-I 5 W/m 14,0 C 17,1 C 0,0 km/h (0 Bft) 94,29 %
20.08.2018 05:58 17,2 C 25,6 C 14,4 C 82 % 1015,5 hPa 0,0 l/m 0,0 km/h (0 Bft) S-SW 210 0 min 0,000 mm 0,0 UV-I 7 W/m 14,1 C 17,2 C 0,0 km/h (0 Bft) 96,00 %
20.08.2018 06:00 17,2 C 25,6 C 14,4 C 82 % 1015,5 hPa 0,0 l/m 0,0 km/h (0 Bft) S-SW 210 0 min 0,025 mm 0,0 UV-I 7 W/m 14,1 C 17,2 C 0,0 km/h (0 Bft) 97,87 %
20.08.2018 06:02 17,3 C 25,6 C 14,4 C 81 % 1015,5 hPa 0,0 l/m 0,0 km/h (0 Bft) S-SW 210 0 min 0,000 mm 0,0 UV-I 7 W/m 14,0 C 17,3 C 0,0 km/h (0 Bft) 93,62 %
20.08.2018 06:04 17,3 C 25,0 C 14,4 C 81 % 1015,5 hPa 0,0 l/m 0,0 km/h (0 Bft) S-SW 210 0 min 0,000 mm 0,0 UV-I 7 W/m 14,0 C 17,3 C 0,0 km/h (0 Bft) 94,00 %
20.08.2018 06:06 17,3 C 25,0 C 14,4 C 82 % 1015,5 hPa 0,0 l/m 0,0 km/h (0 Bft) S-SW 210 0 min 0,000 mm 0,0 UV-I 9 W/m 14,2 C 17,3 C 0,0 km/h (0 Bft) 95,74 %
20.08.2018 06:08 17,3 C 25,0 C 14,4 C 81 % 1015,5 hPa 0,0 l/m 0,0 km/h (0 Bft) S-SW 210 0 min 0,000 mm 0,0 UV-I 9 W/m 14,0 C 17,3 C 0,0 km/h (0 Bft) 95,74 %
20.08.2018 06:10 17,3 C 25,0 C 14,4 C 82 % 1015,5 hPa 0,0 l/m 0,9 km/h (0 Bft) S-SW 210 0 min 0,000 mm 0,0 UV-I 11 W/m 14,2 C 17,3 C 1,6 km/h (1 Bft) 93,62 %
20.08.2018 06:12 17,3 C 25,0 C 14,4 C 82 % 1015,5 hPa 0,0 l/m 1,4 km/h (1 Bft) S-SW 210 0 min 0,000 mm 0,0 UV-I 12 W/m 14,2 C 17,3 C 3,2 km/h (1 Bft) 95,74 %
20.08.2018 06:14 17,2 C 25,0 C 14,4 C 82 % 1015,5 hPa 0,0 l/m 2,1 km/h (1 Bft) S-SW 210 0 min 0,000 mm 0,0 UV-I 12 W/m 14,1 C 17,2 C 3,2 km/h (1 Bft) 95,74 %
20.08.2018 06:16 17,1 C 25,0 C 14,4 C 82 % 1015,6 hPa 0,0 l/m 0,8 km/h (0 Bft) S-SW 210 2 min 0,000 mm 0,0 UV-I 14 W/m 14,0 C 17,1 C 1,6 km/h (1 Bft) 95,74 %
20.08.2018 06:18 17,0 C 25,0 C 14,4 C 82 % 1015,5 hPa 0,0 l/m 0,0 km/h (0 Bft) W 273 2 min 0,000 mm 0,0 UV-I 16 W/m 13,9 C 17,0 C 1,6 km/h (1 Bft) 93,62 %
20.08.2018 06:20 16,9 C 25,0 C 14,4 C 83 % 1015,5 hPa 0,0 l/m 1,5 km/h (1 Bft) W-SW 257 2 min 0,000 mm 0,0 UV-I 18 W/m 14,0 C 16,9 C 3,2 km/h (1 Bft) 93,62 %
20.08.2018 06:22 16,9 C 25,0 C 14,4 C 83 % 1015,6 hPa 0,0 l/m 1,3 km/h (1 Bft) W-SW 257 2 min 0,000 mm 0,0 UV-I 21 W/m 14,0 C 16,9 C 3,2 km/h (1 Bft) 95,83 %
20.08.2018 06:24 16,9 C 25,0 C 15,0 C 83 % 1015,6 hPa 0,0 l/m 2,5 km/h (1 Bft) W-SW 257 2 min 0,000 mm 0,0 UV-I 24 W/m 14,0 C 16,9 C 4,8 km/h (1 Bft) 94,00 %
20.08.2018 06:26 16,9 C 25,0 C 15,0 C 83 % 1015,6 hPa 0,0 l/m 2,1 km/h (1 Bft) W-SW 257 2 min 0,000 mm 0,0 UV-I 26 W/m 14,0 C 16,9 C 3,2 km/h (1 Bft) 100,00 %
20.08.2018 06:28 16,8 C 25,0 C 15,0 C 83 % 1015,6 hPa 0,0 l/m 0,9 km/h (0 Bft) W-SW 257 0 min 0,000 mm 0,0 UV-I 27 W/m 13,9 C 16,8 C 1,6 km/h (1 Bft) 100,00 %
20.08.2018 06:30 16,9 C 25,0 C 15,0 C 83 % 1015,6 hPa 0,0 l/m 0,0 km/h (0 Bft) W-SW 257 2 min 0,000 mm 0,0 UV-I 31 W/m 14,0 C 16,9 C 0,0 km/h (0 Bft) 97,87 %
20.08.2018 06:32 16,9 C 25,0 C 15,0 C 83 % 1015,6 hPa 0,0 l/m 0,0 km/h (0 Bft) W-SW 257 2 min 0,000 mm 0,0 UV-I 34 W/m 14,0 C 16,9 C 0,0 km/h (0 Bft) 97,87 %
20.08.2018 06:34 17,1 C 25,0 C 15,6 C 83 % 1015,6 hPa 0,0 l/m 0,7 km/h (0 Bft) W-SW 257 2 min 0,000 mm 0,0 UV-I 39 W/m 14,2 C 17,1 C 3,2 km/h (1 Bft) 100,00 %
20.08.2018 06:36 17,1 C 25,0 C 15,6 C 83 % 1015,6 hPa 0,0 l/m 2,1 km/h (1 Bft) W-SW 257 2 min 0,000 mm 0,0 UV-I 41 W/m 14,2 C 17,1 C 3,2 km/h (1 Bft) 100,00 %
20.08.2018 06:38 17,1 C 25,0 C 15,6 C 83 % 1015,6 hPa 0,0 l/m 1,2 km/h (1 Bft) W-SW 257 2 min 0,000 mm 0,0 UV-I 46 W/m 14,2 C 17,1 C 1,6 km/h (1 Bft) 100,00 %
20.08.2018 06:40 17,0 C 25,0 C 15,6 C 83 % 1015,6 hPa 0,0 l/m 1,1 km/h (1 Bft) W-SW 257 2 min 0,000 mm 0,0 UV-I 50 W/m 14,1 C 17,0 C 1,6 km/h (1 Bft) 100,00 %
20.08.2018 06:42 17,1 C 25,0 C 15,6 C 83 % 1015,6 hPa 0,0 l/m 1,0 km/h (0 Bft) W-SW 257 2 min 0,000 mm 0,0 UV-I 54 W/m 14,2 C 17,1 C 1,6 km/h (1 Bft) 100,00 %
20.08.2018 06:44 17,2 C 25,0 C 15,6 C 82 % 1015,6 hPa 0,0 l/m 0,7 km/h (0 Bft) W-SW 257 2 min 0,000 mm 0,0 UV-I 55 W/m 14,1 C 17,2 C 3,2 km/h (1 Bft) 100,00 %
20.08.2018 06:46 17,3 C 25,0 C 15,6 C 82 % 1015,7 hPa 0,0 l/m 1,7 km/h (1 Bft) W-SW 257 0 min 0,000 mm 0,0 UV-I 48 W/m 14,2 C 17,3 C 3,2 km/h (1 Bft) 97,87 %
20.08.2018 06:48 17,3 C 25,0 C 16,1 C 82 % 1015,7 hPa 0,0 l/m 1,9 km/h (1 Bft) W-SW 257 0 min 0,000 mm 0,0 UV-I 42 W/m 14,2 C 17,3 C 3,2 km/h (1 Bft) 96,00 %
20.08.2018 06:50 17,3 C 25,0 C 16,1 C 82 % 1015,7 hPa 0,0 l/m 1,4 km/h (1 Bft) W-SW 257 0 min 0,000 mm 0,0 UV-I 43 W/m 14,2 C 17,3 C 3,2 km/h (1 Bft) 97,37 %
20.08.2018 06:52 17,3 C 25,0 C 16,1 C 82 % 1015,8 hPa 0,0 l/m 1,8 km/h (1 Bft) W-SW 257 0 min 0,000 mm 0,0 UV-I 53 W/m 14,2 C 17,3 C 3,2 km/h (1 Bft) 96,00 %
20.08.2018 06:54 17,4 C 25,0 C 16,1 C 82 % 1015,8 hPa 0,0 l/m 2,9 km/h (1 Bft) W-SW 257 2 min 0,000 mm 0,0 UV-I 78 W/m 14,3 C 17,4 C 4,8 km/h (1 Bft) 97,56 %
20.08.2018 06:56 17,4 C 25,0 C 16,1 C 82 % 1015,8 hPa 0,0 l/m 3,2 km/h (1 Bft) W-SW 257 2 min 0,000 mm 0,0 UV-I 84 W/m 14,3 C 17,4 C 4,8 km/h (1 Bft) 98,11 %
20.08.2018 06:58 17,4 C 25,0 C 16,7 C 82 % 1015,8 hPa 0,0 l/m 3,6 km/h (1 Bft) W-SW 256 2 min 0,000 mm 0,0 UV-I 88 W/m 14,3 C 17,4 C 4,8 km/h (1 Bft) 98,00 %
20.08.2018 07:00 17,4 C 25,0 C 16,7 C 82 % 1015,8 hPa 0,0 l/m 4,5 km/h (1 Bft) SW 236 2 min 0,026 mm 0,0 UV-I 92 W/m 14,3 C 17,4 C 6,4 km/h (2 Bft) 95,74 %
20.08.2018 07:02 17,5 C 25,0 C 16,7 C 82 % 1015,8 hPa 0,0 l/m 5,9 km/h (2 Bft) SW 236 2 min 0,000 mm 0,0 UV-I 99 W/m 14,4 C 17,5 C 8,0 km/h (2 Bft) 95,74 %
20.08.2018 07:04 17,6 C 25,0 C 17,2 C 82 % 1015,8 hPa 0,0 l/m 6,0 km/h (2 Bft) W-SW 240 2 min 0,000 mm 0,0 UV-I 104 W/m 14,5 C 17,6 C 8,0 km/h (2 Bft) 97,37 %
20.08.2018 07:06 17,8 C 25,0 C 17,2 C 81 % 1015,8 hPa 0,0 l/m 6,0 km/h (2 Bft) W-SW 242 2 min 0,000 mm 0,0 UV-I 108 W/m 14,5 C 17,8 C 8,0 km/h (2 Bft) 94,74 %
20.08.2018 07:08 17,9 C 25,0 C 17,2 C 81 % 1015,9 hPa 0,0 l/m 6,6 km/h (2 Bft) W 266 2 min 0,000 mm 0,0 UV-I 114 W/m 14,6 C 17,8 C 9,7 km/h (2 Bft) 96,23 %
20.08.2018 07:10 18,0 C 25,0 C 17,8 C 80 % 1015,9 hPa 0,0 l/m 5,3 km/h (1 Bft) W-SW 245 2 min 0,000 mm 0,0 UV-I 119 W/m 14,5 C 18,0 C 6,4 km/h (2 Bft) 96,23 %
20.08.2018 07:12 18,1 C 25,0 C 17,8 C 80 % 1015,9 hPa 0,0 l/m 6,0 km/h (2 Bft) W-SW 239 2 min 0,000 mm 0,0 UV-I 123 W/m 14,6 C 18,1 C 11,3 km/h (2 Bft) 97,87 %
20.08.2018 07:14 18,2 C 25,0 C 17,8 C 80 % 1015,9 hPa 0,0 l/m 6,9 km/h (2 Bft) W-SW 258 2 min 0,000 mm 0,0 UV-I 130 W/m 14,7 C 18,0 C 11,3 km/h (2 Bft) 96,00 %
20.08.2018 07:16 18,3 C 25,0 C 18,3 C 79 % 1015,8 hPa 0,0 l/m 6,6 km/h (2 Bft) W 261 2 min 0,000 mm 0,0 UV-I 134 W/m 14,6 C 18,2 C 9,7 km/h (2 Bft) 92,86 %
20.08.2018 07:18 18,5 C 25,0 C 18,3 C 79 % 1015,9 hPa 0,0 l/m 5,3 km/h (1 Bft) W-SW 257 2 min 0,000 mm 0,0 UV-I 140 W/m 14,8 C 18,5 C 8,0 km/h (2 Bft) 98,00 %
20.08.2018 07:20 18,7 C 25,0 C 18,3 C 78 % 1015,8 hPa 0,0 l/m 4,9 km/h (1 Bft) W-SW 256 2 min 0,000 mm 0,0 UV-I 144 W/m 14,8 C 18,7 C 8,0 km/h (2 Bft) 98,00 %
20.08.2018 07:22 18,7 C 25,0 C 18,3 C 78 % 1015,8 hPa 0,0 l/m 6,9 km/h (2 Bft) W 259 2 min 0,000 mm 0,0 UV-I 149 W/m 14,8 C 18,5 C 12,9 km/h (3 Bft) 97,56 %
20.08.2018 07:24 18,9 C 25,0 C 18,9 C 78 % 1015,9 hPa 0,0 l/m 6,9 km/h (2 Bft) W-SW 256 2 min 0,000 mm 0,0 UV-I 155 W/m 15,0 C 18,7 C 11,3 km/h (2 Bft) 97,87 %
20.08.2018 07:26 19,1 C 25,0 C 18,9 C 77 % 1015,9 hPa 0,0 l/m 7,2 km/h (2 Bft) W 265 2 min 0,000 mm 0,0 UV-I 159 W/m 15,0 C 18,7 C 11,3 km/h (2 Bft) 97,87 %
20.08.2018 07:28 19,3 C 25,0 C 18,9 C 76 % 1015,8 hPa 0,0 l/m 5,2 km/h (1 Bft) W-SW 253 2 min 0,000 mm 0,0 UV-I 164 W/m 15,0 C 19,3 C 8,0 km/h (2 Bft) 95,45 %
20.08.2018 07:30 19,4 C 25,0 C 18,9 C 76 % 1015,9 hPa 0,0 l/m 6,0 km/h (2 Bft) W-SW 251 2 min 0,000 mm 0,0 UV-I 171 W/m 15,1 C 19,4 C 8,0 km/h (2 Bft) 94,34 %
20.08.2018 07:32 19,6 C 25,0 C 19,4 C 75 % 1015,9 hPa 0,0 l/m 4,3 km/h (1 Bft) W-SW 253 2 min 0,000 mm 0,0 UV-I 174 W/m 15,0 C 19,6 C 6,4 km/h (2 Bft) 96,00 %
20.08.2018 07:34 19,6 C 25,0 C 19,4 C 75 % 1015,9 hPa 0,0 l/m 4,2 km/h (1 Bft) W-SW 250 2 min 0,000 mm 0,0 UV-I 177 W/m 15,0 C 19,6 C 4,8 km/h (1 Bft) 94,29 %
20.08.2018 07:36 19,7 C 25,0 C 19,4 C 75 % 1015,9 hPa 0,0 l/m 4,9 km/h (1 Bft) W 272 2 min 0,000 mm 0,0 UV-I 181 W/m 15,1 C 19,7 C 6,4 km/h (2 Bft) 94,34 %
20.08.2018 07:38 19,8 C 25,0 C 20,0 C 75 % 1016,1 hPa 0,0 l/m 6,9 km/h (2 Bft) W-SW 243 2 min 0,000 mm 0,0 UV-I 186 W/m 15,2 C 19,6 C 9,7 km/h (2 Bft) 97,56 %
20.08.2018 07:40 19,9 C 25,0 C 20,0 C 74 % 1016,1 hPa 0,0 l/m 6,3 km/h (2 Bft) W-SW 239 2 min 0,000 mm 0,0 UV-I 193 W/m 15,1 C 19,9 C 9,7 km/h (2 Bft) 94,64 %
20.08.2018 07:42 20,0 C 25,0 C 20,0 C 74 % 1016,1 hPa 0,0 l/m 6,1 km/h (2 Bft) SW 231 2 min 0,000 mm 0,0 UV-I 197 W/m 15,2 C 20,0 C 11,3 km/h (2 Bft) 92,11 %
20.08.2018 07:44 20,1 C 25,0 C 20,0 C 74 % 1016,1 hPa 0,0 l/m 4,7 km/h (1 Bft) W-SW 242 2 min 0,000 mm 0,0 UV-I 206 W/m 15,3 C 20,1 C 8,0 km/h (2 Bft) 96,43 %
20.08.2018 07:46 20,3 C 25,0 C 20,6 C 73 % 1016,1 hPa 0,0 l/m 5,4 km/h (1 Bft) W-SW 238 2 min 0,000 mm 0,0 UV-I 212 W/m 15,3 C 20,3 C 8,0 km/h (2 Bft) 94,00 %
20.08.2018 07:48 20,3 C 25,0 C 20,6 C 73 % 1016,1 hPa 0,0 l/m 5,2 km/h (1 Bft) W-SW 238 2 min 0,000 mm 0,0 UV-I 221 W/m 15,3 C 20,3 C 6,4 km/h (2 Bft) 100,00 %
20.08.2018 07:50 20,3 C 25,0 C 20,6 C 73 % 1016,1 hPa 0,0 l/m 5,7 km/h (1 Bft) W-SW 252 2 min 0,000 mm 0,0 UV-I 230 W/m 15,3 C 20,3 C 8,0 km/h (2 Bft) 98,00 %
20.08.2018 07:52 20,5 C 25,0 C 21,1 C 73 % 1016,1 hPa 0,0 l/m 4,0 km/h (1 Bft) W-SW 246 2 min 0,000 mm 0,0 UV-I 235 W/m 15,5 C 20,5 C 6,4 km/h (2 Bft) 98,00 %
20.08.2018 07:54 20,6 C 25,0 C 21,1 C 72 % 1016,2 hPa 0,0 l/m 5,3 km/h (1 Bft) W-SW 250 2 min 0,000 mm 0,1 UV-I 240 W/m 15,4 C 20,6 C 8,0 km/h (2 Bft) 97,62 %
20.08.2018 07:56 20,6 C 25,0 C 21,1 C 73 % 1016,2 hPa 0,0 l/m 4,4 km/h (1 Bft) SW 229 2 min 0,000 mm 0,5 UV-I 253 W/m 15,6 C 20,6 C 6,4 km/h (2 Bft) 96,00 %
20.08.2018 07:58 20,7 C 25,0 C 21,7 C 73 % 1016,2 hPa 0,0 l/m 3,8 km/h (1 Bft) W-SW 240 2 min 0,000 mm 0,5 UV-I 262 W/m 15,7 C 20,7 C 6,4 km/h (2 Bft) 98,00 %
20.08.2018 08:00 20,8 C 25,0 C 21,7 C 72 % 1016,2 hPa 0,0 l/m 4,0 km/h (1 Bft) SW 217 2 min 0,127 mm 0,5 UV-I 268 W/m 15,6 C 20,8 C 6,4 km/h (2 Bft) 97,37 %
20.08.2018 08:02 20,9 C 25,0 C 21,7 C 72 % 1016,2 hPa 0,0 l/m 3,5 km/h (1 Bft) W-SW 244 2 min 0,000 mm 0,5 UV-I 271 W/m 15,7 C 20,9 C 6,4 km/h (2 Bft) 96,23 %
20.08.2018 08:04 21,1 C 25,0 C 21,7 C 71 % 1016,3 hPa 0,0 l/m 5,5 km/h (1 Bft) W-SW 244 2 min 0,000 mm 0,5 UV-I 272 W/m 15,6 C 21,1 C 8,0 km/h (2 Bft) 95,74 %
20.08.2018 08:06 21,2 C 25,0 C 22,2 C 70 % 1016,3 hPa 0,0 l/m 5,0 km/h (1 Bft) W 271 2 min 0,000 mm 0,6 UV-I 272 W/m 15,5 C 21,2 C 8,0 km/h (2 Bft) 97,37 %
20.08.2018 08:08 21,2 C 25,0 C 22,2 C 70 % 1016,4 hPa 0,0 l/m 5,6 km/h (1 Bft) W 260 2 min 0,000 mm 0,6 UV-I 272 W/m 15,5 C 21,2 C 11,3 km/h (2 Bft) 98,33 %
20.08.2018 08:10 21,3 C 25,0 C 22,2 C 70 % 1016,3 hPa 0,0 l/m 4,3 km/h (1 Bft) W 260 2 min 0,000 mm 0,6 UV-I 272 W/m 15,6 C 21,3 C 9,7 km/h (2 Bft) 97,37 %
20.08.2018 08:12 21,4 C 25,0 C 22,2 C 70 % 1016,3 hPa 0,0 l/m 5,2 km/h (1 Bft) W 270 2 min 0,000 mm 0,6 UV-I 276 W/m 15,7 C 21,4 C 9,7 km/h (2 Bft) 96,00 %
20.08.2018 08:14 21,4 C 25,0 C 22,2 C 69 % 1016,3 hPa 0,0 l/m 4,2 km/h (1 Bft) W 261 2 min 0,000 mm 0,6 UV-I 277 W/m 15,5 C 21,4 C 6,4 km/h (2 Bft) 96,00 %
20.08.2018 08:16 21,6 C 25,0 C 22,2 C 68 % 1016,3 hPa 0,0 l/m 4,7 km/h (1 Bft) W-SW 257 2 min 0,000 mm 0,7 UV-I 277 W/m 15,4 C 21,6 C 6,4 km/h (2 Bft) 97,87 %
20.08.2018 08:18 21,7 C 25,0 C 22,2 C 68 % 1016,4 hPa 0,0 l/m 4,4 km/h (1 Bft) W-NW 288 2 min 0,000 mm 0,7 UV-I 284 W/m 15,5 C 21,7 C 6,4 km/h (2 Bft) 97,37 %
20.08.2018 08:20 21,7 C 25,0 C 22,2 C 67 % 1016,3 hPa 0,0 l/m 2,5 km/h (1 Bft) W 271 2 min 0,000 mm 0,7 UV-I 296 W/m 15,3 C 21,7 C 4,8 km/h (1 Bft) 96,43 %
20.08.2018 08:22 21,8 C 25,0 C 22,2 C 67 % 1016,4 hPa 0,0 l/m 3,4 km/h (1 Bft) SW 232 2 min 0,000 mm 0,7 UV-I 302 W/m 15,4 C 21,8 C 6,4 km/h (2 Bft) 97,37 %
20.08.2018 08:24 21,9 C 25,0 C 22,8 C 66 % 1016,4 hPa 0,0 l/m 2,7 km/h (1 Bft) W-SW 244 2 min 0,000 mm 0,8 UV-I 310 W/m 15,3 C 21,9 C 6,4 km/h (2 Bft) 100,00 %
20.08.2018 08:26 22,0 C 25,0 C 22,8 C 65 % 1016,4 hPa 0,0 l/m 1,5 km/h (1 Bft) W 265 2 min 0,000 mm 0,8 UV-I 316 W/m 15,1 C 22,0 C 3,2 km/h (1 Bft) 100,00 %
20.08.2018 08:28 22,1 C 25,0 C 22,8 C 66 % 1016,3 hPa 0,0 l/m 1,3 km/h (1 Bft) W 265 2 min 0,000 mm 0,8 UV-I 319 W/m 15,4 C 22,1 C 3,2 km/h (1 Bft) 100,00 %
20.08.2018 08:30 22,2 C 25,0 C 22,8 C 65 % 1016,4 hPa 0,0 l/m 2,8 km/h (1 Bft) W-NW 292 2 min 0,000 mm 0,9 UV-I 322 W/m 15,3 C 22,2 C 4,8 km/h (1 Bft) 98,11 %
20.08.2018 08:32 22,3 C 25,0 C 22,8 C 64 % 1016,4 hPa 0,0 l/m 2,9 km/h (1 Bft) W-SW 247 2 min 0,000 mm 0,9 UV-I 328 W/m 15,2 C 22,3 C 4,8 km/h (1 Bft) 100,00 %
20.08.2018 08:34 22,3 C 25,0 C 22,8 C 64 % 1016,4 hPa 0,0 l/m 3,3 km/h (1 Bft) W 271 2 min 0,000 mm 0,9 UV-I 330 W/m 15,2 C 22,3 C 4,8 km/h (1 Bft) 100,00 %
20.08.2018 08:36 22,3 C 25,0 C 22,8 C 64 % 1016,5 hPa 0,0 l/m 4,1 km/h (1 Bft) W-NW 283 2 min 0,000 mm 0,9 UV-I 335 W/m 15,2 C 22,3 C 6,4 km/h (2 Bft) 98,00 %
20.08.2018 08:38 22,3 C 25,0 C 22,8 C 62 % 1016,4 hPa 0,0 l/m 3,7 km/h (1 Bft) W-SW 239 2 min 0,000 mm 1,0 UV-I 343 W/m 14,7 C 22,3 C 4,8 km/h (1 Bft) 100,00 %
20.08.2018 08:40 22,5 C 25,0 C 23,3 C 64 % 1016,4 hPa 0,0 l/m 0,8 km/h (0 Bft) W-SW 239 2 min 0,000 mm 1,0 UV-I 347 W/m 15,3 C 22,5 C 3,2 km/h (1 Bft) 100,00 %
20.08.2018 08:42 22,7 C 25,0 C 23,3 C 63 % 1016,4 hPa 0,0 l/m 2,4 km/h (1 Bft) W 277 2 min 0,000 mm 1,0 UV-I 353 W/m 15,3 C 22,7 C 4,8 km/h (1 Bft) 100,00 %
20.08.2018 08:44 22,7 C 25,0 C 23,3 C 63 % 1016,4 hPa 0,0 l/m 1,6 km/h (1 Bft) W 277 2 min 0,000 mm 1,0 UV-I 357 W/m 15,3 C 22,7 C 4,8 km/h (1 Bft) 100,00 %
20.08.2018 08:46 22,8 C 25,0 C 23,3 C 62 % 1016,4 hPa 0,0 l/m 0,0 km/h (0 Bft) W 277 2 min 0,000 mm 1,1 UV-I 359 W/m 15,1 C 22,8 C 0,0 km/h (0 Bft) 100,00 %
20.08.2018 08:48 22,9 C 25,0 C 23,9 C 62 % 1016,4 hPa 0,0 l/m 1,6 km/h (1 Bft) NW 309 2 min 0,000 mm 1,1 UV-I 366 W/m 15,2 C 22,9 C 6,4 km/h (2 Bft) 100,00 %
20.08.2018 08:50 22,9 C 25,0 C 23,9 C 61 % 1016,4 hPa 0,0 l/m 1,8 km/h (1 Bft) NW 312 2 min 0,000 mm 1,1 UV-I 372 W/m 15,0 C 22,9 C 3,2 km/h (1 Bft) 100,00 %
20.08.2018 08:52 22,9 C 25,0 C 23,9 C 62 % 1016,4 hPa 0,0 l/m 0,8 km/h (0 Bft) NW 311 2 min 0,000 mm 1,2 UV-I 373 W/m 15,2 C 22,9 C 1,6 km/h (1 Bft) 97,56 %
20.08.2018 08:54 22,9 C 25,0 C 24,4 C 61 % 1016,4 hPa 0,0 l/m 3,8 km/h (1 Bft) W-SW 257 2 min 0,000 mm 1,2 UV-I 380 W/m 15,0 C 22,9 C 6,4 km/h (2 Bft) 100,00 %
20.08.2018 08:56 22,9 C 25,0 C 25,0 C 60 % 1016,4 hPa 0,0 l/m 1,7 km/h (1 Bft) W 261 2 min 0,000 mm 1,2 UV-I 386 W/m 14,7 C 22,9 C 3,2 km/h (1 Bft) 97,73 %
20.08.2018 08:58 22,9 C 25,0 C 26,1 C 62 % 1016,5 hPa 0,0 l/m 3,7 km/h (1 Bft) W 269 2 min 0,000 mm 1,3 UV-I 390 W/m 15,2 C 22,9 C 9,7 km/h (2 Bft) 97,87 %
20.08.2018 09:00 23,0 C 25,0 C 26,7 C 61 % 1016,5 hPa 0,0 l/m 2,0 km/h (1 Bft) W 269 2 min 0,203 mm 1,3 UV-I 399 W/m 15,1 C 23,0 C 4,8 km/h (1 Bft) 94,00 %
20.08.2018 09:02 23,1 C 25,0 C 27,8 C 62 % 1016,4 hPa 0,0 l/m 1,8 km/h (1 Bft) W 273 2 min 0,000 mm 1,3 UV-I 404 W/m 15,4 C 23,1 C 6,4 km/h (2 Bft) 97,37 %
20.08.2018 09:04 23,2 C 25,0 C 28,3 C 60 % 1016,5 hPa 0,0 l/m 4,9 km/h (1 Bft) W-NW 294 2 min 0,000 mm 1,3 UV-I 407 W/m 15,0 C 23,2 C 9,7 km/h (2 Bft) 97,87 %
20.08.2018 09:06 23,2 C 25,0 C 28,3 C 60 % 1016,5 hPa 0,0 l/m 7,7 km/h (2 Bft) W 260 2 min 0,000 mm 1,4 UV-I 413 W/m 15,0 C 22,8 C 14,5 km/h (3 Bft) 97,87 %
20.08.2018 09:08 23,3 C 25,0 C 28,9 C 59 % 1016,5 hPa 0,0 l/m 8,2 km/h (2 Bft) W-SW 254 2 min 0,000 mm 1,4 UV-I 423 W/m 14,8 C 22,8 C 11,3 km/h (2 Bft) 96,23 %
20.08.2018 09:10 23,3 C 25,0 C 29,4 C 60 % 1016,5 hPa 0,0 l/m 6,4 km/h (2 Bft) W 259 2 min 0,000 mm 1,4 UV-I 431 W/m 15,1 C 23,3 C 12,9 km/h (3 Bft) 97,87 %
20.08.2018 09:12 23,4 C 25,0 C 29,4 C 60 % 1016,5 hPa 0,0 l/m 4,5 km/h (1 Bft) W-SW 257 2 min 0,000 mm 1,5 UV-I 436 W/m 15,2 C 23,4 C 6,4 km/h (2 Bft) 100,00 %
20.08.2018 09:14 23,5 C 25,6 C 30,0 C 60 % 1016,5 hPa 0,0 l/m 8,8 km/h (2 Bft) W 273 2 min 0,000 mm 1,5 UV-I 448 W/m 15,3 C 22,8 C 12,9 km/h (3 Bft) 96,00 %
20.08.2018 09:16 23,6 C 25,6 C 30,0 C 60 % 1016,5 hPa 0,0 l/m 7,1 km/h (2 Bft) W-NW 282 2 min 0,000 mm 1,6 UV-I 460 W/m 15,4 C 23,4 C 11,3 km/h (2 Bft) 95,74 %
20.08.2018 09:18 23,6 C 25,6 C 30,6 C 59 % 1016,5 hPa 0,0 l/m 9,5 km/h (2 Bft) W-SW 257 2 min 0,000 mm 1,6 UV-I 469 W/m 15,1 C 22,7 C 14,5 km/h (3 Bft) 98,00 %
20.08.2018 09:20 23,7 C 25,6 C 30,6 C 59 % 1016,5 hPa 0,0 l/m 9,7 km/h (2 Bft) W 261 2 min 0,000 mm 1,6 UV-I 476 W/m 15,2 C 22,8 C 14,5 km/h (3 Bft) 97,37 %
20.08.2018 09:22 23,8 C 25,6 C 31,7 C 59 % 1016,5 hPa 0,0 l/m 3,6 km/h (1 Bft) NW 313 2 min 0,000 mm 1,7 UV-I 508 W/m 15,3 C 23,8 C 6,4 km/h (2 Bft) 98,21 %
20.08.2018 09:24 23,9 C 25,6 C 32,2 C 59 % 1016,5 hPa 0,0 l/m 4,5 km/h (1 Bft) W 279 2 min 0,000 mm 1,7 UV-I 527 W/m 15,4 C 23,9 C 9,7 km/h (2 Bft) 97,14 %
20.08.2018 09:26 24,0 C 25,6 C 32,8 C 59 % 1016,5 hPa 0,0 l/m 5,7 km/h (1 Bft) NW 319 2 min 0,000 mm 1,7 UV-I 530 W/m 15,5 C 24,0 C 11,3 km/h (2 Bft) 100,00 %
20.08.2018 09:28 24,1 C 25,6 C 33,3 C 58 % 1016,5 hPa 0,0 l/m 5,0 km/h (1 Bft) W-SW 249 2 min 0,000 mm 1,7 UV-I 528 W/m 15,3 C 24,1 C 11,3 km/h (2 Bft) 100,00 %
20.08.2018 09:30 24,3 C 25,6 C 32,8 C 57 % 1016,6 hPa 0,0 l/m 5,3 km/h (1 Bft) W-SW 250 2 min 0,000 mm 1,6 UV-I 474 W/m 15,2 C 24,3 C 12,9 km/h (3 Bft) 100,00 %
20.08.2018 09:32 24,3 C 25,6 C 32,2 C 58 % 1016,5 hPa 0,0 l/m 6,3 km/h (2 Bft) W 267 2 min 0,000 mm 1,6 UV-I 358 W/m 15,5 C 24,3 C 11,3 km/h (2 Bft) 100,00 %
20.08.2018 09:34 24,3 C 25,6 C 31,1 C 57 % 1016,6 hPa 0,0 l/m 7,4 km/h (2 Bft) W-SW 256 2 min 0,000 mm 1,5 UV-I 380 W/m 15,2 C 24,0 C 12,9 km/h (3 Bft) 100,00 %
20.08.2018 09:36 24,3 C 25,0 C 30,0 C 57 % 1016,6 hPa 0,0 l/m 3,9 km/h (1 Bft) W-SW 244 2 min 0,000 mm 1,4 UV-I 341 W/m 15,2 C 24,3 C 6,4 km/h (2 Bft) 100,00 %
20.08.2018 09:38 24,3 C 25,0 C 28,9 C 57 % 1016,6 hPa 0,0 l/m 6,6 km/h (2 Bft) W 278 0 min 0,000 mm 1,4 UV-I 236 W/m 15,2 C 24,3 C 11,3 km/h (2 Bft) 100,00 %
20.08.2018 09:40 24,1 C 25,0 C 27,8 C 57 % 1016,6 hPa 0,0 l/m 7,1 km/h (2 Bft) W-SW 245 0 min 0,000 mm 1,4 UV-I 222 W/m 15,0 C 23,9 C 11,3 km/h (2 Bft) 100,00 %
20.08.2018 09:42 23,9 C 25,0 C 27,2 C 58 % 1016,6 hPa 0,0 l/m 6,4 km/h (2 Bft) W 270 0 min 0,000 mm 1,5 UV-I 229 W/m 15,1 C 23,9 C 12,9 km/h (3 Bft) 100,00 %
20.08.2018 09:44 23,8 C 25,0 C 26,7 C 58 % 1016,6 hPa 0,0 l/m 9,1 km/h (2 Bft) W 279 0 min 0,000 mm 1,5 UV-I 238 W/m 15,0 C 23,1 C 12,9 km/h (3 Bft) 98,39 %
20.08.2018 09:46 23,7 C 25,0 C 26,7 C 59 % 1016,6 hPa 0,0 l/m 6,2 km/h (2 Bft) W 277 0 min 0,000 mm 1,6 UV-I 238 W/m 15,2 C 23,7 C 9,7 km/h (2 Bft) 96,15 %
20.08.2018 09:48 23,7 C 25,6 C 26,7 C 59 % 1016,6 hPa 0,0 l/m 5,8 km/h (2 Bft) W-SW 247 0 min 0,000 mm 1,6 UV-I 239 W/m 15,2 C 23,7 C 14,5 km/h (3 Bft) 98,00 %
20.08.2018 09:50 23,7 C 25,6 C 26,7 C 59 % 1016,6 hPa 0,0 l/m 8,2 km/h (2 Bft) W 281 0 min 0,000 mm 1,7 UV-I 252 W/m 15,2 C 23,2 C 12,9 km/h (3 Bft) 94,87 %
20.08.2018 09:52 23,8 C 25,6 C 27,2 C 59 % 1016,6 hPa 0,0 l/m 5,3 km/h (1 Bft) NW 314 0 min 0,000 mm 1,7 UV-I 305 W/m 15,3 C 23,8 C 11,3 km/h (2 Bft) 90,91 %
20.08.2018 09:54 23,9 C 25,6 C 27,8 C 59 % 1016,6 hPa 0,0 l/m 2,2 km/h (1 Bft) W-SW 250 0 min 0,000 mm 1,9 UV-I 322 W/m 15,4 C 23,9 C 6,4 km/h (2 Bft) 98,00 %
20.08.2018 09:56 24,2 C 25,6 C 28,3 C 59 % 1016,6 hPa 0,0 l/m 6,7 km/h (2 Bft) W 265 2 min 0,000 mm 1,9 UV-I 391 W/m 15,7 C 24,1 C 11,3 km/h (2 Bft) 98,00 %
20.08.2018 09:58 24,4 C 25,6 C 30,0 C 58 % 1016,6 hPa 0,0 l/m 5,9 km/h (2 Bft) SW 217 2 min 0,000 mm 1,8 UV-I 418 W/m 15,6 C 24,4 C 14,5 km/h (3 Bft) 97,87 %
20.08.2018 10:00 24,7 C 25,6 C 30,6 C 57 % 1016,6 hPa 0,0 l/m 4,4 km/h (1 Bft) N 11 2 min 0,000 mm 1,7 UV-I 403 W/m 15,6 C 24,7 C 11,3 km/h (2 Bft) 91,30 %
20.08.2018 10:02 24,9 C 25,6 C 31,7 C 57 % 1016,6 hPa 0,0 l/m 0,8 km/h (0 Bft) SW 232 2 min 0,279 mm 1,5 UV-I 343 W/m 15,8 C 24,9 C 3,2 km/h (1 Bft) 97,06 %
20.08.2018 10:04 25,3 C 25,6 C 32,8 C 55 % 1016,6 hPa 0,0 l/m 7,9 km/h (2 Bft) SW 225 2 min 0,000 mm 1,5 UV-I 553 W/m 15,6 C 24,9 C 11,3 km/h (2 Bft) 96,23 %
20.08.2018 10:06 25,3 C 25,6 C 31,7 C 54 % 1016,5 hPa 0,0 l/m 5,7 km/h (1 Bft) NW 324 2 min 0,000 mm 1,2 UV-I 409 W/m 15,3 C 25,3 C 11,3 km/h (2 Bft) 97,37 %
20.08.2018 10:08 25,1 C 25,6 C 30,0 C 54 % 1016,6 hPa 0,0 l/m 5,6 km/h (1 Bft) W 266 0 min 0,000 mm 1,1 UV-I 218 W/m 15,1 C 25,1 C 11,3 km/h (2 Bft) 98,00 %
20.08.2018 10:10 24,8 C 25,6 C 28,9 C 56 % 1016,6 hPa 0,0 l/m 6,5 km/h (2 Bft) W 259 0 min 0,000 mm 1,1 UV-I 198 W/m 15,4 C 24,8 C 12,9 km/h (3 Bft) 96,23 %
20.08.2018 10:12 24,7 C 25,6 C 28,3 C 56 % 1016,6 hPa 0,0 l/m 6,9 km/h (2 Bft) W-SW 250 0 min 0,000 mm 1,1 UV-I 177 W/m 15,3 C 24,6 C 11,3 km/h (2 Bft) 95,74 %
20.08.2018 10:14 24,6 C 25,0 C 27,2 C 56 % 1016,6 hPa 0,0 l/m 4,2 km/h (1 Bft) W 260 0 min 0,000 mm 1,1 UV-I 166 W/m 15,2 C 24,6 C 6,4 km/h (2 Bft) 97,73 %
20.08.2018 10:16 24,4 C 25,0 C 26,7 C 57 % 1016,6 hPa 0,0 l/m 3,5 km/h (1 Bft) NW 312 0 min 0,000 mm 1,1 UV-I 155 W/m 15,3 C 24,4 C 6,4 km/h (2 Bft) 98,00 %
20.08.2018 10:18 24,4 C 25,0 C 26,1 C 57 % 1016,6 hPa 0,0 l/m 6,2 km/h (2 Bft) W-SW 251 0 min 0,000 mm 1,1 UV-I 151 W/m 15,3 C 24,4 C 11,3 km/h (2 Bft) 100,00 %
20.08.2018 10:20 24,3 C 25,0 C 26,1 C 57 % 1016,6 hPa 0,0 l/m 4,2 km/h (1 Bft) W-SW 238 0 min 0,000 mm 1,2 UV-I 149 W/m 15,2 C 24,3 C 8,0 km/h (2 Bft) 100,00 %
20.08.2018 10:22 24,3 C 25,0 C 26,1 C 58 % 1016,6 hPa 0,0 l/m 3,7 km/h (1 Bft) W 267 0 min 0,000 mm 1,2 UV-I 151 W/m 15,5 C 24,3 C 4,8 km/h (1 Bft) 100,00 %
20.08.2018 10:24 24,3 C 25,6 C 26,1 C 59 % 1016,6 hPa 0,0 l/m 3,1 km/h (1 Bft) W-NW 287 0 min 0,000 mm 1,2 UV-I 153 W/m 15,8 C 24,3 C 9,7 km/h (2 Bft) 100,00 %
20.08.2018 10:26 24,3 C 25,6 C 26,1 C 58 % 1016,6 hPa 0,0 l/m 4,7 km/h (1 Bft) SW 236 0 min 0,000 mm 1,3 UV-I 156 W/m 15,5 C 24,3 C 6,4 km/h (2 Bft) 100,00 %
20.08.2018 10:29 24,2 C 25,6 C 25,6 C 58 % 1016,6 hPa 0,0 l/m 5,3 km/h (1 Bft) W 278 0 min 0,000 mm 1,4 UV-I 161 W/m 15,4 C 24,2 C 9,7 km/h (2 Bft) 98,73 %
20.08.2018 10:30 24,1 C 25,6 C 25,6 C 58 % 1016,6 hPa 0,0 l/m 5,8 km/h (2 Bft) W-SW 254 0 min 0,000 mm 1,5 UV-I 159 W/m 15,3 C 24,1 C 8,0 km/h (2 Bft) 100,00 %
20.08.2018 10:32 24,1 C 25,0 C 25,6 C 59 % 1016,6 hPa 0,0 l/m 5,1 km/h (1 Bft) W-SW 250 0 min 0,000 mm 1,5 UV-I 160 W/m 15,6 C 24,1 C 6,4 km/h (2 Bft) 98,00 %
20.08.2018 10:34 24,1 C 25,6 C 25,6 C 59 % 1016,6 hPa 0,0 l/m 4,8 km/h (1 Bft) W-SW 253 0 min 0,000 mm 1,6 UV-I 166 W/m 15,6 C 24,1 C 8,0 km/h (2 Bft) 96,00 %
20.08.2018 10:36 24,1 C 25,6 C 25,6 C 59 % 1016,6 hPa 0,0 l/m 4,2 km/h (1 Bft) W 265 0 min 0,000 mm 1,7 UV-I 179 W/m 15,6 C 24,1 C 6,4 km/h (2 Bft) 98,00 %
20.08.2018 10:38 24,1 C 25,6 C 25,6 C 59 % 1016,6 hPa 0,0 l/m 4,5 km/h (1 Bft) W 267 0 min 0,000 mm 1,7 UV-I 176 W/m 15,6 C 24,1 C 8,0 km/h (2 Bft) 97,37 %
20.08.2018 10:40 24,1 C 25,6 C 25,6 C 59 % 1016,6 hPa 0,0 l/m 3,7 km/h (1 Bft) W-SW 238 0 min 0,000 mm 1,7 UV-I 171 W/m 15,6 C 24,1 C 4,8 km/h (1 Bft) 98,11 %
20.08.2018 10:42 24,1 C 25,6 C 26,1 C 60 % 1016,6 hPa 0,0 l/m 5,0 km/h (1 Bft) W 277 0 min 0,000 mm 1,8 UV-I 170 W/m 15,8 C 24,1 C 11,3 km/h (2 Bft) 95,74 %
20.08.2018 10:44 24,1 C 25,6 C 25,6 C 60 % 1016,6 hPa 0,0 l/m 7,2 km/h (2 Bft) W-SW 257 0 min 0,000 mm 1,9 UV-I 176 W/m 15,8 C 23,9 C 11,3 km/h (2 Bft) 97,87 %
20.08.2018 10:46 24,0 C 25,0 C 26,1 C 59 % 1016,6 hPa 0,0 l/m 5,3 km/h (1 Bft) W-SW 245 0 min 0,000 mm 1,9 UV-I 184 W/m 15,5 C 24,0 C 8,0 km/h (2 Bft) 97,87 %
20.08.2018 10:48 24,0 C 25,0 C 26,1 C 60 % 1016,6 hPa 0,0 l/m 3,4 km/h (1 Bft) W-SW 254 0 min 0,000 mm 2,0 UV-I 192 W/m 15,7 C 24,0 C 4,8 km/h (1 Bft) 97,14 %
20.08.2018 10:50 24,0 C 25,6 C 26,1 C 61 % 1016,6 hPa 0,0 l/m 4,3 km/h (1 Bft) W 269 0 min 0,000 mm 2,2 UV-I 215 W/m 16,0 C 24,0 C 6,4 km/h (2 Bft) 95,16 %
20.08.2018 10:52 24,0 C 25,6 C 26,7 C 60 % 1016,5 hPa 0,0 l/m 4,0 km/h (1 Bft) W-SW 256 0 min 0,000 mm 2,3 UV-I 243 W/m 15,7 C 24,0 C 6,4 km/h (2 Bft) 94,74 %
20.08.2018 10:54 24,1 C 25,6 C 27,8 C 60 % 1016,5 hPa 0,0 l/m 3,1 km/h (1 Bft) W-SW 255 0 min 0,000 mm 2,7 UV-I 327 W/m 15,8 C 24,1 C 4,8 km/h (1 Bft) 96,23 %
20.08.2018 10:56 24,2 C 25,6 C 28,9 C 60 % 1016,5 hPa 0,0 l/m 4,0 km/h (1 Bft) W 265 0 min 0,000 mm 2,7 UV-I 382 W/m 15,9 C 24,2 C 6,4 km/h (2 Bft) 94,74 %
20.08.2018 10:58 24,3 C 25,6 C 28,9 C 60 % 1016,5 hPa 0,0 l/m 2,1 km/h (1 Bft) W 265 0 min 0,000 mm 2,5 UV-I 294 W/m 16,0 C 24,3 C 4,8 km/h (1 Bft) 98,00 %
20.08.2018 11:00 24,5 C 25,6 C 29,4 C 59 % 1016,5 hPa 0,0 l/m 3,0 km/h (1 Bft) W-SW 248 0 min 0,178 mm 2,9 UV-I 244 W/m 15,9 C 24,5 C 11,3 km/h (2 Bft) 98,11 %
20.08.2018 11:02 24,6 C 25,6 C 29,4 C 58 % 1016,5 hPa 0,0 l/m 5,0 km/h (1 Bft) W 269 0 min 0,000 mm 2,7 UV-I 273 W/m 15,8 C 24,6 C 9,7 km/h (2 Bft) 97,62 %
20.08.2018 11:04 24,6 C 25,6 C 29,4 C 58 % 1016,5 hPa 0,0 l/m 5,4 km/h (1 Bft) SW 232 0 min 0,000 mm 2,7 UV-I 291 W/m 15,8 C 24,6 C 8,0 km/h (2 Bft) 96,15 %
20.08.2018 11:06 24,7 C 25,6 C 28,9 C 58 % 1016,5 hPa 0,0 l/m 5,0 km/h (1 Bft) W-NW 287 0 min 0,000 mm 2,7 UV-I 280 W/m 15,9 C 24,7 C 8,0 km/h (2 Bft) 97,62 %
20.08.2018 11:08 24,8 C 25,6 C 28,9 C 57 % 1016,5 hPa 0,0 l/m 7,6 km/h (2 Bft) W 278 0 min 0,000 mm 2,8 UV-I 311 W/m 15,7 C 24,5 C 12,9 km/h (3 Bft) 97,87 %
20.08.2018 11:10 24,9 C 25,6 C 30,0 C 56 % 1016,5 hPa 0,0 l/m 7,2 km/h (2 Bft) W 275 0 min 0,000 mm 3,0 UV-I 341 W/m 15,5 C 24,7 C 11,3 km/h (2 Bft) 93,62 %
20.08.2018 11:12 25,2 C 25,6 C 31,1 C 57 % 1016,5 hPa 0,0 l/m 3,6 km/h (1 Bft) W 280 2 min 0,000 mm 3,1 UV-I 469 W/m 16,1 C 25,2 C 6,4 km/h (2 Bft) 98,11 %
20.08.2018 11:14 25,2 C 25,6 C 31,1 C 55 % 1016,5 hPa 0,0 l/m 4,8 km/h (1 Bft) W 271 2 min 0,000 mm 3,0 UV-I 428 W/m 15,5 C 25,2 C 9,7 km/h (2 Bft) 94,74 %
20.08.2018 11:16 25,2 C 25,6 C 31,1 C 56 % 1016,4 hPa 0,0 l/m 4,1 km/h (1 Bft) W 268 0 min 0,000 mm 2,9 UV-I 371 W/m 15,8 C 25,2 C 9,7 km/h (2 Bft) 98,00 %
20.08.2018 11:18 25,3 C 25,6 C 30,6 C 56 % 1016,4 hPa 0,0 l/m 6,7 km/h (2 Bft) W-SW 251 0 min 0,000 mm 2,7 UV-I 299 W/m 15,9 C 25,2 C 14,5 km/h (3 Bft) 97,56 %
20.08.2018 11:20 25,3 C 25,6 C 30,0 C 55 % 1016,4 hPa 0,0 l/m 9,4 km/h (2 Bft) W-SW 253 0 min 0,000 mm 2,7 UV-I 274 W/m 15,6 C 24,6 C 12,9 km/h (3 Bft) 97,56 %
20.08.2018 11:22 25,3 C 25,6 C 30,0 C 56 % 1016,3 hPa 0,0 l/m 7,3 km/h (2 Bft) SW 229 0 min 0,000 mm 2,8 UV-I 268 W/m 15,9 C 25,1 C 11,3 km/h (2 Bft) 98,00 %
20.08.2018 11:24 25,4 C 25,6 C 30,0 C 56 % 1016,4 hPa 0,0 l/m 2,9 km/h (1 Bft) SW 231 0 min 0,000 mm 2,9 UV-I 267 W/m 16,0 C 25,4 C 4,8 km/h (1 Bft) 98,11 %
20.08.2018 11:26 25,4 C 25,6 C 29,4 C 56 % 1016,3 hPa 0,0 l/m 3,4 km/h (1 Bft) W 266 0 min 0,000 mm 3,1 UV-I 323 W/m 16,0 C 25,4 C 4,8 km/h (1 Bft) 96,00 %
20.08.2018 11:28 25,4 C 25,6 C 29,4 C 55 % 1016,3 hPa 0,0 l/m 4,8 km/h (1 Bft) W-SW 241 0 min 0,000 mm 3,0 UV-I 285 W/m 15,7 C 25,4 C 6,4 km/h (2 Bft) 100,00 %
20.08.2018 11:30 25,6 C 25,6 C 31,1 C 55 % 1016,3 hPa 0,0 l/m 3,3 km/h (1 Bft) W 259 2 min 0,000 mm 3,4 UV-I 454 W/m 15,9 C 25,6 C 9,7 km/h (2 Bft) 98,21 %
20.08.2018 11:32 25,7 C 25,6 C 33,9 C 56 % 1016,3 hPa 0,0 l/m 5,5 km/h (1 Bft) W 265 2 min 0,000 mm 3,9 UV-I 740 W/m 16,2 C 25,7 C 9,7 km/h (2 Bft) 95,74 %
20.08.2018 11:34 26,4 C 25,6 C 36,1 C 55 % 1016,3 hPa 0,0 l/m 5,7 km/h (1 Bft) S-SW 205 2 min 0,000 mm 4,0 UV-I 732 W/m 16,6 C 26,4 C 9,7 km/h (2 Bft) 98,00 %
20.08.2018 11:36 26,7 C 25,6 C 36,1 C 52 % 1016,3 hPa 0,0 l/m 10,2 km/h (2 Bft) W-SW 258 2 min 0,000 mm 4,0 UV-I 709 W/m 16,0 C 26,0 C 14,5 km/h (3 Bft) 97,22 %
20.08.2018 11:38 26,7 C 25,6 C 36,1 C 50 % 1016,3 hPa 0,0 l/m 9,9 km/h (2 Bft) W-SW 256 2 min 0,000 mm 4,0 UV-I 705 W/m 15,4 C 26,1 C 14,5 km/h (3 Bft) 98,18 %
20.08.2018 11:40 26,8 C 25,6 C 36,1 C 51 % 1016,2 hPa 0,0 l/m 11,2 km/h (2 Bft) W-SW 246 2 min 0,000 mm 4,0 UV-I 661 W/m 15,8 C 26,0 C 16,1 km/h (3 Bft) 95,24 %
20.08.2018 11:42 26,8 C 25,6 C 35,0 C 50 % 1016,2 hPa 0,0 l/m 11,0 km/h (2 Bft) W-NW 284 2 min 0,000 mm 3,5 UV-I 640 W/m 15,5 C 26,0 C 16,1 km/h (3 Bft) 96,15 %
20.08.2018 11:44 26,6 C 25,6 C 35,6 C 51 % 1016,2 hPa 0,0 l/m 7,1 km/h (2 Bft) W 259 2 min 0,000 mm 4,0 UV-I 616 W/m 15,6 C 26,5 C 12,9 km/h (3 Bft) 92,86 %
20.08.2018 11:46 26,8 C 25,6 C 36,1 C 50 % 1016,2 hPa 0,0 l/m 12,0 km/h (2 Bft) SW 236 2 min 0,000 mm 4,2 UV-I 724 W/m 15,5 C 25,9 C 17,7 km/h (3 Bft) 94,00 %
20.08.2018 11:48 26,9 C 25,6 C 36,7 C 49 % 1016,2 hPa 0,0 l/m 7,2 km/h (2 Bft) W 259 2 min 0,000 mm 4,2 UV-I 698 W/m 15,3 C 26,7 C 14,5 km/h (3 Bft) 93,62 %
20.08.2018 11:50 27,1 C 25,6 C 36,7 C 49 % 1016,2 hPa 0,0 l/m 9,2 km/h (2 Bft) S-SW 206 2 min 0,000 mm 4,1 UV-I 653 W/m 15,4 C 26,6 C 16,1 km/h (3 Bft) 96,00 %
20.08.2018 11:52 27,4 C 25,6 C 37,2 C 48 % 1016,2 hPa 0,0 l/m 9,8 km/h (2 Bft) W-SW 246 2 min 0,000 mm 4,3 UV-I 718 W/m 15,4 C 26,8 C 16,1 km/h (3 Bft) 97,37 %
20.08.2018 11:54 27,6 C 25,6 C 37,2 C 46 % 1016,2 hPa 0,0 l/m 13,6 km/h (3 Bft) W 263 2 min 0,000 mm 4,3 UV-I 732 W/m 14,9 C 26,6 C 17,7 km/h (3 Bft) 98,21 %
20.08.2018 11:56 27,5 C 25,6 C 37,8 C 47 % 1016,2 hPa 0,0 l/m 7,8 km/h (2 Bft) W-SW 254 2 min 0,000 mm 4,4 UV-I 749 W/m 15,2 C 27,3 C 16,1 km/h (3 Bft) 97,37 %
20.08.2018 11:58 27,6 C 25,6 C 38,9 C 48 % 1016,2 hPa 0,0 l/m 10,3 km/h (2 Bft) W-SW 254 2 min 0,000 mm 4,4 UV-I 756 W/m 15,6 C 27,0 C 14,5 km/h (3 Bft) 96,23 %
20.08.2018 12:00 27,7 C 25,6 C 39,4 C 48 % 1016,1 hPa 0,0 l/m 6,4 km/h (2 Bft) W 269 2 min 0,000 mm 4,4 UV-I 752 W/m 15,7 C 27,7 C 12,9 km/h (3 Bft) 94,74 %
20.08.2018 12:02 27,8 C 25,6 C 39,4 C 46 % 1016,2 hPa 0,0 l/m 12,4 km/h (3 Bft) W 269 2 min 0,381 mm 4,4 UV-I 749 W/m 15,1 C 27,0 C 16,1 km/h (3 Bft) 98,00 %
20.08.2018 12:04 27,7 C 25,6 C 39,4 C 48 % 1016,2 hPa 0,0 l/m 4,4 km/h (1 Bft) W-NW 298 2 min 0,000 mm 4,3 UV-I 696 W/m 15,7 C 27,7 C 9,7 km/h (2 Bft) 97,87 %
20.08.2018 12:06 27,8 C 25,6 C 40,0 C 48 % 1016,2 hPa 0,0 l/m 3,3 km/h (1 Bft) N-NO 26 2 min 0,000 mm 4,4 UV-I 674 W/m 15,8 C 27,8 C 4,8 km/h (1 Bft) 94,00 %
20.08.2018 12:08 27,9 C 25,6 C 40,0 C 47 % 1016,2 hPa 0,0 l/m 4,5 km/h (1 Bft) S-SW 213 2 min 0,000 mm 4,4 UV-I 625 W/m 15,5 C 27,9 C 8,0 km/h (2 Bft) 94,00 %
20.08.2018 12:10 28,2 C 25,6 C 40,0 C 46 % 1016,2 hPa 0,0 l/m 8,0 km/h (2 Bft) W-SW 254 2 min 0,000 mm 4,5 UV-I 754 W/m 15,5 C 28,0 C 12,9 km/h (3 Bft) 95,12 %
20.08.2018 12:12 28,3 C 25,6 C 39,4 C 47 % 1016,2 hPa 0,0 l/m 10,0 km/h (2 Bft) SW 234 2 min 0,000 mm 4,5 UV-I 750 W/m 15,9 C 27,8 C 16,1 km/h (3 Bft) 95,45 %
20.08.2018 12:14 28,3 C 25,6 C 39,4 C 45 % 1016,2 hPa 0,0 l/m 11,9 km/h (2 Bft) SW 234 2 min 0,000 mm 4,5 UV-I 747 W/m 15,2 C 27,6 C 17,7 km/h (3 Bft) 98,11 %
20.08.2018 12:16 28,2 C 25,6 C 38,9 C 46 % 1016,2 hPa 0,0 l/m 7,4 km/h (2 Bft) SW 221 2 min 0,000 mm 4,5 UV-I 741 W/m 15,5 C 28,0 C 14,5 km/h (3 Bft) 97,73 %
20.08.2018 12:18 28,3 C 25,6 C 38,9 C 47 % 1016,2 hPa 0,0 l/m 6,8 km/h (2 Bft) W-SW 250 2 min 0,000 mm 4,6 UV-I 736 W/m 15,9 C 28,2 C 12,9 km/h (3 Bft) 98,11 %
20.08.2018 12:20 28,5 C 25,6 C 39,4 C 46 % 1016,1 hPa 0,0 l/m 8,1 km/h (2 Bft) SW 227 2 min 0,000 mm 4,6 UV-I 733 W/m 15,7 C 28,3 C 16,1 km/h (3 Bft) 94,87 %
20.08.2018 12:22 28,7 C 25,6 C 40,0 C 46 % 1016,1 hPa 0,0 l/m 5,5 km/h (1 Bft) NW 324 2 min 0,000 mm 4,6 UV-I 730 W/m 15,9 C 28,7 C 11,3 km/h (2 Bft) 97,87 %
20.08.2018 12:24 28,9 C 25,6 C 40,0 C 46 % 1016,1 hPa 0,0 l/m 7,7 km/h (2 Bft) W-SW 240 2 min 0,000 mm 4,6 UV-I 733 W/m 16,1 C 28,7 C 17,7 km/h (3 Bft) 98,00 %
20.08.2018 12:26 28,8 C 25,6 C 39,4 C 44 % 1016,1 hPa 0,0 l/m 10,6 km/h (2 Bft) W 269 2 min 0,000 mm 4,6 UV-I 740 W/m 15,3 C 28,3 C 19,3 km/h (3 Bft) 95,12 %
20.08.2018 12:28 28,8 C 25,6 C 39,4 C 44 % 1016,1 hPa 0,0 l/m 9,0 km/h (2 Bft) NW 311 2 min 0,000 mm 4,6 UV-I 740 W/m 15,3 C 28,5 C 16,1 km/h (3 Bft) 96,43 %
20.08.2018 12:30 28,7 C 25,6 C 39,4 C 45 % 1016,1 hPa 0,0 l/m 9,5 km/h (2 Bft) NW 304 2 min 0,000 mm 4,6 UV-I 738 W/m 15,6 C 28,3 C 14,5 km/h (3 Bft) 98,00 %
20.08.2018 12:32 28,7 C 25,6 C 39,4 C 44 % 1016,1 hPa 0,0 l/m 4,5 km/h (1 Bft) W-NW 289 2 min 0,000 mm 4,6 UV-I 740 W/m 15,2 C 28,7 C 8,0 km/h (2 Bft) 97,37 %
20.08.2018 12:34 28,7 C 25,6 C 39,4 C 44 % 1016,0 hPa 0,0 l/m 11,6 km/h (2 Bft) NW 309 2 min 0,000 mm 4,6 UV-I 739 W/m 15,2 C 28,1 C 17,7 km/h (3 Bft) 96,00 %
20.08.2018 12:36 28,8 C 25,6 C 40,0 C 43 % 1016,0 hPa 0,0 l/m 5,6 km/h (1 Bft) NW 322 2 min 0,000 mm 4,7 UV-I 744 W/m 15,0 C 28,8 C 11,3 km/h (2 Bft) 100,00 %
20.08.2018 12:38 28,7 C 25,6 C 40,6 C 43 % 1016,0 hPa 0,0 l/m 3,6 km/h (1 Bft) W 277 2 min 0,000 mm 4,7 UV-I 744 W/m 14,9 C 28,7 C 4,8 km/h (1 Bft) 100,00 %
20.08.2018 12:40 28,8 C 25,6 C 41,1 C 44 % 1015,9 hPa 0,0 l/m 4,1 km/h (1 Bft) W-NW 290 2 min 0,000 mm 4,7 UV-I 741 W/m 15,3 C 28,8 C 9,7 km/h (2 Bft) 100,00 %
20.08.2018 12:42 28,9 C 25,6 C 40,6 C 43 % 1015,9 hPa 0,0 l/m 11,4 km/h (2 Bft) W 263 2 min 0,000 mm 4,7 UV-I 746 W/m 15,0 C 28,3 C 14,5 km/h (3 Bft) 100,00 %
20.08.2018 12:44 29,0 C 25,6 C 40,0 C 43 % 1016,0 hPa 0,0 l/m 8,0 km/h (2 Bft) W-SW 237 2 min 0,000 mm 4,7 UV-I 747 W/m 15,1 C 28,8 C 12,9 km/h (3 Bft) 100,00 %
20.08.2018 12:46 29,2 C 25,6 C 40,6 C 43 % 1015,9 hPa 0,0 l/m 5,6 km/h (1 Bft) N-NW 327 2 min 0,000 mm 4,8 UV-I 749 W/m 15,3 C 29,2 C 12,9 km/h (3 Bft) 100,00 %
20.08.2018 12:48 29,4 C 25,6 C 41,1 C 42 % 1015,9 hPa 0,0 l/m 6,4 km/h (2 Bft) W 262 2 min 0,000 mm 4,8 UV-I 754 W/m 15,1 C 29,4 C 12,9 km/h (3 Bft) 100,00 %
20.08.2018 12:50 29,4 C 25,6 C 40,0 C 41 % 1015,9 hPa 0,0 l/m 6,3 km/h (2 Bft) NW 313 2 min 0,000 mm 4,8 UV-I 755 W/m 14,7 C 29,4 C 11,3 km/h (2 Bft) 100,00 %
20.08.2018 12:52 29,3 C 25,6 C 40,6 C 41 % 1015,9 hPa 0,0 l/m 3,0 km/h (1 Bft) N 355 2 min 0,000 mm 4,8 UV-I 751 W/m 14,7 C 29,3 C 6,4 km/h (2 Bft) 100,00 %
20.08.2018 12:54 29,3 C 25,6 C 40,6 C 42 % 1015,8 hPa 0,0 l/m 7,7 km/h (2 Bft) N-NW 331 2 min 0,000 mm 4,8 UV-I 751 W/m 15,0 C 29,1 C 14,5 km/h (3 Bft) 97,92 %
20.08.2018 12:56 29,4 C 25,6 C 41,1 C 41 % 1015,8 hPa 0,0 l/m 9,0 km/h (2 Bft) S-SW 209 2 min 0,000 mm 4,9 UV-I 757 W/m 14,7 C 29,1 C 14,5 km/h (3 Bft) 100,00 %
20.08.2018 12:58 29,4 C 25,6 C 40,0 C 41 % 1015,8 hPa 0,0 l/m 10,1 km/h (2 Bft) SW 227 2 min 0,000 mm 4,9 UV-I 761 W/m 14,7 C 29,0 C 16,1 km/h (3 Bft) 100,00 %
20.08.2018 13:00 29,3 C 25,6 C 40,0 C 41 % 1015,8 hPa 0,0 l/m 9,7 km/h (2 Bft) W-NW 287 2 min 0,559 mm 4,9 UV-I 762 W/m 14,7 C 28,9 C 14,5 km/h (3 Bft) 100,00 %
20.08.2018 13:02 29,3 C 25,6 C 40,6 C 42 % 1015,8 hPa 0,0 l/m 3,4 km/h (1 Bft) W 260 2 min 0,000 mm 4,9 UV-I 721 W/m 15,0 C 29,3 C 9,7 km/h (2 Bft) 100,00 %
20.08.2018 13:04 29,4 C 25,6 C 41,1 C 42 % 1015,8 hPa 0,0 l/m 7,8 km/h (2 Bft) W-SW 248 2 min 0,000 mm 4,9 UV-I 759 W/m 15,1 C 29,2 C 14,5 km/h (3 Bft) 100,00 %
20.08.2018 13:06 29,4 C 26,1 C 40,6 C 41 % 1015,8 hPa 0,0 l/m 13,2 km/h (3 Bft) W-SW 254 2 min 0,000 mm 4,9 UV-I 759 W/m 14,7 C 28,8 C 22,5 km/h (4 Bft) 100,00 %
20.08.2018 13:08 29,4 C 26,1 C 40,0 C 41 % 1015,7 hPa 0,0 l/m 11,9 km/h (2 Bft) W-NW 289 2 min 0,000 mm 4,9 UV-I 758 W/m 14,7 C 28,9 C 22,5 km/h (4 Bft) 100,00 %
20.08.2018 13:10 29,5 C 26,1 C 40,0 C 41 % 1015,7 hPa 0,0 l/m 6,2 km/h (2 Bft) NW 323 2 min 0,000 mm 4,9 UV-I 760 W/m 14,8 C 29,5 C 12,9 km/h (3 Bft) 100,00 %
20.08.2018 13:12 29,6 C 26,1 C 40,6 C 41 % 1015,7 hPa 0,0 l/m 4,5 km/h (1 Bft) N 349 2 min 0,000 mm 4,9 UV-I 759 W/m 14,9 C 29,6 C 9,7 km/h (2 Bft) 97,06 %
20.08.2018 13:14 29,8 C 26,1 C 41,1 C 40 % 1015,7 hPa 0,0 l/m 7,6 km/h (2 Bft) W 265 2 min 0,000 mm 4,9 UV-I 754 W/m 14,7 C 29,7 C 16,1 km/h (3 Bft) 100,00 %
20.08.2018 13:16 30,0 C 26,1 C 41,1 C 39 % 1015,7 hPa 0,0 l/m 8,6 km/h (2 Bft) NW 309 2 min 0,000 mm 4,8 UV-I 751 W/m 14,5 C 29,8 C 14,5 km/h (3 Bft) 100,00 %
20.08.2018 13:18 29,9 C 26,1 C 41,1 C 40 % 1015,6 hPa 0,0 l/m 3,4 km/h (1 Bft) W 269 2 min 0,000 mm 4,8 UV-I 753 W/m 14,8 C 29,9 C 4,8 km/h (1 Bft) 100,00 %
20.08.2018 13:20 30,1 C 26,1 C 41,7 C 39 % 1015,6 hPa 0,0 l/m 4,1 km/h (1 Bft) W-NW 282 2 min 0,000 mm 4,9 UV-I 756 W/m 14,6 C 30,1 C 8,0 km/h (2 Bft) 100,00 %
20.08.2018 13:22 30,1 C 26,1 C 41,7 C 38 % 1015,6 hPa 0,0 l/m 3,2 km/h (1 Bft) N-NO 17 2 min 0,000 mm 4,9 UV-I 759 W/m 14,2 C 30,1 C 6,4 km/h (2 Bft) 100,00 %
20.08.2018 13:24 29,9 C 26,1 C 41,1 C 39 % 1015,5 hPa 0,0 l/m 11,2 km/h (2 Bft) W 262 2 min 0,000 mm 4,9 UV-I 760 W/m 14,4 C 29,5 C 16,1 km/h (3 Bft) 100,00 %
20.08.2018 13:26 29,7 C 26,1 C 41,1 C 39 % 1015,5 hPa 0,0 l/m 4,1 km/h (1 Bft) W-SW 258 2 min 0,000 mm 4,8 UV-I 752 W/m 14,2 C 29,7 C 11,3 km/h (2 Bft) 100,00 %
20.08.2018 13:28 29,8 C 26,1 C 41,7 C 41 % 1015,5 hPa 0,0 l/m 4,1 km/h (1 Bft) W-SW 242 2 min 0,000 mm 4,8 UV-I 752 W/m 15,1 C 29,8 C 14,5 km/h (3 Bft) 100,00 %
20.08.2018 13:30 30,1 C 26,1 C 42,2 C 41 % 1015,4 hPa 0,0 l/m 8,0 km/h (2 Bft) W-SW 256 2 min 0,000 mm 4,8 UV-I 750 W/m 15,4 C 30,0 C 14,5 km/h (3 Bft) 100,00 %
20.08.2018 13:32 30,2 C 26,1 C 41,1 C 38 % 1015,5 hPa 0,0 l/m 11,7 km/h (2 Bft) W-NW 282 2 min 0,000 mm 4,9 UV-I 755 W/m 14,3 C 29,8 C 14,5 km/h (3 Bft) 100,00 %
20.08.2018 13:34 29,9 C 26,1 C 40,6 C 39 % 1015,4 hPa 0,0 l/m 9,4 km/h (2 Bft) NW 318 2 min 0,000 mm 4,9 UV-I 755 W/m 14,4 C 29,6 C 12,9 km/h (3 Bft) 100,00 %
20.08.2018 13:36 30,1 C 26,1 C 41,1 C 39 % 1015,4 hPa 0,0 l/m 7,4 km/h (2 Bft) SW 232 2 min 0,000 mm 4,9 UV-I 756 W/m 14,6 C 30,0 C 12,9 km/h (3 Bft) 100,00 %
20.08.2018 13:38 30,1 C 26,1 C 41,7 C 38 % 1015,4 hPa 0,0 l/m 5,5 km/h (1 Bft) W 281 2 min 0,000 mm 4,8 UV-I 753 W/m 14,2 C 30,1 C 14,5 km/h (3 Bft) 100,00 %
20.08.2018 13:40 30,2 C 26,1 C 41,7 C 38 % 1015,4 hPa 0,0 l/m 6,0 km/h (2 Bft) N-NW 330 2 min 0,000 mm 4,9 UV-I 756 W/m 14,3 C 30,2 C 11,3 km/h (2 Bft) 97,56 %
20.08.2018 13:42 30,2 C 26,1 C 41,7 C 37 % 1015,4 hPa 0,0 l/m 6,7 km/h (2 Bft) NW 325 2 min 0,000 mm 4,9 UV-I 755 W/m 13,9 C 30,2 C 9,7 km/h (2 Bft) 98,11 %
20.08.2018 13:44 30,1 C 26,1 C 41,7 C 36 % 1015,4 hPa 0,0 l/m 5,5 km/h (1 Bft) N 5 2 min 0,000 mm 4,8 UV-I 752 W/m 13,4 C 30,1 C 8,0 km/h (2 Bft) 94,74 %
20.08.2018 13:46 30,2 C 26,1 C 41,7 C 37 % 1015,4 hPa 0,0 l/m 6,5 km/h (2 Bft) N-NW 340 2 min 0,000 mm 4,8 UV-I 752 W/m 13,9 C 30,2 C 9,7 km/h (2 Bft) 97,87 %
20.08.2018 13:48 30,2 C 26,1 C 41,7 C 38 % 1015,3 hPa 0,0 l/m 4,0 km/h (1 Bft) N 11 2 min 0,000 mm 4,8 UV-I 752 W/m 14,3 C 30,2 C 6,4 km/h (2 Bft) 95,74 %
20.08.2018 13:50 30,3 C 26,1 C 41,7 C 37 % 1015,3 hPa 0,0 l/m 6,0 km/h (2 Bft) W-SW 244 2 min 0,000 mm 4,8 UV-I 751 W/m 14,0 C 30,3 C 11,3 km/h (2 Bft) 96,00 %
20.08.2018 13:52 30,5 C 26,1 C 41,7 C 38 % 1015,2 hPa 0,0 l/m 10,5 km/h (2 Bft) W-SW 253 2 min 0,000 mm 4,7 UV-I 742 W/m 14,5 C 30,2 C 17,7 km/h (3 Bft) 96,23 %
20.08.2018 13:54 30,6 C 26,1 C 41,7 C 39 % 1015,4 hPa 0,0 l/m 4,6 km/h (1 Bft) N-NW 336 2 min 0,000 mm 4,6 UV-I 730 W/m 15,0 C 30,6 C 11,3 km/h (2 Bft) 95,12 %
20.08.2018 13:56 30,6 C 26,1 C 41,7 C 37 % 1015,2 hPa 0,0 l/m 2,9 km/h (1 Bft) N 349 2 min 0,000 mm 4,6 UV-I 730 W/m 14,2 C 30,6 C 4,8 km/h (1 Bft) 95,12 %
20.08.2018 13:58 30,5 C 26,1 C 42,2 C 38 % 1015,2 hPa 0,0 l/m 5,2 km/h (1 Bft) N-NO 30 2 min 0,000 mm 4,7 UV-I 736 W/m 14,5 C 30,5 C 8,0 km/h (2 Bft) 96,23 %
20.08.2018 14:00 30,3 C 26,1 C 41,7 C 37 % 1015,1 hPa 0,0 l/m 6,3 km/h (2 Bft) N-NO 29 2 min 0,584 mm 4,7 UV-I 731 W/m 14,0 C 30,3 C 12,9 km/h (3 Bft) 95,83 %
20.08.2018 14:02 30,1 C 26,1 C 42,2 C 37 % 1015,1 hPa 0,0 l/m 5,0 km/h (1 Bft) NO 48 2 min 0,000 mm 4,6 UV-I 728 W/m 13,8 C 30,1 C 8,0 km/h (2 Bft) 93,75 %
20.08.2018 14:04 30,1 C 26,1 C 42,2 C 37 % 1015,1 hPa 0,0 l/m 1,8 km/h (1 Bft) NO 48 2 min 0,000 mm 4,5 UV-I 722 W/m 13,8 C 30,1 C 3,2 km/h (1 Bft) 94,00 %
20.08.2018 14:06 30,3 C 26,1 C 42,8 C 38 % 1015,0 hPa 0,0 l/m 6,1 km/h (2 Bft) W-NW 294 2 min 0,000 mm 4,5 UV-I 725 W/m 14,4 C 30,3 C 14,5 km/h (3 Bft) 92,00 %
20.08.2018 14:08 30,7 C 26,1 C 42,8 C 37 % 1015,1 hPa 0,0 l/m 5,7 km/h (1 Bft) N-NW 336 2 min 0,000 mm 4,6 UV-I 739 W/m 14,3 C 30,7 C 12,9 km/h (3 Bft) 92,86 %
20.08.2018 14:10 30,8 C 26,1 C 42,2 C 37 % 1015,1 hPa 0,0 l/m 8,1 km/h (2 Bft) N-NO 17 2 min 0,000 mm 4,6 UV-I 747 W/m 14,4 C 30,7 C 14,5 km/h (3 Bft) 94,34 %
20.08.2018 14:12 30,8 C 26,1 C 41,7 C 37 % 1015,0 hPa 0,0 l/m 9,8 km/h (2 Bft) N 10 2 min 0,000 mm 4,6 UV-I 747 W/m 14,4 C 30,6 C 14,5 km/h (3 Bft) 94,00 %
20.08.2018 14:14 31,2 C 26,1 C 41,7 C 36 % 1015,1 hPa 0,0 l/m 8,9 km/h (2 Bft) W 269 2 min 0,000 mm 4,6 UV-I 743 W/m 14,3 C 31,1 C 14,5 km/h (3 Bft) 95,45 %
20.08.2018 14:16 31,1 C 26,1 C 41,7 C 36 % 1015,0 hPa 0,0 l/m 3,3 km/h (1 Bft) N-NW 340 2 min 0,000 mm 4,4 UV-I 727 W/m 14,2 C 31,1 C 9,7 km/h (2 Bft) 93,62 %
20.08.2018 14:18 30,9 C 26,1 C 41,7 C 36 % 1015,0 hPa 0,0 l/m 5,8 km/h (2 Bft) W 270 2 min 0,000 mm 4,4 UV-I 727 W/m 14,1 C 30,9 C 9,7 km/h (2 Bft) 92,68 %
20.08.2018 14:20 30,5 C 26,1 C 41,7 C 36 % 1015,0 hPa 0,0 l/m 3,0 km/h (1 Bft) N 349 2 min 0,000 mm 4,4 UV-I 723 W/m 13,7 C 30,5 C 4,8 km/h (1 Bft) 95,74 %
20.08.2018 14:22 30,6 C 26,1 C 41,1 C 37 % 1015,0 hPa 0,0 l/m 3,7 km/h (1 Bft) N 11 2 min 0,000 mm 3,9 UV-I 731 W/m 14,2 C 30,6 C 9,7 km/h (2 Bft) 94,00 %
20.08.2018 14:24 30,6 C 26,1 C 40,0 C 36 % 1015,0 hPa 0,0 l/m 4,5 km/h (1 Bft) NW 315 2 min 0,000 mm 4,1 UV-I 694 W/m 13,8 C 30,6 C 12,9 km/h (3 Bft) 96,00 %
20.08.2018 14:26 30,4 C 26,1 C 39,4 C 36 % 1014,9 hPa 0,0 l/m 1,8 km/h (1 Bft) W 264 2 min 0,000 mm 3,5 UV-I 680 W/m 13,6 C 30,4 C 4,8 km/h (1 Bft) 94,74 %
20.08.2018 14:28 30,6 C 26,1 C 40,6 C 37 % 1015,0 hPa 0,0 l/m 6,5 km/h (2 Bft) W-SW 257 2 min 0,000 mm 4,3 UV-I 723 W/m 14,2 C 30,6 C 12,9 km/h (3 Bft) 98,11 %
20.08.2018 14:30 30,6 C 26,1 C 40,6 C 37 % 1014,9 hPa 0,0 l/m 5,0 km/h (1 Bft) W 263 2 min 0,000 mm 4,3 UV-I 728 W/m 14,2 C 30,6 C 9,7 km/h (2 Bft) 95,12 %
20.08.2018 14:32 30,6 C 26,1 C 41,7 C 36 % 1014,9 hPa 0,0 l/m 6,9 km/h (2 Bft) W-NW 282 2 min 0,000 mm 4,3 UV-I 723 W/m 13,8 C 30,6 C 14,5 km/h (3 Bft) 97,87 %
20.08.2018 14:34 30,8 C 26,1 C 41,7 C 37 % 1014,9 hPa 0,0 l/m 8,7 km/h (2 Bft) W-SW 243 2 min 0,000 mm 4,3 UV-I 729 W/m 14,4 C 30,6 C 14,5 km/h (3 Bft) 97,87 %
20.08.2018 14:36 30,8 C 26,1 C 42,2 C 36 % 1014,9 hPa 0,0 l/m 8,7 km/h (2 Bft) W-SW 257 2 min 0,000 mm 4,3 UV-I 734 W/m 14,0 C 30,6 C 12,9 km/h (3 Bft) 98,21 %
20.08.2018 14:38 30,9 C 26,1 C 41,7 C 37 % 1014,9 hPa 0,0 l/m 10,0 km/h (2 Bft) SW 225 2 min 0,000 mm 4,3 UV-I 738 W/m 14,5 C 30,7 C 17,7 km/h (3 Bft) 97,87 %
20.08.2018 14:40 31,1 C 26,1 C 42,2 C 37 % 1014,9 hPa 0,0 l/m 8,2 km/h (2 Bft) W 269 2 min 0,000 mm 4,4 UV-I 744 W/m 14,7 C 31,0 C 14,5 km/h (3 Bft) 97,73 %
20.08.2018 14:42 31,3 C 26,1 C 41,7 C 35 % 1014,9 hPa 0,0 l/m 5,9 km/h (2 Bft) N 355 2 min 0,000 mm 4,2 UV-I 735 W/m 14,0 C 31,3 C 11,3 km/h (2 Bft) 97,62 %
20.08.2018 14:44 31,3 C 26,1 C 41,7 C 35 % 1014,9 hPa 0,0 l/m 10,8 km/h (2 Bft) N-NW 330 2 min 0,000 mm 4,1 UV-I 725 W/m 14,0 C 31,1 C 16,1 km/h (3 Bft) 96,15 %
20.08.2018 14:46 31,1 C 26,1 C 41,7 C 35 % 1014,8 hPa 0,0 l/m 6,3 km/h (2 Bft) W 281 2 min 0,000 mm 4,1 UV-I 726 W/m 13,8 C 31,1 C 11,3 km/h (2 Bft) 97,62 %
20.08.2018 14:48 30,9 C 26,1 C 41,1 C 35 % 1014,9 hPa 0,0 l/m 7,0 km/h (2 Bft) N 10 2 min 0,000 mm 4,1 UV-I 730 W/m 13,6 C 30,9 C 14,5 km/h (3 Bft) 95,74 %
20.08.2018 14:50 31,0 C 26,1 C 41,7 C 35 % 1014,8 hPa 0,0 l/m 7,3 km/h (2 Bft) W-NW 290 2 min 0,000 mm 4,0 UV-I 725 W/m 13,7 C 30,9 C 12,9 km/h (3 Bft) 100,00 %
20.08.2018 14:52 30,9 C 26,1 C 41,1 C 36 % 1014,8 hPa 0,0 l/m 5,9 km/h (2 Bft) N-NO 13 2 min 0,000 mm 4,0 UV-I 716 W/m 14,1 C 30,9 C 9,7 km/h (2 Bft) 100,00 %
20.08.2018 14:54 31,0 C 26,1 C 41,1 C 36 % 1014,8 hPa 0,0 l/m 7,1 km/h (2 Bft) N 5 2 min 0,000 mm 3,9 UV-I 697 W/m 14,2 C 31,0 C 14,5 km/h (3 Bft) 97,87 %
20.08.2018 14:56 31,1 C 26,1 C 40,6 C 36 % 1014,9 hPa 0,0 l/m 9,8 km/h (2 Bft) N-NW 344 2 min 0,000 mm 3,8 UV-I 697 W/m 14,2 C 30,9 C 16,1 km/h (3 Bft) 100,00 %
20.08.2018 14:58 31,1 C 26,1 C 40,6 C 35 % 1014,8 hPa 0,0 l/m 8,5 km/h (2 Bft) N 355 2 min 0,000 mm 3,9 UV-I 709 W/m 13,8 C 31,0 C 12,9 km/h (3 Bft) 97,37 %
20.08.2018 15:00 31,1 C 26,1 C 40,6 C 36 % 1014,7 hPa 0,0 l/m 11,9 km/h (2 Bft) N-NO 28 2 min 0,000 mm 3,9 UV-I 714 W/m 14,2 C 30,8 C 16,1 km/h (3 Bft) 100,00 %
20.08.2018 15:02 31,2 C 26,1 C 41,1 C 36 % 1014,7 hPa 0,0 l/m 6,8 km/h (2 Bft) SW 226 2 min 0,559 mm 3,9 UV-I 708 W/m 14,3 C 31,2 C 12,9 km/h (3 Bft) 100,00 %
20.08.2018 15:04 31,2 C 26,7 C 41,7 C 35 % 1014,7 hPa 0,0 l/m 6,8 km/h (2 Bft) W-SW 250 2 min 0,000 mm 3,9 UV-I 697 W/m 13,9 C 31,2 C 12,9 km/h (3 Bft) 100,00 %
20.08.2018 15:06 31,3 C 26,7 C 41,7 C 36 % 1014,8 hPa 0,0 l/m 8,3 km/h (2 Bft) W 265 2 min 0,000 mm 3,8 UV-I 688 W/m 14,4 C 31,2 C 16,1 km/h (3 Bft) 100,00 %
20.08.2018 15:08 31,3 C 26,7 C 41,1 C 36 % 1014,7 hPa 0,0 l/m 7,4 km/h (2 Bft) N 355 2 min 0,000 mm 3,7 UV-I 683 W/m 14,4 C 31,2 C 14,5 km/h (3 Bft) 100,00 %
20.08.2018 15:10 31,3 C 26,7 C 41,7 C 35 % 1014,7 hPa 0,0 l/m 5,4 km/h (1 Bft) NW 306 2 min 0,000 mm 3,7 UV-I 679 W/m 14,0 C 31,3 C 14,5 km/h (3 Bft) 100,00 %
20.08.2018 15:12 31,3 C 26,7 C 41,7 C 36 % 1014,7 hPa 0,0 l/m 4,1 km/h (1 Bft) W-NW 294 2 min 0,000 mm 3,6 UV-I 666 W/m 14,4 C 31,3 C 9,7 km/h (2 Bft) 97,37 %
20.08.2018 15:14 31,2 C 26,7 C 41,7 C 34 % 1014,7 hPa 0,0 l/m 7,8 km/h (2 Bft) W 280 2 min 0,000 mm 3,6 UV-I 665 W/m 13,4 C 31,1 C 16,1 km/h (3 Bft) 100,00 %
20.08.2018 15:16 31,1 C 26,7 C 40,6 C 34 % 1014,7 hPa 0,0 l/m 10,9 km/h (2 Bft) W-NW 287 2 min 0,000 mm 3,5 UV-I 655 W/m 13,4 C 30,9 C 19,3 km/h (3 Bft) 100,00 %
20.08.2018 15:18 31,3 C 26,7 C 41,1 C 35 % 1014,7 hPa 0,0 l/m 5,4 km/h (1 Bft) N 10 2 min 0,000 mm 3,5 UV-I 650 W/m 14,0 C 31,3 C 11,3 km/h (2 Bft) 100,00 %
20.08.2018 15:20 31,3 C 26,7 C 41,1 C 35 % 1014,7 hPa 0,0 l/m 10,0 km/h (2 Bft) N 11 2 min 0,000 mm 3,5 UV-I 650 W/m 14,0 C 31,1 C 14,5 km/h (3 Bft) 100,00 %
20.08.2018 15:22 31,2 C 26,7 C 40,6 C 35 % 1014,6 hPa 0,0 l/m 6,4 km/h (2 Bft) W 278 2 min 0,000 mm 3,4 UV-I 636 W/m 13,9 C 31,2 C 14,5 km/h (3 Bft) 100,00 %
20.08.2018 15:24 31,2 C 26,7 C 41,7 C 34 % 1014,6 hPa 0,0 l/m 4,0 km/h (1 Bft) NO 37 2 min 0,000 mm 3,3 UV-I 624 W/m 13,4 C 31,2 C 9,7 km/h (2 Bft) 100,00 %
20.08.2018 15:26 31,2 C 26,7 C 41,1 C 35 % 1014,6 hPa 0,0 l/m 4,6 km/h (1 Bft) NW 318 2 min 0,000 mm 3,3 UV-I 633 W/m 13,9 C 31,2 C 8,0 km/h (2 Bft) 100,00 %
20.08.2018 15:29 31,2 C 26,7 C 40,6 C 35 % 1014,5 hPa 0,0 l/m 6,7 km/h (2 Bft) W-SW 240 3 min 0,000 mm 3,3 UV-I 636 W/m 13,9 C 31,2 C 12,9 km/h (3 Bft) 100,00 %
20.08.2018 15:30 31,2 C 26,7 C 40,6 C 35 % 1014,5 hPa 0,0 l/m 6,3 km/h (2 Bft) W-NW 295 1 min 0,000 mm 3,3 UV-I 636 W/m 13,9 C 31,2 C 11,3 km/h (2 Bft) 100,00 %
20.08.2018 15:32 31,3 C 26,7 C 41,1 C 35 % 1014,5 hPa 0,0 l/m 7,8 km/h (2 Bft) NW 305 2 min 0,000 mm 3,2 UV-I 624 W/m 14,0 C 31,2 C 12,9 km/h (3 Bft) 100,00 %
20.08.2018 15:34 31,3 C 26,7 C 41,1 C 34 % 1014,5 hPa 0,0 l/m 4,8 km/h (1 Bft) W 270 2 min 0,000 mm 3,2 UV-I 621 W/m 13,5 C 31,3 C 6,4 km/h (2 Bft) 100,00 %
20.08.2018 15:36 31,2 C 26,7 C 40,6 C 34 % 1014,5 hPa 0,0 l/m 8,3 km/h (2 Bft) W 268 2 min 0,000 mm 3,2 UV-I 624 W/m 13,4 C 31,1 C 12,9 km/h (3 Bft) 100,00 %
20.08.2018 15:38 31,0 C 26,7 C 40,6 C 35 % 1014,5 hPa 0,0 l/m 5,3 km/h (1 Bft) NW 315 2 min 0,000 mm 3,2 UV-I 616 W/m 13,7 C 31,0 C 9,7 km/h (2 Bft) 100,00 %
20.08.2018 15:40 31,0 C 26,7 C 40,6 C 34 % 1014,5 hPa 0,0 l/m 8,9 km/h (2 Bft) N 351 2 min 0,000 mm 3,1 UV-I 607 W/m 13,3 C 30,8 C 17,7 km/h (3 Bft) 100,00 %
20.08.2018 15:42 30,9 C 26,7 C 40,6 C 34 % 1014,5 hPa 0,0 l/m 4,4 km/h (1 Bft) W-SW 240 2 min 0,000 mm 3,1 UV-I 614 W/m 13,2 C 30,9 C 8,0 km/h (2 Bft) 100,00 %
20.08.2018 15:44 30,8 C 26,7 C 40,6 C 34 % 1014,4 hPa 0,0 l/m 4,4 km/h (1 Bft) W-SW 248 2 min 0,000 mm 3,0 UV-I 605 W/m 13,1 C 30,8 C 8,0 km/h (2 Bft) 94,34 %
20.08.2018 15:46 30,8 C 26,7 C 40,6 C 35 % 1014,4 hPa 0,0 l/m 6,0 km/h (2 Bft) NW 322 2 min 0,000 mm 2,9 UV-I 596 W/m 13,5 C 30,8 C 11,3 km/h (2 Bft) 93,62 %
20.08.2018 15:48 30,9 C 26,7 C 41,1 C 35 % 1014,5 hPa 0,0 l/m 4,3 km/h (1 Bft) NW 310 2 min 0,000 mm 2,9 UV-I 586 W/m 13,6 C 30,9 C 11,3 km/h (2 Bft) 96,00 %
20.08.2018 15:50 31,1 C 26,7 C 40,6 C 35 % 1014,5 hPa 0,0 l/m 8,9 km/h (2 Bft) W-SW 247 2 min 0,000 mm 2,8 UV-I 588 W/m 13,8 C 31,0 C 16,1 km/h (3 Bft) 94,00 %
20.08.2018 15:52 31,1 C 26,7 C 40,6 C 34 % 1014,5 hPa 0,0 l/m 11,0 km/h (2 Bft) W 261 2 min 0,000 mm 2,9 UV-I 598 W/m 13,4 C 30,9 C 17,7 km/h (3 Bft) 93,62 %
20.08.2018 15:54 31,2 C 26,7 C 40,6 C 34 % 1014,4 hPa 0,0 l/m 9,0 km/h (2 Bft) W-SW 242 2 min 0,000 mm 2,8 UV-I 593 W/m 13,4 C 31,1 C 16,1 km/h (3 Bft) 94,74 %
20.08.2018 15:56 31,2 C 26,7 C 40,6 C 34 % 1014,4 hPa 0,0 l/m 10,9 km/h (2 Bft) W-SW 248 2 min 0,000 mm 2,8 UV-I 593 W/m 13,4 C 31,0 C 17,7 km/h (3 Bft) 96,23 %
20.08.2018 15:58 31,1 C 26,7 C 40,6 C 32 % 1014,4 hPa 0,0 l/m 4,9 km/h (1 Bft) W-NW 291 2 min 0,000 mm 2,7 UV-I 578 W/m 12,4 C 31,1 C 14,5 km/h (3 Bft) 95,24 %
20.08.2018 16:00 31,1 C 26,7 C 40,6 C 33 % 1014,4 hPa 0,0 l/m 7,7 km/h (2 Bft) W-SW 251 2 min 0,000 mm 2,7 UV-I 580 W/m 12,9 C 31,0 C 14,5 km/h (3 Bft) 95,74 %
20.08.2018 16:02 31,1 C 26,7 C 40,0 C 32 % 1014,4 hPa 0,0 l/m 10,5 km/h (2 Bft) W 269 2 min 0,508 mm 2,6 UV-I 564 W/m 12,4 C 30,9 C 17,7 km/h (3 Bft) 93,62 %
20.08.2018 16:04 31,0 C 26,7 C 40,0 C 33 % 1014,4 hPa 0,0 l/m 8,0 km/h (2 Bft) W 273 2 min 0,000 mm 2,6 UV-I 572 W/m 12,8 C 30,9 C 16,1 km/h (3 Bft) 96,00 %
20.08.2018 16:06 30,9 C 26,7 C 40,0 C 33 % 1014,3 hPa 0,0 l/m 8,0 km/h (2 Bft) W-SW 244 2 min 0,000 mm 2,3 UV-I 523 W/m 12,7 C 30,8 C 14,5 km/h (3 Bft) 95,12 %
20.08.2018 16:08 30,9 C 26,7 C 39,4 C 33 % 1014,3 hPa 0,0 l/m 6,8 km/h (2 Bft) W 267 2 min 0,000 mm 2,3 UV-I 552 W/m 12,7 C 30,9 C 12,9 km/h (3 Bft) 88,68 %
20.08.2018 16:10 30,8 C 26,7 C 40,0 C 33 % 1014,3 hPa 0,0 l/m 6,0 km/h (2 Bft) W-NW 290 2 min 0,000 mm 2,3 UV-I 545 W/m 12,6 C 30,8 C 11,3 km/h (2 Bft) 92,68 %
20.08.2018 16:12 30,9 C 26,7 C 40,6 C 35 % 1014,3 hPa 0,0 l/m 2,2 km/h (1 Bft) N-NO 17 2 min 0,000 mm 2,3 UV-I 562 W/m 13,6 C 30,9 C 4,8 km/h (1 Bft) 96,00 %
20.08.2018 16:14 31,2 C 26,7 C 40,6 C 34 % 1014,2 hPa 0,0 l/m 3,0 km/h (1 Bft) N 11 2 min 0,000 mm 2,3 UV-I 552 W/m 13,4 C 31,2 C 6,4 km/h (2 Bft) 98,00 %
20.08.2018 16:16 31,5 C 26,7 C 41,1 C 35 % 1014,3 hPa 0,0 l/m 7,8 km/h (2 Bft) N 355 2 min 0,000 mm 2,3 UV-I 542 W/m 14,2 C 31,4 C 16,1 km/h (3 Bft) 97,87 %
20.08.2018 16:18 31,6 C 26,7 C 40,6 C 34 % 1014,2 hPa 0,0 l/m 6,3 km/h (2 Bft) N 355 2 min 0,000 mm 2,3 UV-I 538 W/m 13,8 C 31,6 C 12,9 km/h (3 Bft) 100,00 %
20.08.2018 16:20 31,6 C 26,7 C 40,0 C 34 % 1014,2 hPa 0,0 l/m 7,7 km/h (2 Bft) O-NO 62 2 min 0,000 mm 2,3 UV-I 534 W/m 13,8 C 31,5 C 14,5 km/h (3 Bft) 100,00 %
20.08.2018 16:22 31,6 C 26,7 C 40,6 C 35 % 1014,2 hPa 0,0 l/m 6,8 km/h (2 Bft) S-SW 208 2 min 0,000 mm 2,2 UV-I 527 W/m 14,2 C 31,6 C 11,3 km/h (2 Bft) 97,56 %
20.08.2018 16:24 31,7 C 26,7 C 40,6 C 34 % 1014,1 hPa 0,0 l/m 6,1 km/h (2 Bft) W-SW 252 2 min 0,000 mm 2,2 UV-I 518 W/m 13,9 C 31,7 C 11,3 km/h (2 Bft) 98,11 %
20.08.2018 16:26 31,7 C 26,7 C 40,6 C 33 % 1014,1 hPa 0,0 l/m 7,8 km/h (2 Bft) W 261 2 min 0,000 mm 2,2 UV-I 515 W/m 13,4 C 31,6 C 14,5 km/h (3 Bft) 100,00 %
20.08.2018 16:28 31,4 C 26,7 C 40,0 C 33 % 1014,1 hPa 0,0 l/m 9,2 km/h (2 Bft) W 275 2 min 0,000 mm 2,1 UV-I 513 W/m 13,2 C 31,3 C 14,5 km/h (3 Bft) 100,00 %
20.08.2018 16:30 31,2 C 26,7 C 40,6 C 33 % 1014,1 hPa 0,0 l/m 7,0 km/h (2 Bft) N-NO 32 2 min 0,000 mm 2,1 UV-I 513 W/m 13,0 C 31,2 C 11,3 km/h (2 Bft) 97,87 %
20.08.2018 16:32 31,2 C 26,7 C 40,6 C 34 % 1014,1 hPa 0,0 l/m 5,5 km/h (1 Bft) N-NW 336 2 min 0,000 mm 2,1 UV-I 517 W/m 13,4 C 31,2 C 9,7 km/h (2 Bft) 100,00 %
20.08.2018 16:34 31,2 C 26,7 C 40,6 C 33 % 1014,1 hPa 0,0 l/m 6,8 km/h (2 Bft) W-NW 301 2 min 0,000 mm 2,0 UV-I 513 W/m 13,0 C 31,2 C 11,3 km/h (2 Bft) 100,00 %
20.08.2018 16:36 31,2 C 26,7 C 40,6 C 35 % 1014,1 hPa 0,0 l/m 5,2 km/h (1 Bft) N-NW 343 2 min 0,000 mm 2,0 UV-I 510 W/m 13,9 C 31,2 C 8,0 km/h (2 Bft) 98,44 %
20.08.2018 16:39 31,4 C 26,7 C 40,6 C 34 % 1014,1 hPa 0,0 l/m 6,2 km/h (2 Bft) S-SW 205 3 min 0,000 mm 2,0 UV-I 504 W/m 13,6 C 31,4 C 11,3 km/h (2 Bft) 100,00 %
20.08.2018 16:40 31,4 C 26,7 C 40,6 C 33 % 1014,1 hPa 0,0 l/m 8,5 km/h (2 Bft) S-SW 203 1 min 0,000 mm 1,9 UV-I 494 W/m 13,2 C 31,3 C 11,3 km/h (2 Bft) 100,00 %
20.08.2018 16:42 31,5 C 26,7 C 41,7 C 34 % 1014,1 hPa 0,0 l/m 4,9 km/h (1 Bft) NO 38 2 min 0,000 mm 1,9 UV-I 492 W/m 13,7 C 31,5 C 9,7 km/h (2 Bft) 97,87 %
20.08.2018 16:44 31,7 C 26,7 C 40,6 C 32 % 1014,1 hPa 0,0 l/m 6,6 km/h (2 Bft) N-NO 21 2 min 0,000 mm 1,9 UV-I 490 W/m 12,9 C 31,7 C 16,1 km/h (3 Bft) 97,56 %
20.08.2018 16:46 31,6 C 26,7 C 40,6 C 33 % 1014,1 hPa 0,0 l/m 3,0 km/h (1 Bft) N-NW 348 2 min 0,000 mm 1,8 UV-I 487 W/m 13,3 C 31,6 C 6,4 km/h (2 Bft) 97,56 %
20.08.2018 16:48 31,5 C 26,7 C 40,6 C 33 % 1014,1 hPa 0,0 l/m 4,4 km/h (1 Bft) NW 321 2 min 0,000 mm 1,8 UV-I 482 W/m 13,2 C 31,5 C 11,3 km/h (2 Bft) 96,61 %
20.08.2018 16:50 31,6 C 26,7 C 41,1 C 34 % 1014,0 hPa 0,0 l/m 4,6 km/h (1 Bft) N 9 2 min 0,000 mm 1,7 UV-I 475 W/m 13,8 C 31,6 C 11,3 km/h (2 Bft) 97,14 %
20.08.2018 16:52 31,4 C 26,7 C 40,6 C 33 % 1014,1 hPa 0,0 l/m 7,8 km/h (2 Bft) N-NW 342 2 min 0,000 mm 1,7 UV-I 466 W/m 13,2 C 31,3 C 14,5 km/h (3 Bft) 96,00 %
20.08.2018 16:54 31,4 C 26,7 C 39,4 C 33 % 1014,1 hPa 0,0 l/m 7,2 km/h (2 Bft) N 351 2 min 0,000 mm 1,6 UV-I 458 W/m 13,2 C 31,4 C 12,9 km/h (3 Bft) 98,00 %
20.08.2018 16:56 31,4 C 26,7 C 39,4 C 34 % 1014,1 hPa 0,0 l/m 5,4 km/h (1 Bft) NW 313 2 min 0,000 mm 1,6 UV-I 455 W/m 13,6 C 31,4 C 12,9 km/h (3 Bft) 97,87 %
20.08.2018 16:58 31,3 C 26,7 C 39,4 C 33 % 1014,1 hPa 0,0 l/m 5,2 km/h (1 Bft) N-NW 343 2 min 0,000 mm 1,6 UV-I 449 W/m 13,1 C 31,3 C 9,7 km/h (2 Bft) 97,73 %
20.08.2018 17:00 31,2 C 26,7 C 38,9 C 33 % 1014,0 hPa 0,0 l/m 10,3 km/h (2 Bft) N-NO 15 2 min 0,432 mm 1,6 UV-I 446 W/m 13,0 C 31,0 C 14,5 km/h (3 Bft) 98,00 %
20.08.2018 17:02 31,1 C 26,7 C 38,9 C 33 % 1014,0 hPa 0,0 l/m 9,3 km/h (2 Bft) N 10 2 min 0,000 mm 1,5 UV-I 439 W/m 12,9 C 30,9 C 17,7 km/h (3 Bft) 97,56 %
20.08.2018 17:04 31,2 C 26,7 C 38,3 C 34 % 1014,0 hPa 0,0 l/m 5,7 km/h (1 Bft) N 11 2 min 0,000 mm 1,5 UV-I 427 W/m 13,4 C 31,2 C 11,3 km/h (2 Bft) 98,00 %
20.08.2018 17:06 31,3 C 26,7 C 38,3 C 34 % 1014,0 hPa 0,0 l/m 7,3 km/h (2 Bft) N-NO 14 2 min 0,000 mm 1,4 UV-I 410 W/m 13,5 C 31,3 C 12,9 km/h (3 Bft) 97,73 %
20.08.2018 17:08 31,3 C 26,7 C 38,3 C 34 % 1013,9 hPa 0,0 l/m 9,9 km/h (2 Bft) N 355 2 min 0,000 mm 1,4 UV-I 401 W/m 13,5 C 31,1 C 16,1 km/h (3 Bft) 96,43 %
20.08.2018 17:10 31,2 C 26,7 C 37,8 C 35 % 1013,9 hPa 0,0 l/m 10,6 km/h (2 Bft) N-NW 329 2 min 0,000 mm 1,4 UV-I 405 W/m 13,9 C 31,0 C 16,1 km/h (3 Bft) 97,87 %
20.08.2018 17:12 31,3 C 26,7 C 37,8 C 34 % 1014,0 hPa 0,0 l/m 6,2 km/h (2 Bft) N 360 2 min 0,000 mm 1,3 UV-I 404 W/m 13,5 C 31,3 C 11,3 km/h (2 Bft) 97,44 %
20.08.2018 17:14 31,3 C 26,7 C 38,3 C 33 % 1013,9 hPa 0,0 l/m 5,9 km/h (2 Bft) NW 306 2 min 0,000 mm 1,3 UV-I 395 W/m 13,1 C 31,3 C 12,9 km/h (3 Bft) 98,11 %
20.08.2018 17:16 31,3 C 26,7 C 37,8 C 33 % 1013,9 hPa 0,0 l/m 4,1 km/h (1 Bft) N-NO 19 2 min 0,000 mm 1,3 UV-I 386 W/m 13,1 C 31,3 C 8,0 km/h (2 Bft) 97,56 %
20.08.2018 17:18 31,2 C 26,7 C 37,8 C 33 % 1014,0 hPa 0,0 l/m 5,6 km/h (1 Bft) W 279 2 min 0,000 mm 1,3 UV-I 380 W/m 13,0 C 31,2 C 11,3 km/h (2 Bft) 100,00 %
20.08.2018 17:20 31,1 C 26,7 C 38,3 C 34 % 1014,0 hPa 0,0 l/m 5,2 km/h (1 Bft) W 267 2 min 0,000 mm 1,2 UV-I 372 W/m 13,4 C 31,1 C 16,1 km/h (3 Bft) 97,56 %
20.08.2018 17:22 31,0 C 26,7 C 38,9 C 34 % 1013,9 hPa 0,0 l/m 3,9 km/h (1 Bft) N-NW 344 2 min 0,000 mm 1,2 UV-I 368 W/m 13,3 C 31,0 C 6,4 km/h (2 Bft) 96,43 %
20.08.2018 17:24 30,9 C 26,7 C 38,3 C 33 % 1013,9 hPa 0,0 l/m 7,2 km/h (2 Bft) W-NW 298 2 min 0,000 mm 1,2 UV-I 364 W/m 12,7 C 30,8 C 12,9 km/h (3 Bft) 97,87 %
20.08.2018 17:26 30,8 C 26,7 C 38,3 C 33 % 1013,9 hPa 0,0 l/m 4,9 km/h (1 Bft) NW 315 2 min 0,000 mm 1,2 UV-I 363 W/m 12,6 C 30,8 C 6,4 km/h (2 Bft) 97,87 %
20.08.2018 17:28 30,8 C 26,7 C 38,3 C 34 % 1013,9 hPa 0,0 l/m 5,3 km/h (1 Bft) W-NW 302 2 min 0,000 mm 1,1 UV-I 358 W/m 13,1 C 30,8 C 12,9 km/h (3 Bft) 100,00 %
20.08.2018 17:30 30,8 C 26,7 C 37,8 C 33 % 1013,9 hPa 0,0 l/m 6,1 km/h (2 Bft) N 355 2 min 0,000 mm 1,1 UV-I 347 W/m 12,6 C 30,8 C 16,1 km/h (3 Bft) 100,00 %
20.08.2018 17:32 30,8 C 26,7 C 37,8 C 34 % 1013,8 hPa 0,0 l/m 6,9 km/h (2 Bft) W 259 2 min 0,000 mm 1,0 UV-I 336 W/m 13,1 C 30,8 C 12,9 km/h (3 Bft) 97,37 %
20.08.2018 17:34 30,7 C 26,7 C 37,8 C 34 % 1013,8 hPa 0,0 l/m 3,5 km/h (1 Bft) NO 36 2 min 0,000 mm 1,0 UV-I 330 W/m 13,0 C 30,7 C 11,3 km/h (2 Bft) 98,11 %
20.08.2018 17:36 30,8 C 26,7 C 37,2 C 33 % 1013,8 hPa 0,0 l/m 10,9 km/h (2 Bft) N-NW 333 2 min 0,000 mm 1,0 UV-I 321 W/m 12,6 C 30,5 C 16,1 km/h (3 Bft) 95,45 %
20.08.2018 17:38 30,8 C 26,7 C 37,2 C 34 % 1013,8 hPa 0,0 l/m 8,8 km/h (2 Bft) N-NW 341 2 min 0,000 mm 1,0 UV-I 321 W/m 13,1 C 30,6 C 12,9 km/h (3 Bft) 96,23 %
20.08.2018 17:40 30,8 C 26,7 C 36,7 C 34 % 1013,8 hPa 0,0 l/m 11,7 km/h (2 Bft) N-NO 23 2 min 0,000 mm 0,9 UV-I 318 W/m 13,1 C 30,5 C 17,7 km/h (3 Bft) 97,87 %
20.08.2018 17:42 30,8 C 26,7 C 36,7 C 34 % 1013,8 hPa 0,0 l/m 7,8 km/h (2 Bft) N-NO 26 2 min 0,000 mm 0,9 UV-I 312 W/m 13,1 C 30,7 C 12,9 km/h (3 Bft) 97,37 %
20.08.2018 17:44 30,7 C 26,7 C 36,1 C 34 % 1013,8 hPa 0,0 l/m 5,6 km/h (1 Bft) NW 305 2 min 0,000 mm 0,9 UV-I 313 W/m 13,0 C 30,7 C 12,9 km/h (3 Bft) 98,00 %
20.08.2018 17:46 30,8 C 26,7 C 36,7 C 35 % 1013,7 hPa 0,0 l/m 5,0 km/h (1 Bft) W 279 2 min 0,000 mm 0,9 UV-I 312 W/m 13,5 C 30,8 C 9,7 km/h (2 Bft) 98,00 %
20.08.2018 17:48 30,8 C 26,7 C 36,7 C 33 % 1013,7 hPa 0,0 l/m 3,0 km/h (1 Bft) NO 43 2 min 0,000 mm 0,8 UV-I 303 W/m 12,6 C 30,8 C 6,4 km/h (2 Bft) 94,87 %
20.08.2018 17:50 30,9 C 26,7 C 36,7 C 34 % 1013,7 hPa 0,0 l/m 4,9 km/h (1 Bft) N-NO 19 2 min 0,000 mm 0,8 UV-I 290 W/m 13,2 C 30,9 C 9,7 km/h (2 Bft) 94,55 %
20.08.2018 17:52 30,9 C 26,7 C 36,7 C 33 % 1013,7 hPa 0,0 l/m 4,3 km/h (1 Bft) N-NW 328 2 min 0,000 mm 0,8 UV-I 287 W/m 12,7 C 30,9 C 8,0 km/h (2 Bft) 94,00 %
20.08.2018 17:54 30,8 C 26,7 C 36,1 C 34 % 1013,7 hPa 0,0 l/m 6,0 km/h (2 Bft) W-NW 292 2 min 0,000 mm 0,7 UV-I 284 W/m 13,1 C 30,8 C 12,9 km/h (3 Bft) 93,33 %
20.08.2018 17:56 30,7 C 26,7 C 36,7 C 34 % 1013,7 hPa 0,0 l/m 3,4 km/h (1 Bft) NW 312 2 min 0,000 mm 0,7 UV-I 282 W/m 13,0 C 30,7 C 6,4 km/h (2 Bft) 94,74 %
20.08.2018 17:58 30,6 C 26,7 C 36,1 C 34 % 1013,7 hPa 0,0 l/m 6,9 km/h (2 Bft) N-NW 336 2 min 0,000 mm 0,7 UV-I 278 W/m 12,9 C 30,6 C 12,9 km/h (3 Bft) 96,00 %
20.08.2018 18:00 30,6 C 26,7 C 35,6 C 34 % 1013,7 hPa 0,0 l/m 6,1 km/h (2 Bft) N-NO 29 2 min 0,330 mm 0,7 UV-I 271 W/m 12,9 C 30,6 C 11,3 km/h (2 Bft) 93,62 %
20.08.2018 18:02 30,5 C 26,7 C 35,0 C 34 % 1013,7 hPa 0,0 l/m 7,6 km/h (2 Bft) N 355 2 min 0,000 mm 0,7 UV-I 261 W/m 12,8 C 30,4 C 14,5 km/h (3 Bft) 98,00 %
20.08.2018 18:04 30,5 C 26,7 C 35,0 C 34 % 1013,7 hPa 0,0 l/m 1,5 km/h (1 Bft) N 355 2 min 0,000 mm 0,7 UV-I 256 W/m 12,8 C 30,5 C 4,8 km/h (1 Bft) 98,00 %
20.08.2018 18:06 30,6 C 26,7 C 35,0 C 35 % 1013,6 hPa 0,0 l/m 3,1 km/h (1 Bft) W-SW 256 2 min 0,000 mm 0,6 UV-I 250 W/m 13,4 C 30,6 C 6,4 km/h (2 Bft) 97,37 %
20.08.2018 18:08 30,7 C 26,7 C 34,4 C 34 % 1013,7 hPa 0,0 l/m 4,4 km/h (1 Bft) W-SW 248 2 min 0,000 mm 0,6 UV-I 244 W/m 13,0 C 30,7 C 8,0 km/h (2 Bft) 98,00 %
20.08.2018 18:10 30,7 C 26,7 C 33,9 C 35 % 1013,7 hPa 0,0 l/m 2,0 km/h (1 Bft) W-NW 288 2 min 0,000 mm 0,6 UV-I 238 W/m 13,5 C 30,7 C 6,4 km/h (2 Bft) 97,56 %
20.08.2018 18:12 30,6 C 26,7 C 32,8 C 35 % 1013,6 hPa 0,0 l/m 3,5 km/h (1 Bft) NW 314 2 min 0,000 mm 0,6 UV-I 234 W/m 13,4 C 30,6 C 6,4 km/h (2 Bft) 96,00 %
20.08.2018 18:14 30,5 C 26,7 C 32,8 C 35 % 1013,6 hPa 0,0 l/m 4,5 km/h (1 Bft) NW 317 2 min 0,000 mm 0,5 UV-I 229 W/m 13,3 C 30,5 C 8,0 km/h (2 Bft) 97,87 %
20.08.2018 18:16 30,5 C 26,7 C 32,8 C 35 % 1013,6 hPa 0,0 l/m 5,0 km/h (1 Bft) N 5 2 min 0,000 mm 0,5 UV-I 225 W/m 13,3 C 30,5 C 8,0 km/h (2 Bft) 97,87 %
20.08.2018 18:18 30,4 C 26,7 C 32,2 C 34 % 1013,6 hPa 0,0 l/m 4,8 km/h (1 Bft) NW 324 2 min 0,000 mm 0,5 UV-I 220 W/m 12,7 C 30,4 C 6,4 km/h (2 Bft) 97,87 %
20.08.2018 18:20 30,4 C 26,7 C 32,2 C 35 % 1013,6 hPa 0,0 l/m 4,2 km/h (1 Bft) W-NW 291 2 min 0,000 mm 0,5 UV-I 215 W/m 13,2 C 30,4 C 6,4 km/h (2 Bft) 97,56 %
20.08.2018 18:22 30,4 C 26,7 C 32,2 C 35 % 1013,6 hPa 0,0 l/m 2,9 km/h (1 Bft) NW 308 2 min 0,000 mm 0,5 UV-I 208 W/m 13,2 C 30,4 C 4,8 km/h (1 Bft) 100,00 %
20.08.2018 18:24 30,4 C 26,7 C 32,2 C 35 % 1013,5 hPa 0,0 l/m 5,7 km/h (1 Bft) N-NO 30 2 min 0,000 mm 0,3 UV-I 199 W/m 13,2 C 30,4 C 8,0 km/h (2 Bft) 96,67 %
20.08.2018 18:26 30,3 C 26,7 C 31,7 C 36 % 1013,5 hPa 0,0 l/m 4,8 km/h (1 Bft) N 9 2 min 0,000 mm 0,0 UV-I 192 W/m 13,5 C 30,3 C 11,3 km/h (2 Bft) 98,57 %
20.08.2018 18:28 30,3 C 26,7 C 31,1 C 36 % 1013,6 hPa 0,0 l/m 3,7 km/h (1 Bft) N 355 2 min 0,000 mm 0,0 UV-I 188 W/m 13,5 C 30,3 C 6,4 km/h (2 Bft) 100,00 %
20.08.2018 18:30 30,2 C 26,7 C 30,6 C 36 % 1013,6 hPa 0,0 l/m 5,7 km/h (1 Bft) N 5 2 min 0,000 mm 0,0 UV-I 184 W/m 13,4 C 30,2 C 8,0 km/h (2 Bft) 100,00 %
20.08.2018 18:32 30,2 C 26,7 C 30,0 C 36 % 1013,5 hPa 0,0 l/m 7,2 km/h (2 Bft) NO 34 2 min 0,000 mm 0,0 UV-I 181 W/m 13,4 C 30,1 C 12,9 km/h (3 Bft) 100,00 %
20.08.2018 18:34 30,1 C 26,7 C 30,0 C 37 % 1013,6 hPa 0,0 l/m 6,8 km/h (2 Bft) N-NW 331 2 min 0,000 mm 0,0 UV-I 177 W/m 13,8 C 30,1 C 9,7 km/h (2 Bft) 100,00 %
20.08.2018 18:36 30,1 C 26,7 C 30,0 C 37 % 1013,6 hPa 0,0 l/m 6,7 km/h (2 Bft) N 355 2 min 0,000 mm 0,0 UV-I 171 W/m 13,8 C 30,1 C 11,3 km/h (2 Bft) 100,00 %
20.08.2018 18:38 30,1 C 26,7 C 29,4 C 36 % 1013,5 hPa 0,0 l/m 5,4 km/h (1 Bft) N-NO 30 2 min 0,000 mm 0,0 UV-I 166 W/m 13,4 C 30,1 C 8,0 km/h (2 Bft) 98,00 %
20.08.2018 18:40 29,9 C 26,7 C 29,4 C 37 % 1013,6 hPa 0,0 l/m 5,0 km/h (1 Bft) N-NO 20 2 min 0,000 mm 0,0 UV-I 161 W/m 13,6 C 29,9 C 8,0 km/h (2 Bft) 100,00 %
20.08.2018 18:42 29,9 C 26,7 C 29,4 C 37 % 1013,6 hPa 0,0 l/m 3,7 km/h (1 Bft) N-NO 12 2 min 0,000 mm 0,0 UV-I 155 W/m 13,6 C 29,9 C 6,4 km/h (2 Bft) 97,87 %
20.08.2018 18:44 29,9 C 26,7 C 28,9 C 37 % 1013,6 hPa 0,0 l/m 4,9 km/h (1 Bft) N-NO 26 2 min 0,000 mm 0,0 UV-I 151 W/m 13,6 C 29,9 C 9,7 km/h (2 Bft) 96,23 %
20.08.2018 18:46 29,8 C 26,7 C 28,9 C 37 % 1013,5 hPa 0,0 l/m 5,0 km/h (1 Bft) W-NW 299 2 min 0,000 mm 0,0 UV-I 147 W/m 13,5 C 29,8 C 12,9 km/h (3 Bft) 100,00 %
20.08.2018 18:48 29,8 C 26,7 C 28,9 C 37 % 1013,4 hPa 0,0 l/m 5,8 km/h (2 Bft) NO 44 2 min 0,000 mm 0,0 UV-I 142 W/m 13,5 C 29,8 C 12,9 km/h (3 Bft) 100,00 %
20.08.2018 18:50 29,8 C 26,7 C 28,9 C 37 % 1013,5 hPa 0,0 l/m 6,1 km/h (2 Bft) N-NO 24 2 min 0,000 mm 0,0 UV-I 135 W/m 13,5 C 29,8 C 12,9 km/h (3 Bft) 100,00 %
20.08.2018 18:52 29,7 C 26,7 C 28,9 C 37 % 1013,6 hPa 0,0 l/m 5,1 km/h (1 Bft) N-NO 24 2 min 0,000 mm 0,0 UV-I 131 W/m 13,4 C 29,7 C 8,0 km/h (2 Bft) 97,56 %
20.08.2018 18:54 29,7 C 26,7 C 28,3 C 38 % 1013,5 hPa 0,0 l/m 4,3 km/h (1 Bft) N 10 2 min 0,000 mm 0,0 UV-I 127 W/m 13,8 C 29,7 C 6,4 km/h (2 Bft) 98,21 %
20.08.2018 18:56 29,6 C 26,7 C 28,3 C 37 % 1013,5 hPa 0,0 l/m 4,9 km/h (1 Bft) N 9 2 min 0,000 mm 0,0 UV-I 122 W/m 13,3 C 29,6 C 9,7 km/h (2 Bft) 100,00 %
20.08.2018 18:58 29,6 C 26,7 C 28,3 C 37 % 1013,5 hPa 0,0 l/m 6,4 km/h (2 Bft) N-NO 22 2 min 0,000 mm 0,0 UV-I 118 W/m 13,3 C 29,6 C 12,9 km/h (3 Bft) 100,00 %
20.08.2018 19:00 29,5 C 26,7 C 28,3 C 38 % 1013,5 hPa 0,0 l/m 7,4 km/h (2 Bft) N-NO 13 2 min 0,000 mm 0,0 UV-I 113 W/m 13,7 C 29,4 C 11,3 km/h (2 Bft) 100,00 %
20.08.2018 19:02 29,4 C 26,7 C 28,3 C 38 % 1013,5 hPa 0,0 l/m 5,4 km/h (1 Bft) N-NW 348 2 min 0,178 mm 0,0 UV-I 109 W/m 13,6 C 29,4 C 17,7 km/h (3 Bft) 100,00 %
20.08.2018 19:04 29,3 C 26,7 C 28,3 C 38 % 1013,5 hPa 0,0 l/m 8,6 km/h (2 Bft) N-NO 17 2 min 0,000 mm 0,0 UV-I 103 W/m 13,5 C 29,1 C 16,1 km/h (3 Bft) 98,00 %
20.08.2018 19:06 29,2 C 26,7 C 27,8 C 38 % 1013,5 hPa 0,0 l/m 4,4 km/h (1 Bft) N-NO 15 2 min 0,000 mm 0,0 UV-I 98 W/m 13,4 C 29,2 C 8,0 km/h (2 Bft) 100,00 %
20.08.2018 19:08 29,2 C 26,7 C 27,8 C 38 % 1013,5 hPa 0,0 l/m 3,6 km/h (1 Bft) N-NO 19 2 min 0,000 mm 0,0 UV-I 93 W/m 13,4 C 29,2 C 6,4 km/h (2 Bft) 100,00 %
20.08.2018 19:10 29,2 C 26,7 C 27,8 C 39 % 1013,6 hPa 0,0 l/m 3,2 km/h (1 Bft) N 5 2 min 0,000 mm 0,0 UV-I 89 W/m 13,8 C 29,2 C 9,7 km/h (2 Bft) 100,00 %
20.08.2018 19:12 29,1 C 26,7 C 27,8 C 39 % 1013,5 hPa 0,0 l/m 5,4 km/h (1 Bft) N 5 2 min 0,000 mm 0,0 UV-I 84 W/m 13,7 C 29,1 C 8,0 km/h (2 Bft) 100,00 %
20.08.2018 19:14 28,9 C 26,7 C 27,8 C 39 % 1013,5 hPa 0,0 l/m 5,3 km/h (1 Bft) N-NO 12 2 min 0,000 mm 0,0 UV-I 81 W/m 13,5 C 28,9 C 8,0 km/h (2 Bft) 100,00 %
20.08.2018 19:16 28,9 C 26,7 C 27,2 C 39 % 1013,6 hPa 0,0 l/m 4,9 km/h (1 Bft) N-NO 15 2 min 0,000 mm 0,0 UV-I 77 W/m 13,5 C 28,9 C 8,0 km/h (2 Bft) 97,37 %
20.08.2018 19:18 28,8 C 26,7 C 27,2 C 39 % 1013,6 hPa 0,0 l/m 4,5 km/h (1 Bft) N 9 2 min 0,000 mm 0,0 UV-I 74 W/m 13,4 C 28,8 C 6,4 km/h (2 Bft) 94,34 %
20.08.2018 19:20 28,8 C 26,7 C 27,2 C 40 % 1013,6 hPa 0,0 l/m 3,1 km/h (1 Bft) N-NO 13 2 min 0,000 mm 0,0 UV-I 71 W/m 13,8 C 28,8 C 6,4 km/h (2 Bft) 97,56 %
20.08.2018 19:22 28,8 C 26,7 C 27,2 C 40 % 1013,6 hPa 0,0 l/m 1,7 km/h (1 Bft) N-NO 13 2 min 0,000 mm 0,0 UV-I 68 W/m 13,8 C 28,8 C 3,2 km/h (1 Bft) 97,87 %
20.08.2018 19:24 28,7 C 26,7 C 26,7 C 40 % 1013,6 hPa 0,0 l/m 1,2 km/h (1 Bft) N-NO 13 2 min 0,000 mm 0,0 UV-I 63 W/m 13,7 C 28,7 C 3,2 km/h (1 Bft) 98,21 %
20.08.2018 19:26 28,7 C 26,7 C 26,1 C 40 % 1013,6 hPa 0,0 l/m 1,6 km/h (1 Bft) N-NO 13 2 min 0,000 mm 0,0 UV-I 60 W/m 13,7 C 28,7 C 3,2 km/h (1 Bft) 97,37 %
20.08.2018 19:28 28,6 C 26,7 C 26,1 C 40 % 1013,6 hPa 0,0 l/m 0,8 km/h (0 Bft) N-NO 14 2 min 0,000 mm 0,0 UV-I 56 W/m 13,7 C 28,6 C 3,2 km/h (1 Bft) 98,00 %
20.08.2018 19:30 28,5 C 26,7 C 26,1 C 41 % 1013,6 hPa 0,0 l/m 3,2 km/h (1 Bft) N 9 2 min 0,000 mm 0,0 UV-I 54 W/m 13,9 C 28,5 C 4,8 km/h (1 Bft) 96,00 %
20.08.2018 19:32 28,4 C 26,7 C 25,6 C 41 % 1013,6 hPa 0,0 l/m 4,2 km/h (1 Bft) N 355 2 min 0,000 mm 0,0 UV-I 51 W/m 13,9 C 28,4 C 6,4 km/h (2 Bft) 100,00 %
20.08.2018 19:34 28,3 C 26,7 C 25,6 C 41 % 1013,6 hPa 0,0 l/m 3,3 km/h (1 Bft) N 350 2 min 0,000 mm 0,0 UV-I 48 W/m 13,8 C 28,3 C 8,0 km/h (2 Bft) 98,51 %
20.08.2018 19:36 28,2 C 26,7 C 26,1 C 41 % 1013,6 hPa 0,0 l/m 1,8 km/h (1 Bft) NW 318 2 min 0,000 mm 0,0 UV-I 45 W/m 13,7 C 28,2 C 6,4 km/h (2 Bft) 96,23 %
20.08.2018 19:38 28,2 C 26,7 C 25,6 C 42 % 1013,6 hPa 0,0 l/m 1,9 km/h (1 Bft) NW 318 2 min 0,000 mm 0,0 UV-I 42 W/m 14,0 C 28,2 C 3,2 km/h (1 Bft) 96,00 %
20.08.2018 19:40 28,1 C 26,7 C 25,0 C 42 % 1013,7 hPa 0,0 l/m 0,3 km/h (0 Bft) NW 318 2 min 0,000 mm 0,0 UV-I 38 W/m 14,0 C 28,1 C 1,6 km/h (1 Bft) 97,87 %
20.08.2018 19:42 28,0 C 26,7 C 24,4 C 42 % 1013,7 hPa 0,0 l/m 0,3 km/h (0 Bft) NW 319 2 min 0,000 mm 0,0 UV-I 35 W/m 13,9 C 28,0 C 3,2 km/h (1 Bft) 100,00 %
20.08.2018 19:44 27,9 C 26,7 C 24,4 C 42 % 1013,7 hPa 0,0 l/m 1,3 km/h (1 Bft) NW 319 2 min 0,000 mm 0,0 UV-I 33 W/m 13,8 C 27,9 C 3,2 km/h (1 Bft) 95,83 %
20.08.2018 19:46 27,8 C 26,7 C 24,4 C 43 % 1013,7 hPa 0,0 l/m 0,4 km/h (0 Bft) NW 319 2 min 0,000 mm 0,0 UV-I 29 W/m 14,1 C 27,8 C 1,6 km/h (1 Bft) 98,39 %
20.08.2018 19:48 27,8 C 26,7 C 23,9 C 43 % 1013,7 hPa 0,0 l/m 0,0 km/h (0 Bft) NW 319 2 min 0,000 mm 0,0 UV-I 26 W/m 14,1 C 27,8 C 0,0 km/h (0 Bft) 97,87 %
20.08.2018 19:50 27,7 C 26,7 C 23,3 C 43 % 1013,7 hPa 0,0 l/m 0,1 km/h (0 Bft) NW 319 2 min 0,000 mm 0,0 UV-I 24 W/m 14,0 C 27,7 C 1,6 km/h (1 Bft) 97,87 %
20.08.2018 19:52 27,6 C 26,7 C 23,3 C 43 % 1013,8 hPa 0,0 l/m 0,6 km/h (0 Bft) NW 319 2 min 0,000 mm 0,0 UV-I 20 W/m 13,9 C 27,6 C 3,2 km/h (1 Bft) 95,45 %
20.08.2018 19:54 27,5 C 26,7 C 22,8 C 44 % 1013,8 hPa 0,0 l/m 0,6 km/h (0 Bft) NW 319 2 min 0,000 mm 0,0 UV-I 17 W/m 14,1 C 27,5 C 1,6 km/h (1 Bft) 94,00 %
20.08.2018 19:56 27,3 C 26,7 C 22,8 C 44 % 1013,8 hPa 0,0 l/m 0,0 km/h (0 Bft) NW 319 2 min 0,000 mm 0,0 UV-I 16 W/m 14,0 C 27,3 C 0,0 km/h (0 Bft) 93,62 %
20.08.2018 19:58 27,2 C 26,7 C 22,8 C 44 % 1013,9 hPa 0,0 l/m 0,0 km/h (0 Bft) NW 319 0 min 0,000 mm 0,0 UV-I 14 W/m 13,9 C 27,2 C 0,0 km/h (0 Bft) 94,00 %
20.08.2018 20:00 27,2 C 26,7 C 22,2 C 44 % 1013,9 hPa 0,0 l/m 0,0 km/h (0 Bft) NW 319 0 min 0,076 mm 0,0 UV-I 12 W/m 13,9 C 27,2 C 0,0 km/h (0 Bft) 96,00 %
20.08.2018 20:02 27,2 C 26,7 C 22,2 C 44 % 1013,9 hPa 0,0 l/m 0,5 km/h (0 Bft) NW 319 0 min 0,000 mm 0,0 UV-I 12 W/m 13,9 C 27,2 C 3,2 km/h (1 Bft) 92,11 %
20.08.2018 20:04 27,1 C 26,7 C 21,7 C 45 % 1013,9 hPa 0,0 l/m 0,0 km/h (0 Bft) NW 319 0 min 0,000 mm 0,0 UV-I 11 W/m 14,1 C 27,1 C 0,0 km/h (0 Bft) 94,64 %
20.08.2018 20:06 26,9 C 26,7 C 21,7 C 45 % 1013,9 hPa 0,0 l/m 0,0 km/h (0 Bft) NW 319 0 min 0,000 mm 0,0 UV-I 10 W/m 13,9 C 26,9 C 0,0 km/h (0 Bft) 94,74 %
20.08.2018 20:08 26,9 C 26,7 C 21,7 C 45 % 1013,9 hPa 0,0 l/m 0,0 km/h (0 Bft) NW 319 0 min 0,000 mm 0,0 UV-I 9 W/m 13,9 C 26,9 C 0,0 km/h (0 Bft) 94,00 %
20.08.2018 20:10 26,8 C 26,7 C 21,7 C 46 % 1013,9 hPa 0,0 l/m 0,2 km/h (0 Bft) NW 319 0 min 0,000 mm 0,0 UV-I 8 W/m 14,2 C 26,8 C 1,6 km/h (1 Bft) 94,34 %
20.08.2018 20:12 26,6 C 26,7 C 21,1 C 47 % 1014,0 hPa 0,0 l/m 0,0 km/h (0 Bft) NW 319 0 min 0,000 mm 0,0 UV-I 7 W/m 14,3 C 26,6 C 0,0 km/h (0 Bft) 97,14 %
20.08.2018 20:14 26,5 C 26,7 C 21,1 C 48 % 1014,0 hPa 0,0 l/m 0,0 km/h (0 Bft) NW 319 0 min 0,000 mm 0,0 UV-I 7 W/m 14,6 C 26,5 C 0,0 km/h (0 Bft) 94,34 %
20.08.2018 20:16 26,5 C 26,7 C 21,1 C 48 % 1014,1 hPa 0,0 l/m 0,1 km/h (0 Bft) NW 319 0 min 0,000 mm 0,0 UV-I 5 W/m 14,6 C 26,5 C 1,6 km/h (1 Bft) 98,00 %
20.08.2018 20:19 26,4 C 26,7 C 21,1 C 48 % 1014,1 hPa 0,0 l/m 0,5 km/h (0 Bft) NW 319 0 min 0,000 mm 0,0 UV-I 5 W/m 14,5 C 26,4 C 1,6 km/h (1 Bft) 97,18 %
20.08.2018 20:20 26,4 C 26,7 C 21,1 C 48 % 1014,1 hPa 0,0 l/m 0,9 km/h (0 Bft) NW 319 0 min 0,000 mm 0,0 UV-I 5 W/m 14,5 C 26,4 C 3,2 km/h (1 Bft) 95,65 %
20.08.2018 20:22 26,3 C 26,7 C 21,1 C 49 % 1014,1 hPa 0,0 l/m 1,1 km/h (1 Bft) NW 319 0 min 0,000 mm 0,0 UV-I 5 W/m 14,7 C 26,3 C 3,2 km/h (1 Bft) 100,00 %
20.08.2018 20:24 26,1 C 26,7 C 21,7 C 50 % 1014,1 hPa 0,0 l/m 1,3 km/h (1 Bft) NW 319 0 min 0,000 mm 0,0 UV-I 1 W/m 14,8 C 26,1 C 1,6 km/h (1 Bft) 94,00 %
20.08.2018 20:26 26,0 C 26,7 C 21,7 C 50 % 1014,1 hPa 0,0 l/m 1,6 km/h (1 Bft) NW 319 0 min 0,000 mm 0,0 UV-I 0 W/m 14,8 C 26,0 C 3,2 km/h (1 Bft) 98,11 %
20.08.2018 20:28 25,9 C 26,7 C 21,7 C 49 % 1014,2 hPa 0,0 l/m 1,8 km/h (1 Bft) NW 319 0 min 0,000 mm 0,0 UV-I 0 W/m 14,4 C 25,9 C 3,2 km/h (1 Bft) 97,87 %
20.08.2018 20:30 26,0 C 26,7 C 21,7 C 50 % 1014,2 hPa 0,0 l/m 1,9 km/h (1 Bft) NW 319 0 min 0,000 mm 0,0 UV-I 0 W/m 14,8 C 26,0 C 3,2 km/h (1 Bft) 94,74 %
20.08.2018 20:32 25,9 C 26,7 C 22,2 C 50 % 1014,2 hPa 0,0 l/m 1,0 km/h (0 Bft) NW 319 0 min 0,000 mm 0,0 UV-I 0 W/m 14,7 C 25,9 C 1,6 km/h (1 Bft) 98,11 %
20.08.2018 20:34 25,8 C 26,7 C 22,2 C 50 % 1014,2 hPa 0,0 l/m 1,3 km/h (1 Bft) NW 319 0 min 0,000 mm 0,0 UV-I 0 W/m 14,6 C 25,8 C 3,2 km/h (1 Bft) 97,87 %
20.08.2018 20:36 25,6 C 26,7 C 21,7 C 51 % 1014,2 hPa 0,0 l/m 0,6 km/h (0 Bft) NW 319 0 min 0,000 mm 0,0 UV-I 0 W/m 14,7 C 25,6 C 1,6 km/h (1 Bft) 97,87 %
20.08.2018 20:38 25,4 C 26,7 C 21,7 C 52 % 1014,4 hPa 0,0 l/m 1,1 km/h (1 Bft) NW 319 0 min 0,000 mm 0,0 UV-I 0 W/m 14,8 C 25,4 C 3,2 km/h (1 Bft) 91,49 %
20.08.2018 20:40 25,2 C 26,7 C 21,7 C 52 % 1014,3 hPa 0,0 l/m 0,5 km/h (0 Bft) NW 319 0 min 0,000 mm 0,0 UV-I 0 W/m 14,6 C 25,2 C 1,6 km/h (1 Bft) 94,00 %
20.08.2018 20:42 24,9 C 26,7 C 21,7 C 53 % 1014,4 hPa 0,0 l/m 0,0 km/h (0 Bft) NW 319 0 min 0,000 mm 0,0 UV-I 0 W/m 14,6 C 24,9 C 0,0 km/h (0 Bft) 100,00 %
20.08.2018 20:44 24,8 C 26,7 C 21,1 C 53 % 1014,4 hPa 0,0 l/m 0,0 km/h (0 Bft) NW 319 0 min 0,000 mm 0,0 UV-I 0 W/m 14,6 C 24,8 C 0,0 km/h (0 Bft) 96,00 %
20.08.2018 20:46 24,7 C 26,7 C 21,1 C 54 % 1014,4 hPa 0,0 l/m 0,0 km/h (0 Bft) NW 319 0 min 0,000 mm 0,0 UV-I 0 W/m 14,8 C 24,7 C 0,0 km/h (0 Bft) 97,87 %
20.08.2018 20:48 24,5 C 26,7 C 21,1 C 54 % 1014,4 hPa 0,0 l/m 0,0 km/h (0 Bft) NW 319 0 min 0,000 mm 0,0 UV-I 0 W/m 14,6 C 24,5 C 0,0 km/h (0 Bft) 97,56 %
20.08.2018 20:50 24,3 C 26,7 C 20,6 C 55 % 1014,4 hPa 0,0 l/m 0,7 km/h (0 Bft) NW 319 0 min 0,000 mm 0,0 UV-I 0 W/m 14,7 C 24,3 C 3,2 km/h (1 Bft) 98,11 %
20.08.2018 20:52 24,1 C 26,7 C 20,6 C 55 % 1014,4 hPa 0,0 l/m 1,7 km/h (1 Bft) NW 319 0 min 0,000 mm 0,0 UV-I 0 W/m 14,5 C 24,1 C 3,2 km/h (1 Bft) 94,87 %
20.08.2018 20:54 24,0 C 26,7 C 20,6 C 56 % 1014,4 hPa 0,0 l/m 1,6 km/h (1 Bft) NW 319 0 min 0,000 mm 0,0 UV-I 0 W/m 14,7 C 24,0 C 3,2 km/h (1 Bft) 96,00 %
20.08.2018 20:56 23,9 C 26,7 C 20,6 C 56 % 1014,5 hPa 0,0 l/m 1,4 km/h (1 Bft) NW 319 0 min 0,000 mm 0,0 UV-I 0 W/m 14,6 C 23,9 C 3,2 km/h (1 Bft) 91,49 %
20.08.2018 20:58 23,9 C 26,7 C 20,0 C 56 % 1014,4 hPa 0,0 l/m 1,1 km/h (1 Bft) NW 319 0 min 0,000 mm 0,0 UV-I 0 W/m 14,6 C 23,9 C 1,6 km/h (1 Bft) 96,00 %
20.08.2018 21:00 23,8 C 26,7 C 20,0 C 56 % 1014,5 hPa 0,0 l/m 1,0 km/h (0 Bft) NW 319 0 min 0,000 mm 0,0 UV-I 0 W/m 14,5 C 23,8 C 1,6 km/h (1 Bft) 97,87 %
20.08.2018 21:02 23,8 C 26,7 C 20,0 C 56 % 1014,5 hPa 0,0 l/m 2,0 km/h (1 Bft) NW 319 0 min 0,025 mm 0,0 UV-I 0 W/m 14,5 C 23,8 C 3,2 km/h (1 Bft) 96,00 %
20.08.2018 21:04 23,8 C 26,7 C 20,6 C 56 % 1014,5 hPa 0,0 l/m 2,5 km/h (1 Bft) NW 319 0 min 0,000 mm 0,0 UV-I 0 W/m 14,5 C 23,8 C 3,2 km/h (1 Bft) 98,00 %
20.08.2018 21:06 23,7 C 26,7 C 20,6 C 56 % 1014,5 hPa 0,0 l/m 2,4 km/h (1 Bft) NW 319 0 min 0,000 mm 0,0 UV-I 0 W/m 14,4 C 23,7 C 3,2 km/h (1 Bft) 97,87 %
20.08.2018 21:08 23,6 C 26,7 C 20,6 C 56 % 1014,5 hPa 0,0 l/m 3,0 km/h (1 Bft) NW 319 0 min 0,000 mm 0,0 UV-I 0 W/m 14,3 C 23,6 C 3,2 km/h (1 Bft) 97,87 %
20.08.2018 21:10 23,6 C 26,7 C 20,0 C 57 % 1014,5 hPa 0,0 l/m 2,7 km/h (1 Bft) NW 319 0 min 0,000 mm 0,0 UV-I 0 W/m 14,6 C 23,6 C 3,2 km/h (1 Bft) 96,15 %
20.08.2018 21:12 23,6 C 26,7 C 20,0 C 57 % 1014,6 hPa 0,0 l/m 3,1 km/h (1 Bft) NW 319 0 min 0,000 mm 0,0 UV-I 0 W/m 14,6 C 23,6 C 3,2 km/h (1 Bft) 98,39 %
20.08.2018 21:14 23,4 C 26,7 C 20,0 C 57 % 1014,6 hPa 0,0 l/m 3,2 km/h (1 Bft) NW 319 0 min 0,000 mm 0,0 UV-I 0 W/m 14,4 C 23,4 C 4,8 km/h (1 Bft) 95,74 %
20.08.2018 21:16 23,4 C 26,7 C 20,0 C 57 % 1014,7 hPa 0,0 l/m 3,5 km/h (1 Bft) NW 319 0 min 0,000 mm 0,0 UV-I 0 W/m 14,4 C 23,4 C 4,8 km/h (1 Bft) 97,56 %
20.08.2018 21:18 23,3 C 26,7 C 20,0 C 58 % 1014,6 hPa 0,0 l/m 3,4 km/h (1 Bft) NW 319 0 min 0,000 mm 0,0 UV-I 0 W/m 14,6 C 23,3 C 4,8 km/h (1 Bft) 100,00 %
20.08.2018 21:20 23,2 C 26,7 C 20,0 C 58 % 1014,6 hPa 0,0 l/m 3,8 km/h (1 Bft) W-NW 288 0 min 0,000 mm 0,0 UV-I 0 W/m 14,5 C 23,2 C 4,8 km/h (1 Bft) 98,00 %
20.08.2018 21:22 23,2 C 26,7 C 20,0 C 58 % 1014,7 hPa 0,0 l/m 4,0 km/h (1 Bft) W-NW 288 0 min 0,000 mm 0,0 UV-I 0 W/m 14,5 C 23,2 C 4,8 km/h (1 Bft) 100,00 %
20.08.2018 21:24 23,1 C 26,7 C 20,0 C 59 % 1014,7 hPa 0,0 l/m 3,7 km/h (1 Bft) W-NW 283 0 min 0,000 mm 0,0 UV-I 0 W/m 14,6 C 23,1 C 4,8 km/h (1 Bft) 100,00 %
20.08.2018 21:26 23,1 C 26,7 C 20,0 C 59 % 1014,7 hPa 0,0 l/m 4,1 km/h (1 Bft) W-NW 283 0 min 0,000 mm 0,0 UV-I 0 W/m 14,6 C 23,1 C 4,8 km/h (1 Bft) 100,00 %
20.08.2018 21:28 22,9 C 26,7 C 20,0 C 59 % 1014,7 hPa 0,0 l/m 4,3 km/h (1 Bft) W 269 0 min 0,000 mm 0,0 UV-I 0 W/m 14,5 C 22,9 C 4,8 km/h (1 Bft) 100,00 %
20.08.2018 21:30 22,9 C 26,7 C 20,0 C 59 % 1014,7 hPa 0,0 l/m 4,7 km/h (1 Bft) W-SW 256 0 min 0,000 mm 0,0 UV-I 0 W/m 14,5 C 22,9 C 6,4 km/h (2 Bft) 97,56 %
20.08.2018 21:32 22,9 C 26,7 C 19,4 C 59 % 1014,7 hPa 0,0 l/m 4,5 km/h (1 Bft) W-SW 255 0 min 0,000 mm 0,0 UV-I 0 W/m 14,5 C 22,9 C 4,8 km/h (1 Bft) 100,00 %
20.08.2018 21:34 22,9 C 26,7 C 19,4 C 59 % 1014,7 hPa 0,0 l/m 4,8 km/h (1 Bft) W-SW 237 0 min 0,000 mm 0,0 UV-I 0 W/m 14,5 C 22,9 C 6,4 km/h (2 Bft) 100,00 %
20.08.2018 21:36 22,9 C 26,7 C 19,4 C 59 % 1014,7 hPa 0,0 l/m 4,9 km/h (1 Bft) SW 234 0 min 0,000 mm 0,0 UV-I 0 W/m 14,5 C 22,9 C 6,4 km/h (2 Bft) 100,00 %
20.08.2018 21:38 22,8 C 26,7 C 19,4 C 59 % 1014,7 hPa 0,0 l/m 4,9 km/h (1 Bft) SW 234 0 min 0,000 mm 0,0 UV-I 0 W/m 14,4 C 22,8 C 6,4 km/h (2 Bft) 100,00 %
20.08.2018 21:40 22,8 C 26,7 C 19,4 C 59 % 1014,7 hPa 0,0 l/m 4,7 km/h (1 Bft) SW 233 0 min 0,000 mm 0,0 UV-I 0 W/m 14,4 C 22,8 C 6,4 km/h (2 Bft) 100,00 %
20.08.2018 21:42 22,7 C 26,7 C 19,4 C 59 % 1014,7 hPa 0,0 l/m 4,7 km/h (1 Bft) SW 233 0 min 0,000 mm 0,0 UV-I 0 W/m 14,3 C 22,7 C 6,4 km/h (2 Bft) 96,61 %
20.08.2018 21:44 22,6 C 26,7 C 19,4 C 60 % 1014,7 hPa 0,0 l/m 4,8 km/h (1 Bft) SW 232 0 min 0,000 mm 0,0 UV-I 0 W/m 14,4 C 22,6 C 6,4 km/h (2 Bft) 94,29 %
20.08.2018 21:46 22,4 C 26,7 C 19,4 C 61 % 1014,7 hPa 0,0 l/m 5,0 km/h (1 Bft) SW 222 0 min 0,000 mm 0,0 UV-I 0 W/m 14,5 C 22,4 C 6,4 km/h (2 Bft) 96,00 %
20.08.2018 21:48 22,3 C 26,7 C 18,9 C 61 % 1014,7 hPa 0,0 l/m 5,2 km/h (1 Bft) SW 221 0 min 0,000 mm 0,0 UV-I 0 W/m 14,4 C 22,3 C 6,4 km/h (2 Bft) 98,00 %
20.08.2018 21:50 22,2 C 26,7 C 18,9 C 61 % 1014,7 hPa 0,0 l/m 5,7 km/h (1 Bft) S-SW 192 0 min 0,000 mm 0,0 UV-I 0 W/m 14,3 C 22,2 C 6,4 km/h (2 Bft) 98,11 %
20.08.2018 21:52 22,2 C 26,7 C 18,9 C 61 % 1014,8 hPa 0,0 l/m 5,6 km/h (1 Bft) S-SW 192 0 min 0,000 mm 0,0 UV-I 0 W/m 14,3 C 22,2 C 6,4 km/h (2 Bft) 97,37 %
20.08.2018 21:54 22,3 C 26,1 C 19,4 C 61 % 1014,8 hPa 0,0 l/m 5,6 km/h (1 Bft) S-SW 192 0 min 0,000 mm 0,0 UV-I 0 W/m 14,4 C 22,3 C 6,4 km/h (2 Bft) 94,34 %
20.08.2018 21:56 22,4 C 26,7 C 19,4 C 61 % 1014,8 hPa 0,0 l/m 5,6 km/h (1 Bft) S-SW 192 0 min 0,000 mm 0,0 UV-I 0 W/m 14,5 C 22,4 C 6,4 km/h (2 Bft) 98,00 %
20.08.2018 21:58 22,4 C 26,1 C 19,4 C 61 % 1014,8 hPa 0,0 l/m 5,3 km/h (1 Bft) S-SW 192 0 min 0,000 mm 0,0 UV-I 0 W/m 14,5 C 22,4 C 6,4 km/h (2 Bft) 97,37 %
20.08.2018 22:00 22,5 C 26,1 C 19,4 C 61 % 1014,9 hPa 0,0 l/m 5,1 km/h (1 Bft) S-SW 194 0 min 0,000 mm 0,0 UV-I 0 W/m 14,6 C 22,5 C 6,4 km/h (2 Bft) 98,00 %
20.08.2018 22:02 22,6 C 26,1 C 20,0 C 60 % 1014,9 hPa 0,0 l/m 4,9 km/h (1 Bft) S-SW 192 0 min 0,026 mm 0,0 UV-I 0 W/m 14,4 C 22,6 C 6,4 km/h (2 Bft) 94,74 %
20.08.2018 22:04 22,8 C 26,1 C 20,6 C 59 % 1014,9 hPa 0,0 l/m 5,8 km/h (2 Bft) S-SW 213 0 min 0,000 mm 0,0 UV-I 0 W/m 14,4 C 22,8 C 8,0 km/h (2 Bft) 98,21 %
20.08.2018 22:06 22,8 C 26,1 C 21,1 C 59 % 1014,9 hPa 0,0 l/m 5,7 km/h (1 Bft) S-SW 206 0 min 0,000 mm 0,0 UV-I 0 W/m 14,4 C 22,8 C 8,0 km/h (2 Bft) 98,00 %
20.08.2018 22:08 22,8 C 26,1 C 21,1 C 59 % 1015,0 hPa 0,0 l/m 5,6 km/h (1 Bft) S-SW 194 0 min 0,000 mm 0,0 UV-I 0 W/m 14,4 C 22,8 C 8,0 km/h (2 Bft) 94,87 %
20.08.2018 22:10 22,9 C 26,1 C 21,1 C 59 % 1014,9 hPa 0,0 l/m 5,8 km/h (2 Bft) S-SW 202 0 min 0,000 mm 0,0 UV-I 0 W/m 14,5 C 22,9 C 8,0 km/h (2 Bft) 97,87 %
20.08.2018 22:12 23,0 C 26,1 C 21,7 C 59 % 1015,0 hPa 0,0 l/m 5,0 km/h (1 Bft) S-SW 200 0 min 0,000 mm 0,0 UV-I 0 W/m 14,5 C 23,0 C 8,0 km/h (2 Bft) 98,00 %
20.08.2018 22:14 23,0 C 26,1 C 21,7 C 59 % 1015,0 hPa 0,0 l/m 5,0 km/h (1 Bft) S-SW 203 0 min 0,000 mm 0,0 UV-I 0 W/m 14,5 C 23,0 C 6,4 km/h (2 Bft) 98,08 %
20.08.2018 22:16 22,9 C 26,1 C 21,7 C 59 % 1015,0 hPa 0,0 l/m 5,4 km/h (1 Bft) S-SW 203 0 min 0,000 mm 0,0 UV-I 0 W/m 14,5 C 22,9 C 8,0 km/h (2 Bft) 100,00 %
20.08.2018 22:18 22,8 C 26,1 C 21,7 C 60 % 1015,0 hPa 0,0 l/m 5,0 km/h (1 Bft) S-SW 211 0 min 0,000 mm 0,0 UV-I 0 W/m 14,6 C 22,8 C 8,0 km/h (2 Bft) 95,74 %
20.08.2018 22:20 22,7 C 26,1 C 21,7 C 61 % 1015,0 hPa 0,0 l/m 5,1 km/h (1 Bft) S-SW 198 0 min 0,000 mm 0,0 UV-I 0 W/m 14,8 C 22,7 C 8,0 km/h (2 Bft) 97,56 %
20.08.2018 22:22 22,7 C 26,1 C 21,7 C 61 % 1015,0 hPa 0,0 l/m 4,4 km/h (1 Bft) S-SW 193 0 min 0,000 mm 0,0 UV-I 0 W/m 14,8 C 22,7 C 6,4 km/h (2 Bft) 96,00 %
20.08.2018 22:24 22,6 C 26,1 C 21,7 C 61 % 1015,0 hPa 0,0 l/m 3,5 km/h (1 Bft) S-SW 196 0 min 0,000 mm 0,0 UV-I 0 W/m 14,7 C 22,6 C 4,8 km/h (1 Bft) 98,00 %
20.08.2018 22:26 22,7 C 26,1 C 21,7 C 61 % 1015,0 hPa 0,0 l/m 4,8 km/h (1 Bft) S-SW 205 0 min 0,000 mm 0,0 UV-I 0 W/m 14,8 C 22,7 C 8,0 km/h (2 Bft) 98,11 %
20.08.2018 22:28 22,7 C 26,1 C 21,7 C 62 % 1015,0 hPa 0,0 l/m 6,7 km/h (2 Bft) S-SW 206 0 min 0,000 mm 0,0 UV-I 0 W/m 15,0 C 22,6 C 9,7 km/h (2 Bft) 97,73 %
20.08.2018 22:30 22,8 C 26,1 C 22,2 C 62 % 1015,0 hPa 0,0 l/m 6,2 km/h (2 Bft) S-SW 195 0 min 0,000 mm 0,0 UV-I 0 W/m 15,1 C 22,8 C 8,0 km/h (2 Bft) 97,37 %
20.08.2018 22:32 22,8 C 26,1 C 22,2 C 62 % 1015,1 hPa 0,0 l/m 6,2 km/h (2 Bft) S-SW 202 0 min 0,000 mm 0,0 UV-I 0 W/m 15,1 C 22,8 C 8,0 km/h (2 Bft) 98,21 %
20.08.2018 22:34 22,8 C 26,1 C 22,2 C 62 % 1015,1 hPa 0,0 l/m 6,4 km/h (2 Bft) S-SW 200 0 min 0,000 mm 0,0 UV-I 0 W/m 15,1 C 22,8 C 8,0 km/h (2 Bft) 97,37 %
20.08.2018 22:36 22,8 C 26,1 C 22,2 C 62 % 1015,1 hPa 0,0 l/m 6,7 km/h (2 Bft) S 183 0 min 0,000 mm 0,0 UV-I 0 W/m 15,1 C 22,7 C 9,7 km/h (2 Bft) 95,74 %
20.08.2018 22:39 22,7 C 26,1 C 22,2 C 62 % 1015,1 hPa 0,0 l/m 5,5 km/h (1 Bft) S-SW 202 0 min 0,000 mm 0,0 UV-I 0 W/m 15,0 C 22,7 C 8,0 km/h (2 Bft) 96,10 %
20.08.2018 22:40 22,7 C 26,1 C 22,2 C 62 % 1015,1 hPa 0,0 l/m 5,4 km/h (1 Bft) S-SW 210 0 min 0,000 mm 0,0 UV-I 0 W/m 15,0 C 22,7 C 8,0 km/h (2 Bft) 100,00 %
20.08.2018 22:42 22,7 C 26,1 C 22,2 C 63 % 1015,1 hPa 0,0 l/m 5,5 km/h (1 Bft) S-SW 200 0 min 0,000 mm 0,0 UV-I 0 W/m 15,3 C 22,7 C 8,0 km/h (2 Bft) 98,04 %
20.08.2018 22:44 22,6 C 26,1 C 22,2 C 63 % 1015,1 hPa 0,0 l/m 5,7 km/h (1 Bft) S-SW 197 0 min 0,000 mm 0,0 UV-I 0 W/m 15,2 C 22,6 C 9,7 km/h (2 Bft) 95,92 %
20.08.2018 22:46 22,7 C 26,1 C 22,2 C 63 % 1015,1 hPa 0,0 l/m 6,5 km/h (2 Bft) S-SW 205 0 min 0,000 mm 0,0 UV-I 0 W/m 15,3 C 22,7 C 8,0 km/h (2 Bft) 100,00 %
20.08.2018 22:48 22,7 C 26,1 C 22,2 C 63 % 1015,2 hPa 0,0 l/m 5,3 km/h (1 Bft) S-SW 197 0 min 0,000 mm 0,0 UV-I 0 W/m 15,3 C 22,7 C 6,4 km/h (2 Bft) 100,00 %
20.08.2018 22:50 22,7 C 26,1 C 22,2 C 63 % 1015,2 hPa 0,0 l/m 6,3 km/h (2 Bft) S 184 0 min 0,000 mm 0,0 UV-I 0 W/m 15,3 C 22,7 C 8,0 km/h (2 Bft) 97,87 %
20.08.2018 22:52 22,7 C 26,1 C 22,2 C 63 % 1015,2 hPa 0,0 l/m 5,7 km/h (1 Bft) S-SW 194 0 min 0,000 mm 0,0 UV-I 0 W/m 15,3 C 22,7 C 8,0 km/h (2 Bft) 100,00 %
20.08.2018 22:54 22,6 C 26,1 C 22,2 C 63 % 1015,2 hPa 0,0 l/m 6,8 km/h (2 Bft) S 188 0 min 0,000 mm 0,0 UV-I 0 W/m 15,2 C 22,5 C 9,7 km/h (2 Bft) 98,21 %
20.08.2018 22:56 22,6 C 26,1 C 22,2 C 63 % 1015,2 hPa 0,0 l/m 7,0 km/h (2 Bft) S 186 0 min 0,000 mm 0,0 UV-I 0 W/m 15,2 C 22,4 C 9,7 km/h (2 Bft) 100,00 %
20.08.2018 22:58 22,6 C 26,1 C 22,2 C 63 % 1015,3 hPa 0,0 l/m 6,5 km/h (2 Bft) S-SW 195 0 min 0,000 mm 0,0 UV-I 0 W/m 15,2 C 22,6 C 9,7 km/h (2 Bft) 97,37 %
20.08.2018 23:00 22,6 C 26,1 C 22,2 C 63 % 1015,3 hPa 0,0 l/m 6,8 km/h (2 Bft) S 190 0 min 0,000 mm 0,0 UV-I 0 W/m 15,2 C 22,5 C 9,7 km/h (2 Bft) 100,00 %
20.08.2018 23:02 22,6 C 26,1 C 21,7 C 63 % 1015,2 hPa 0,0 l/m 6,4 km/h (2 Bft) S-SW 212 0 min 0,051 mm 0,0 UV-I 0 W/m 15,2 C 22,6 C 8,0 km/h (2 Bft) 100,00 %
20.08.2018 23:04 22,5 C 26,1 C 21,7 C 63 % 1015,3 hPa 0,0 l/m 6,5 km/h (2 Bft) S-SW 195 0 min 0,000 mm 0,0 UV-I 0 W/m 15,1 C 22,5 C 8,0 km/h (2 Bft) 100,00 %
20.08.2018 23:06 22,5 C 26,1 C 21,7 C 63 % 1015,3 hPa 0,0 l/m 6,1 km/h (2 Bft) S-SW 199 0 min 0,000 mm 0,0 UV-I 0 W/m 15,1 C 22,5 C 9,7 km/h (2 Bft) 100,00 %
20.08.2018 23:08 22,4 C 26,1 C 21,7 C 63 % 1015,2 hPa 0,0 l/m 6,2 km/h (2 Bft) SW 215 0 min 0,000 mm 0,0 UV-I 0 W/m 15,0 C 22,4 C 8,0 km/h (2 Bft) 100,00 %
20.08.2018 23:10 22,3 C 26,1 C 21,7 C 63 % 1015,3 hPa 0,0 l/m 6,4 km/h (2 Bft) S-SW 198 0 min 0,000 mm 0,0 UV-I 0 W/m 14,9 C 22,3 C 8,0 km/h (2 Bft) 100,00 %
20.08.2018 23:12 22,3 C 26,1 C 21,7 C 64 % 1015,3 hPa 0,0 l/m 6,7 km/h (2 Bft) SW 216 0 min 0,000 mm 0,0 UV-I 0 W/m 15,2 C 22,2 C 9,7 km/h (2 Bft) 98,00 %
20.08.2018 23:14 22,3 C 26,1 C 21,7 C 64 % 1015,3 hPa 0,0 l/m 5,8 km/h (2 Bft) SW 215 0 min 0,000 mm 0,0 UV-I 0 W/m 15,2 C 22,3 C 8,0 km/h (2 Bft) 100,00 %
20.08.2018 23:16 22,3 C 26,1 C 21,7 C 64 % 1015,3 hPa 0,0 l/m 5,5 km/h (1 Bft) S-SW 196 0 min 0,000 mm 0,0 UV-I 0 W/m 15,2 C 22,3 C 9,7 km/h (2 Bft) 98,11 %
20.08.2018 23:18 22,2 C 26,1 C 21,7 C 64 % 1015,3 hPa 0,0 l/m 6,7 km/h (2 Bft) S-SW 200 0 min 0,000 mm 0,0 UV-I 0 W/m 15,1 C 22,1 C 9,7 km/h (2 Bft) 100,00 %
20.08.2018 23:20 22,3 C 26,1 C 21,7 C 64 % 1015,3 hPa 0,0 l/m 6,3 km/h (2 Bft) S-SW 197 0 min 0,000 mm 0,0 UV-I 0 W/m 15,2 C 22,3 C 8,0 km/h (2 Bft) 100,00 %
20.08.2018 23:22 22,3 C 26,1 C 21,7 C 64 % 1015,3 hPa 0,0 l/m 7,2 km/h (2 Bft) SW 215 0 min 0,000 mm 0,0 UV-I 0 W/m 15,2 C 22,0 C 9,7 km/h (2 Bft) 100,00 %
20.08.2018 23:24 22,2 C 26,1 C 21,7 C 64 % 1015,3 hPa 0,0 l/m 6,3 km/h (2 Bft) S-SW 203 0 min 0,000 mm 0,0 UV-I 0 W/m 15,1 C 22,2 C 9,7 km/h (2 Bft) 100,00 %
20.08.2018 23:26 22,2 C 26,1 C 21,7 C 64 % 1015,3 hPa 0,0 l/m 7,0 km/h (2 Bft) S-SW 198 0 min 0,000 mm 0,0 UV-I 0 W/m 15,1 C 22,0 C 11,3 km/h (2 Bft) 100,00 %
20.08.2018 23:28 22,2 C 26,1 C 21,1 C 64 % 1015,3 hPa 0,0 l/m 7,5 km/h (2 Bft) S-SW 206 0 min 0,000 mm 0,0 UV-I 0 W/m 15,1 C 21,8 C 9,7 km/h (2 Bft) 100,00 %
20.08.2018 23:30 22,2 C 26,1 C 21,1 C 64 % 1015,4 hPa 0,0 l/m 6,4 km/h (2 Bft) S-SW 211 0 min 0,000 mm 0,0 UV-I 0 W/m 15,1 C 22,2 C 8,0 km/h (2 Bft) 100,00 %
20.08.2018 23:32 22,1 C 26,1 C 21,1 C 64 % 1015,3 hPa 0,0 l/m 6,1 km/h (2 Bft) S-SW 205 0 min 0,000 mm 0,0 UV-I 0 W/m 15,0 C 22,1 C 9,7 km/h (2 Bft) 100,00 %
20.08.2018 23:34 22,1 C 26,1 C 21,1 C 65 % 1015,3 hPa 0,0 l/m 6,3 km/h (2 Bft) S-SW 199 0 min 0,000 mm 0,0 UV-I 0 W/m 15,2 C 22,1 C 8,0 km/h (2 Bft) 97,87 %
20.08.2018 23:36 22,0 C 26,1 C 21,1 C 64 % 1015,3 hPa 0,0 l/m 6,6 km/h (2 Bft) S-SW 205 0 min 0,000 mm 0,0 UV-I 0 W/m 14,9 C 21,9 C 8,0 km/h (2 Bft) 100,00 %
20.08.2018 23:38 22,0 C 26,1 C 21,1 C 64 % 1015,3 hPa 0,0 l/m 6,7 km/h (2 Bft) S-SW 207 0 min 0,000 mm 0,0 UV-I 0 W/m 14,9 C 21,9 C 8,0 km/h (2 Bft) 97,87 %
20.08.2018 23:40 22,0 C 26,1 C 21,1 C 64 % 1015,3 hPa 0,0 l/m 6,4 km/h (2 Bft) SW 215 0 min 0,000 mm 0,0 UV-I 0 W/m 14,9 C 22,0 C 9,7 km/h (2 Bft) 98,00 %
20.08.2018 23:42 21,9 C 26,1 C 21,1 C 65 % 1015,3 hPa 0,0 l/m 6,5 km/h (2 Bft) SW 215 0 min 0,000 mm 0,0 UV-I 0 W/m 15,0 C 21,9 C 9,7 km/h (2 Bft) 97,56 %
20.08.2018 23:44 21,9 C 26,1 C 21,1 C 65 % 1015,3 hPa 0,0 l/m 6,7 km/h (2 Bft) S 190 0 min 0,000 mm 0,0 UV-I 0 W/m 15,0 C 21,8 C 9,7 km/h (2 Bft) 97,37 %
20.08.2018 23:46 21,8 C 26,1 C 21,1 C 65 % 1015,3 hPa 0,0 l/m 7,2 km/h (2 Bft) SW 215 0 min 0,000 mm 0,0 UV-I 0 W/m 14,9 C 21,5 C 9,7 km/h (2 Bft) 96,23 %
20.08.2018 23:48 21,8 C 26,1 C 20,6 C 65 % 1015,3 hPa 0,0 l/m 6,7 km/h (2 Bft) S-SW 196 0 min 0,000 mm 0,0 UV-I 0 W/m 14,9 C 21,7 C 11,3 km/h (2 Bft) 97,87 %
20.08.2018 23:50 21,8 C 26,1 C 20,6 C 65 % 1015,3 hPa 0,0 l/m 6,0 km/h (2 Bft) SW 216 0 min 0,000 mm 0,0 UV-I 0 W/m 14,9 C 21,8 C 8,0 km/h (2 Bft) 96,00 %
20.08.2018 23:52 21,8 C 26,1 C 20,6 C 64 % 1015,3 hPa 0,0 l/m 7,9 km/h (2 Bft) SW 232 0 min 0,000 mm 0,0 UV-I 0 W/m 14,7 C 21,3 C 11,3 km/h (2 Bft) 91,49 %
20.08.2018 23:54 21,8 C 26,1 C 20,6 C 65 % 1015,4 hPa 0,0 l/m 6,6 km/h (2 Bft) SW 221 0 min 0,000 mm 0,0 UV-I 0 W/m 14,9 C 21,7 C 11,3 km/h (2 Bft) 91,49 %
20.08.2018 23:56 21,8 C 26,1 C 20,6 C 64 % 1015,4 hPa 0,0 l/m 6,6 km/h (2 Bft) S-SW 209 0 min 0,000 mm 0,0 UV-I 0 W/m 14,7 C 21,7 C 9,7 km/h (2 Bft) 95,12 %
20.08.2018 23:58 21,8 C 26,1 C 20,6 C 64 % 1015,4 hPa 0,0 l/m 8,5 km/h (2 Bft) SW 215 0 min 0,000 mm 0,0 UV-I 0 W/m 14,7 C 21,1 C 11,3 km/h (2 Bft) 91,07 %
_ Min-Zeit 06:28 06:04 05:56 15:58 18:48 - 05:54 - - - - - - 15:58 06:28 05:54 16:08
Minimum _ 16,8 C 25,0 C 14,4 C 32 % 1013,4 hPa - 0,0 km/h (0 Bft) - - - - - - 12,4 C 16,8 C 0,0 km/h (0 Bft) 88,68 %
_ Max-Zeit 16:24 15:04 14:06 06:20 09:30 00:01 11:54 - - 15:29 14:00 12:56 13:00 11:34 16:24 13:06 00:40
Maximum _ 31,7 C 26,7 C 42,8 C 83 % 1016,6 hPa 0,0 l/m 13,6 km/h
W (3 Bft)
- - 3 min 0,584 mm 4,9 UV-I 762 W/m 16,6 C 31,7 C 22,5 km/h
W-SW (4 Bft)
100,00 %
Durchschnitt _ 24,3 C 26,0 C 26,5 C 57 % 1015,2 hPa #0,0 l/m 5,1 km/h (1 Bft) S-SW - #11:56 h #4,674 mm 2,7 UV-I 383 W/m 14,5 C 24,2 C 8,4 km/h (2 Bft) 97,45 %